<?xml version="1.0" encoding="UTF-8" standalone="no" ?>
<gpx xmlns="http://www.topografix.com/GPX/1/1" xmlns:xsi="http://www.w3.org/2001/XMLSchema-instance" xsi:schemaLocation="http://www.topografix.com/GPX/1/1 http://www.topografix.com/GPX/1/1/gpx.xsd" version="1.1" creator="VisuGPX - https://www.visugpx.com">
  <metadata>
    <name>Circuit Andrée Gapin et Gilbert </name>
    <desc><![CDATA[Bussières Néronde pont Marteau]]></desc>
  </metadata>
  <trk>
    <name><![CDATA[20180820113229-wwftg]]></name>
    <trkseg>
      <trkpt lat="45.83781" lon="4.26828">
        <ele>662.68</ele>
        <time>2018-08-20T06:04:27Z</time>
      </trkpt>
      <trkpt lat="45.83781" lon="4.26828">
        <ele>662.443</ele>
        <time>2018-08-20T06:04:33Z</time>
      </trkpt>
      <trkpt lat="45.83781" lon="4.26828">
        <ele>661.861</ele>
        <time>2018-08-20T06:04:39Z</time>
      </trkpt>
      <trkpt lat="45.83781" lon="4.26828">
        <ele>661.651</ele>
        <time>2018-08-20T06:04:45Z</time>
      </trkpt>
      <trkpt lat="45.83781" lon="4.26828">
        <ele>661.486</ele>
        <time>2018-08-20T06:04:51Z</time>
      </trkpt>
      <trkpt lat="45.83781" lon="4.26828">
        <ele>660.919</ele>
        <time>2018-08-20T06:04:56Z</time>
      </trkpt>
      <trkpt lat="45.83789" lon="4.26825">
        <ele>659.861</ele>
        <time>2018-08-20T06:05:02Z</time>
      </trkpt>
      <trkpt lat="45.83797" lon="4.26822">
        <ele>658.739</ele>
        <time>2018-08-20T06:05:08Z</time>
      </trkpt>
      <trkpt lat="45.838" lon="4.2682">
        <ele>657.73</ele>
        <time>2018-08-20T06:05:13Z</time>
      </trkpt>
      <trkpt lat="45.838" lon="4.26818">
        <ele>656.322</ele>
        <time>2018-08-20T06:05:19Z</time>
      </trkpt>
      <trkpt lat="45.838" lon="4.26818">
        <ele>654.966</ele>
        <time>2018-08-20T06:05:25Z</time>
      </trkpt>
      <trkpt lat="45.83802" lon="4.26814">
        <ele>654.211</ele>
        <time>2018-08-20T06:05:30Z</time>
      </trkpt>
      <trkpt lat="45.83798" lon="4.26807">
        <ele>653.852</ele>
        <time>2018-08-20T06:05:35Z</time>
      </trkpt>
      <trkpt lat="45.83796" lon="4.26799">
        <ele>653.102</ele>
        <time>2018-08-20T06:05:40Z</time>
      </trkpt>
      <trkpt lat="45.83792" lon="4.26792">
        <ele>651.833</ele>
        <time>2018-08-20T06:05:45Z</time>
      </trkpt>
      <trkpt lat="45.8379" lon="4.26782">
        <ele>650.874</ele>
        <time>2018-08-20T06:05:51Z</time>
      </trkpt>
      <trkpt lat="45.83786" lon="4.26775">
        <ele>650.487</ele>
        <time>2018-08-20T06:05:57Z</time>
      </trkpt>
      <trkpt lat="45.83783" lon="4.26766">
        <ele>649.463</ele>
        <time>2018-08-20T06:06:03Z</time>
      </trkpt>
      <trkpt lat="45.8378" lon="4.26753">
        <ele>648.914</ele>
        <time>2018-08-20T06:06:09Z</time>
      </trkpt>
      <trkpt lat="45.83777" lon="4.26744">
        <ele>648.459</ele>
        <time>2018-08-20T06:06:15Z</time>
      </trkpt>
      <trkpt lat="45.83774" lon="4.26735">
        <ele>648.138</ele>
        <time>2018-08-20T06:06:20Z</time>
      </trkpt>
      <trkpt lat="45.8377" lon="4.2673">
        <ele>648.122</ele>
        <time>2018-08-20T06:06:25Z</time>
      </trkpt>
      <trkpt lat="45.83766" lon="4.26723">
        <ele>647.919</ele>
        <time>2018-08-20T06:06:30Z</time>
      </trkpt>
      <trkpt lat="45.83763" lon="4.26715">
        <ele>647.118</ele>
        <time>2018-08-20T06:06:36Z</time>
      </trkpt>
      <trkpt lat="45.83757" lon="4.26708">
        <ele>646.06</ele>
        <time>2018-08-20T06:06:42Z</time>
      </trkpt>
      <trkpt lat="45.83754" lon="4.26699">
        <ele>645.241</ele>
        <time>2018-08-20T06:06:47Z</time>
      </trkpt>
      <trkpt lat="45.83752" lon="4.2669">
        <ele>644.279</ele>
        <time>2018-08-20T06:06:53Z</time>
      </trkpt>
      <trkpt lat="45.8375" lon="4.2668">
        <ele>643.764</ele>
        <time>2018-08-20T06:06:58Z</time>
      </trkpt>
      <trkpt lat="45.83754" lon="4.26669">
        <ele>643.037</ele>
        <time>2018-08-20T06:07:04Z</time>
      </trkpt>
      <trkpt lat="45.8376" lon="4.26666">
        <ele>642.298</ele>
        <time>2018-08-20T06:07:09Z</time>
      </trkpt>
      <trkpt lat="45.83765" lon="4.26658">
        <ele>641.38</ele>
        <time>2018-08-20T06:07:15Z</time>
      </trkpt>
      <trkpt lat="45.8377" lon="4.26649">
        <ele>640.318</ele>
        <time>2018-08-20T06:07:21Z</time>
      </trkpt>
      <trkpt lat="45.83773" lon="4.26642">
        <ele>639.629</ele>
        <time>2018-08-20T06:07:26Z</time>
      </trkpt>
      <trkpt lat="45.83774" lon="4.26631">
        <ele>639.059</ele>
        <time>2018-08-20T06:07:32Z</time>
      </trkpt>
      <trkpt lat="45.83769" lon="4.26623">
        <ele>639.057</ele>
        <time>2018-08-20T06:07:37Z</time>
      </trkpt>
      <trkpt lat="45.83763" lon="4.26616">
        <ele>638.764</ele>
        <time>2018-08-20T06:07:43Z</time>
      </trkpt>
      <trkpt lat="45.83758" lon="4.26609">
        <ele>638.396</ele>
        <time>2018-08-20T06:07:49Z</time>
      </trkpt>
      <trkpt lat="45.83754" lon="4.26602">
        <ele>637.581</ele>
        <time>2018-08-20T06:07:54Z</time>
      </trkpt>
      <trkpt lat="45.83748" lon="4.26591">
        <ele>636.705</ele>
        <time>2018-08-20T06:08:00Z</time>
      </trkpt>
      <trkpt lat="45.83744" lon="4.26584">
        <ele>636.243</ele>
        <time>2018-08-20T06:08:05Z</time>
      </trkpt>
      <trkpt lat="45.83743" lon="4.26574">
        <ele>635.148</ele>
        <time>2018-08-20T06:08:11Z</time>
      </trkpt>
      <trkpt lat="45.83741" lon="4.26567">
        <ele>634.068</ele>
        <time>2018-08-20T06:08:16Z</time>
      </trkpt>
      <trkpt lat="45.83744" lon="4.26554">
        <ele>632.904</ele>
        <time>2018-08-20T06:08:22Z</time>
      </trkpt>
      <trkpt lat="45.83743" lon="4.26543">
        <ele>632.232</ele>
        <time>2018-08-20T06:08:27Z</time>
      </trkpt>
      <trkpt lat="45.83744" lon="4.26536">
        <ele>631.412</ele>
        <time>2018-08-20T06:08:33Z</time>
      </trkpt>
      <trkpt lat="45.8375" lon="4.26533">
        <ele>630.586</ele>
        <time>2018-08-20T06:08:38Z</time>
      </trkpt>
      <trkpt lat="45.83758" lon="4.26537">
        <ele>629.882</ele>
        <time>2018-08-20T06:08:44Z</time>
      </trkpt>
      <trkpt lat="45.83763" lon="4.26538">
        <ele>628.904</ele>
        <time>2018-08-20T06:08:49Z</time>
      </trkpt>
      <trkpt lat="45.83766" lon="4.26541">
        <ele>628.085</ele>
        <time>2018-08-20T06:08:54Z</time>
      </trkpt>
      <trkpt lat="45.83773" lon="4.26543">
        <ele>627.127</ele>
        <time>2018-08-20T06:09:00Z</time>
      </trkpt>
      <trkpt lat="45.83779" lon="4.26547">
        <ele>626.156</ele>
        <time>2018-08-20T06:09:05Z</time>
      </trkpt>
      <trkpt lat="45.83785" lon="4.2655">
        <ele>625.238</ele>
        <time>2018-08-20T06:09:10Z</time>
      </trkpt>
      <trkpt lat="45.83795" lon="4.26557">
        <ele>624.4</ele>
        <time>2018-08-20T06:09:16Z</time>
      </trkpt>
      <trkpt lat="45.83799" lon="4.26562">
        <ele>623.292</ele>
        <time>2018-08-20T06:09:21Z</time>
      </trkpt>
      <trkpt lat="45.83806" lon="4.26568">
        <ele>622.1</ele>
        <time>2018-08-20T06:09:26Z</time>
      </trkpt>
      <trkpt lat="45.83811" lon="4.26571">
        <ele>620.838</ele>
        <time>2018-08-20T06:09:32Z</time>
      </trkpt>
      <trkpt lat="45.83817" lon="4.26574">
        <ele>620.301</ele>
        <time>2018-08-20T06:09:37Z</time>
      </trkpt>
      <trkpt lat="45.83826" lon="4.26579">
        <ele>619.639</ele>
        <time>2018-08-20T06:09:43Z</time>
      </trkpt>
      <trkpt lat="45.83832" lon="4.26581">
        <ele>619.295</ele>
        <time>2018-08-20T06:09:48Z</time>
      </trkpt>
      <trkpt lat="45.83839" lon="4.26582">
        <ele>618.443</ele>
        <time>2018-08-20T06:09:54Z</time>
      </trkpt>
      <trkpt lat="45.83843" lon="4.2658">
        <ele>617.928</ele>
        <time>2018-08-20T06:09:59Z</time>
      </trkpt>
      <trkpt lat="45.8385" lon="4.26576">
        <ele>617.701</ele>
        <time>2018-08-20T06:10:05Z</time>
      </trkpt>
      <trkpt lat="45.83856" lon="4.26572">
        <ele>617.762</ele>
        <time>2018-08-20T06:10:10Z</time>
      </trkpt>
      <trkpt lat="45.83862" lon="4.26571">
        <ele>617.572</ele>
        <time>2018-08-20T06:10:15Z</time>
      </trkpt>
      <trkpt lat="45.83869" lon="4.26573">
        <ele>616.955</ele>
        <time>2018-08-20T06:10:21Z</time>
      </trkpt>
      <trkpt lat="45.83874" lon="4.26573">
        <ele>616.617</ele>
        <time>2018-08-20T06:10:27Z</time>
      </trkpt>
      <trkpt lat="45.8388" lon="4.26573">
        <ele>616.512</ele>
        <time>2018-08-20T06:10:33Z</time>
      </trkpt>
      <trkpt lat="45.83884" lon="4.26569">
        <ele>616.399</ele>
        <time>2018-08-20T06:10:38Z</time>
      </trkpt>
      <trkpt lat="45.83885" lon="4.26565">
        <ele>615.992</ele>
        <time>2018-08-20T06:10:43Z</time>
      </trkpt>
      <trkpt lat="45.83882" lon="4.26564">
        <ele>615.886</ele>
        <time>2018-08-20T06:10:48Z</time>
      </trkpt>
      <trkpt lat="45.83878" lon="4.26553">
        <ele>615.897</ele>
        <time>2018-08-20T06:10:54Z</time>
      </trkpt>
      <trkpt lat="45.83875" lon="4.26548">
        <ele>615.826</ele>
        <time>2018-08-20T06:10:59Z</time>
      </trkpt>
      <trkpt lat="45.83869" lon="4.26542">
        <ele>615.868</ele>
        <time>2018-08-20T06:11:05Z</time>
      </trkpt>
      <trkpt lat="45.83864" lon="4.26535">
        <ele>616.191</ele>
        <time>2018-08-20T06:11:11Z</time>
      </trkpt>
      <trkpt lat="45.83859" lon="4.2653">
        <ele>616.145</ele>
        <time>2018-08-20T06:11:17Z</time>
      </trkpt>
      <trkpt lat="45.83856" lon="4.26522">
        <ele>616.065</ele>
        <time>2018-08-20T06:11:22Z</time>
      </trkpt>
      <trkpt lat="45.83851" lon="4.26518">
        <ele>615.976</ele>
        <time>2018-08-20T06:11:27Z</time>
      </trkpt>
      <trkpt lat="45.83846" lon="4.2651">
        <ele>615.657</ele>
        <time>2018-08-20T06:11:33Z</time>
      </trkpt>
      <trkpt lat="45.83841" lon="4.26503">
        <ele>615.655</ele>
        <time>2018-08-20T06:11:38Z</time>
      </trkpt>
      <trkpt lat="45.83837" lon="4.26496">
        <ele>615.39</ele>
        <time>2018-08-20T06:11:44Z</time>
      </trkpt>
      <trkpt lat="45.83835" lon="4.26489">
        <ele>615.128</ele>
        <time>2018-08-20T06:11:50Z</time>
      </trkpt>
      <trkpt lat="45.83835" lon="4.2648">
        <ele>614.925</ele>
        <time>2018-08-20T06:11:55Z</time>
      </trkpt>
      <trkpt lat="45.83835" lon="4.26472">
        <ele>614.541</ele>
        <time>2018-08-20T06:12:01Z</time>
      </trkpt>
      <trkpt lat="45.83838" lon="4.26465">
        <ele>614.813</ele>
        <time>2018-08-20T06:12:07Z</time>
      </trkpt>
      <trkpt lat="45.83838" lon="4.26464">
        <ele>614.85</ele>
        <time>2018-08-20T06:12:12Z</time>
      </trkpt>
      <trkpt lat="45.83839" lon="4.26465">
        <ele>615.146</ele>
        <time>2018-08-20T06:12:18Z</time>
      </trkpt>
      <trkpt lat="45.83838" lon="4.26466">
        <ele>614.906</ele>
        <time>2018-08-20T06:12:23Z</time>
      </trkpt>
      <trkpt lat="45.83839" lon="4.26466">
        <ele>614.402</ele>
        <time>2018-08-20T06:12:29Z</time>
      </trkpt>
      <trkpt lat="45.8384" lon="4.26467">
        <ele>614.022</ele>
        <time>2018-08-20T06:12:34Z</time>
      </trkpt>
      <trkpt lat="45.83841" lon="4.26468">
        <ele>613.641</ele>
        <time>2018-08-20T06:12:39Z</time>
      </trkpt>
      <trkpt lat="45.83841" lon="4.26469">
        <ele>613.531</ele>
        <time>2018-08-20T06:12:45Z</time>
      </trkpt>
      <trkpt lat="45.83841" lon="4.26464">
        <ele>613.108</ele>
        <time>2018-08-20T06:12:51Z</time>
      </trkpt>
      <trkpt lat="45.83843" lon="4.26455">
        <ele>612.288</ele>
        <time>2018-08-20T06:12:57Z</time>
      </trkpt>
      <trkpt lat="45.83844" lon="4.26451">
        <ele>611.567</ele>
        <time>2018-08-20T06:13:02Z</time>
      </trkpt>
      <trkpt lat="45.83844" lon="4.26445">
        <ele>611.129</ele>
        <time>2018-08-20T06:13:07Z</time>
      </trkpt>
      <trkpt lat="45.83843" lon="4.26441">
        <ele>611.26</ele>
        <time>2018-08-20T06:13:13Z</time>
      </trkpt>
      <trkpt lat="45.83843" lon="4.26436">
        <ele>611.212</ele>
        <time>2018-08-20T06:13:19Z</time>
      </trkpt>
      <trkpt lat="45.83843" lon="4.26425">
        <ele>611.355</ele>
        <time>2018-08-20T06:13:25Z</time>
      </trkpt>
      <trkpt lat="45.83843" lon="4.26418">
        <ele>611.809</ele>
        <time>2018-08-20T06:13:30Z</time>
      </trkpt>
      <trkpt lat="45.83844" lon="4.2641">
        <ele>611.868</ele>
        <time>2018-08-20T06:13:36Z</time>
      </trkpt>
      <trkpt lat="45.83844" lon="4.26404">
        <ele>612.158</ele>
        <time>2018-08-20T06:13:42Z</time>
      </trkpt>
      <trkpt lat="45.83845" lon="4.26398">
        <ele>612.813</ele>
        <time>2018-08-20T06:13:48Z</time>
      </trkpt>
      <trkpt lat="45.83845" lon="4.26392">
        <ele>613.285</ele>
        <time>2018-08-20T06:13:54Z</time>
      </trkpt>
      <trkpt lat="45.83846" lon="4.26384">
        <ele>613.9</ele>
        <time>2018-08-20T06:13:59Z</time>
      </trkpt>
      <trkpt lat="45.83846" lon="4.26378">
        <ele>614.208</ele>
        <time>2018-08-20T06:14:05Z</time>
      </trkpt>
      <trkpt lat="45.83845" lon="4.26368">
        <ele>614.769</ele>
        <time>2018-08-20T06:14:11Z</time>
      </trkpt>
      <trkpt lat="45.83844" lon="4.26358">
        <ele>615.23</ele>
        <time>2018-08-20T06:14:17Z</time>
      </trkpt>
      <trkpt lat="45.83844" lon="4.26351">
        <ele>616.128</ele>
        <time>2018-08-20T06:14:23Z</time>
      </trkpt>
      <trkpt lat="45.83842" lon="4.26342">
        <ele>616.678</ele>
        <time>2018-08-20T06:14:29Z</time>
      </trkpt>
      <trkpt lat="45.83841" lon="4.26333">
        <ele>617.47</ele>
        <time>2018-08-20T06:14:35Z</time>
      </trkpt>
      <trkpt lat="45.83841" lon="4.26325">
        <ele>617.801</ele>
        <time>2018-08-20T06:14:40Z</time>
      </trkpt>
      <trkpt lat="45.83843" lon="4.26319">
        <ele>618.47</ele>
        <time>2018-08-20T06:14:45Z</time>
      </trkpt>
      <trkpt lat="45.83847" lon="4.26309">
        <ele>619.322</ele>
        <time>2018-08-20T06:14:51Z</time>
      </trkpt>
      <trkpt lat="45.83852" lon="4.26298">
        <ele>619.697</ele>
        <time>2018-08-20T06:14:57Z</time>
      </trkpt>
      <trkpt lat="45.83854" lon="4.26292">
        <ele>620.102</ele>
        <time>2018-08-20T06:15:03Z</time>
      </trkpt>
      <trkpt lat="45.83859" lon="4.26283">
        <ele>620.117</ele>
        <time>2018-08-20T06:15:09Z</time>
      </trkpt>
      <trkpt lat="45.83861" lon="4.26275">
        <ele>619.99</ele>
        <time>2018-08-20T06:15:15Z</time>
      </trkpt>
      <trkpt lat="45.83864" lon="4.26268">
        <ele>620.381</ele>
        <time>2018-08-20T06:15:21Z</time>
      </trkpt>
      <trkpt lat="45.83867" lon="4.26261">
        <ele>620.809</ele>
        <time>2018-08-20T06:15:27Z</time>
      </trkpt>
      <trkpt lat="45.83869" lon="4.26256">
        <ele>621.107</ele>
        <time>2018-08-20T06:15:32Z</time>
      </trkpt>
      <trkpt lat="45.83871" lon="4.26248">
        <ele>621.59</ele>
        <time>2018-08-20T06:15:37Z</time>
      </trkpt>
      <trkpt lat="45.83873" lon="4.2624">
        <ele>621.921</ele>
        <time>2018-08-20T06:15:43Z</time>
      </trkpt>
      <trkpt lat="45.83874" lon="4.26234">
        <ele>622.474</ele>
        <time>2018-08-20T06:15:49Z</time>
      </trkpt>
      <trkpt lat="45.83874" lon="4.26225">
        <ele>622.949</ele>
        <time>2018-08-20T06:15:54Z</time>
      </trkpt>
      <trkpt lat="45.83874" lon="4.26217">
        <ele>623.67</ele>
        <time>2018-08-20T06:16:00Z</time>
      </trkpt>
      <trkpt lat="45.83874" lon="4.2621">
        <ele>624.26</ele>
        <time>2018-08-20T06:16:06Z</time>
      </trkpt>
      <trkpt lat="45.83873" lon="4.262">
        <ele>624.312</ele>
        <time>2018-08-20T06:16:12Z</time>
      </trkpt>
      <trkpt lat="45.83871" lon="4.26192">
        <ele>624.766</ele>
        <time>2018-08-20T06:16:18Z</time>
      </trkpt>
      <trkpt lat="45.83869" lon="4.26185">
        <ele>624.896</ele>
        <time>2018-08-20T06:16:24Z</time>
      </trkpt>
      <trkpt lat="45.83866" lon="4.26179">
        <ele>624.705</ele>
        <time>2018-08-20T06:16:30Z</time>
      </trkpt>
      <trkpt lat="45.83864" lon="4.26173">
        <ele>624.435</ele>
        <time>2018-08-20T06:16:35Z</time>
      </trkpt>
      <trkpt lat="45.8386" lon="4.26166">
        <ele>624.524</ele>
        <time>2018-08-20T06:16:40Z</time>
      </trkpt>
      <trkpt lat="45.83857" lon="4.2616">
        <ele>624.682</ele>
        <time>2018-08-20T06:16:46Z</time>
      </trkpt>
      <trkpt lat="45.83854" lon="4.26155">
        <ele>625.01</ele>
        <time>2018-08-20T06:16:51Z</time>
      </trkpt>
      <trkpt lat="45.83852" lon="4.26149">
        <ele>625.521</ele>
        <time>2018-08-20T06:16:56Z</time>
      </trkpt>
      <trkpt lat="45.83849" lon="4.26141">
        <ele>625.943</ele>
        <time>2018-08-20T06:17:02Z</time>
      </trkpt>
      <trkpt lat="45.83844" lon="4.26133">
        <ele>626.719</ele>
        <time>2018-08-20T06:17:08Z</time>
      </trkpt>
      <trkpt lat="45.83841" lon="4.26127">
        <ele>627.124</ele>
        <time>2018-08-20T06:17:13Z</time>
      </trkpt>
      <trkpt lat="45.83836" lon="4.26119">
        <ele>627.577</ele>
        <time>2018-08-20T06:17:18Z</time>
      </trkpt>
      <trkpt lat="45.83833" lon="4.2611">
        <ele>628.165</ele>
        <time>2018-08-20T06:17:24Z</time>
      </trkpt>
      <trkpt lat="45.83831" lon="4.26102">
        <ele>628.76</ele>
        <time>2018-08-20T06:17:29Z</time>
      </trkpt>
      <trkpt lat="45.83829" lon="4.26095">
        <ele>629.431</ele>
        <time>2018-08-20T06:17:35Z</time>
      </trkpt>
      <trkpt lat="45.83825" lon="4.26087">
        <ele>630.069</ele>
        <time>2018-08-20T06:17:41Z</time>
      </trkpt>
      <trkpt lat="45.83822" lon="4.26078">
        <ele>630.703</ele>
        <time>2018-08-20T06:17:46Z</time>
      </trkpt>
      <trkpt lat="45.83819" lon="4.26072">
        <ele>631.091</ele>
        <time>2018-08-20T06:17:52Z</time>
      </trkpt>
      <trkpt lat="45.83818" lon="4.26065">
        <ele>631.811</ele>
        <time>2018-08-20T06:17:58Z</time>
      </trkpt>
      <trkpt lat="45.83815" lon="4.26057">
        <ele>632.152</ele>
        <time>2018-08-20T06:18:04Z</time>
      </trkpt>
      <trkpt lat="45.83813" lon="4.26047">
        <ele>632.559</ele>
        <time>2018-08-20T06:18:10Z</time>
      </trkpt>
      <trkpt lat="45.83811" lon="4.26041">
        <ele>633.444</ele>
        <time>2018-08-20T06:18:16Z</time>
      </trkpt>
      <trkpt lat="45.8381" lon="4.26033">
        <ele>634.291</ele>
        <time>2018-08-20T06:18:22Z</time>
      </trkpt>
      <trkpt lat="45.83809" lon="4.26027">
        <ele>634.729</ele>
        <time>2018-08-20T06:18:27Z</time>
      </trkpt>
      <trkpt lat="45.83808" lon="4.26021">
        <ele>635.348</ele>
        <time>2018-08-20T06:18:32Z</time>
      </trkpt>
      <trkpt lat="45.83805" lon="4.26012">
        <ele>636.071</ele>
        <time>2018-08-20T06:18:38Z</time>
      </trkpt>
      <trkpt lat="45.83804" lon="4.26004">
        <ele>636.973</ele>
        <time>2018-08-20T06:18:44Z</time>
      </trkpt>
      <trkpt lat="45.83804" lon="4.25996">
        <ele>637.869</ele>
        <time>2018-08-20T06:18:50Z</time>
      </trkpt>
      <trkpt lat="45.83807" lon="4.2599">
        <ele>638.419</ele>
        <time>2018-08-20T06:18:55Z</time>
      </trkpt>
      <trkpt lat="45.83809" lon="4.25983">
        <ele>639.143</ele>
        <time>2018-08-20T06:19:01Z</time>
      </trkpt>
      <trkpt lat="45.8381" lon="4.25978">
        <ele>639.657</ele>
        <time>2018-08-20T06:19:06Z</time>
      </trkpt>
      <trkpt lat="45.83811" lon="4.25972">
        <ele>640.128</ele>
        <time>2018-08-20T06:19:12Z</time>
      </trkpt>
      <trkpt lat="45.83813" lon="4.2596">
        <ele>640.492</ele>
        <time>2018-08-20T06:19:18Z</time>
      </trkpt>
      <trkpt lat="45.83817" lon="4.25952">
        <ele>640.64</ele>
        <time>2018-08-20T06:19:24Z</time>
      </trkpt>
      <trkpt lat="45.8382" lon="4.25946">
        <ele>640.788</ele>
        <time>2018-08-20T06:19:29Z</time>
      </trkpt>
      <trkpt lat="45.83824" lon="4.25948">
        <ele>640.868</ele>
        <time>2018-08-20T06:19:35Z</time>
      </trkpt>
      <trkpt lat="45.83829" lon="4.2595">
        <ele>640.9</ele>
        <time>2018-08-20T06:19:40Z</time>
      </trkpt>
      <trkpt lat="45.83836" lon="4.25953">
        <ele>640.923</ele>
        <time>2018-08-20T06:19:46Z</time>
      </trkpt>
      <trkpt lat="45.8384" lon="4.25955">
        <ele>641.127</ele>
        <time>2018-08-20T06:19:52Z</time>
      </trkpt>
      <trkpt lat="45.83846" lon="4.25957">
        <ele>641.329</ele>
        <time>2018-08-20T06:19:57Z</time>
      </trkpt>
      <trkpt lat="45.83855" lon="4.2596">
        <ele>641.52</ele>
        <time>2018-08-20T06:20:03Z</time>
      </trkpt>
      <trkpt lat="45.8386" lon="4.25961">
        <ele>641.738</ele>
        <time>2018-08-20T06:20:09Z</time>
      </trkpt>
      <trkpt lat="45.83864" lon="4.25962">
        <ele>642.038</ele>
        <time>2018-08-20T06:20:14Z</time>
      </trkpt>
      <trkpt lat="45.83869" lon="4.25963">
        <ele>642.429</ele>
        <time>2018-08-20T06:20:19Z</time>
      </trkpt>
      <trkpt lat="45.83872" lon="4.25965">
        <ele>643.066</ele>
        <time>2018-08-20T06:20:24Z</time>
      </trkpt>
      <trkpt lat="45.83873" lon="4.25967">
        <ele>643.574</ele>
        <time>2018-08-20T06:20:30Z</time>
      </trkpt>
      <trkpt lat="45.83875" lon="4.25969">
        <ele>643.763</ele>
        <time>2018-08-20T06:20:36Z</time>
      </trkpt>
      <trkpt lat="45.83874" lon="4.25967">
        <ele>643.664</ele>
        <time>2018-08-20T06:20:42Z</time>
      </trkpt>
      <trkpt lat="45.83877" lon="4.25967">
        <ele>643.675</ele>
        <time>2018-08-20T06:20:47Z</time>
      </trkpt>
      <trkpt lat="45.83877" lon="4.25967">
        <ele>643.934</ele>
        <time>2018-08-20T06:20:53Z</time>
      </trkpt>
      <trkpt lat="45.83879" lon="4.25966">
        <ele>644.065</ele>
        <time>2018-08-20T06:20:58Z</time>
      </trkpt>
      <trkpt lat="45.83886" lon="4.25967">
        <ele>644.42</ele>
        <time>2018-08-20T06:21:04Z</time>
      </trkpt>
      <trkpt lat="45.83892" lon="4.25968">
        <ele>644.609</ele>
        <time>2018-08-20T06:21:09Z</time>
      </trkpt>
      <trkpt lat="45.83897" lon="4.25969">
        <ele>644.808</ele>
        <time>2018-08-20T06:21:14Z</time>
      </trkpt>
      <trkpt lat="45.83902" lon="4.25969">
        <ele>645.193</ele>
        <time>2018-08-20T06:21:19Z</time>
      </trkpt>
      <trkpt lat="45.83907" lon="4.2597">
        <ele>645.403</ele>
        <time>2018-08-20T06:21:25Z</time>
      </trkpt>
      <trkpt lat="45.83912" lon="4.25971">
        <ele>645.721</ele>
        <time>2018-08-20T06:21:31Z</time>
      </trkpt>
      <trkpt lat="45.83917" lon="4.25973">
        <ele>646.131</ele>
        <time>2018-08-20T06:21:36Z</time>
      </trkpt>
      <trkpt lat="45.83922" lon="4.25975">
        <ele>646.311</ele>
        <time>2018-08-20T06:21:42Z</time>
      </trkpt>
      <trkpt lat="45.83929" lon="4.25977">
        <ele>646.509</ele>
        <time>2018-08-20T06:21:48Z</time>
      </trkpt>
      <trkpt lat="45.83933" lon="4.25979">
        <ele>647.204</ele>
        <time>2018-08-20T06:21:54Z</time>
      </trkpt>
      <trkpt lat="45.83939" lon="4.25978">
        <ele>648.141</ele>
        <time>2018-08-20T06:22:00Z</time>
      </trkpt>
      <trkpt lat="45.83945" lon="4.25981">
        <ele>648.683</ele>
        <time>2018-08-20T06:22:05Z</time>
      </trkpt>
      <trkpt lat="45.83949" lon="4.25982">
        <ele>648.972</ele>
        <time>2018-08-20T06:22:11Z</time>
      </trkpt>
      <trkpt lat="45.83956" lon="4.25982">
        <ele>649.672</ele>
        <time>2018-08-20T06:22:17Z</time>
      </trkpt>
      <trkpt lat="45.8396" lon="4.25983">
        <ele>650.117</ele>
        <time>2018-08-20T06:22:22Z</time>
      </trkpt>
      <trkpt lat="45.83966" lon="4.25985">
        <ele>650.94</ele>
        <time>2018-08-20T06:22:28Z</time>
      </trkpt>
      <trkpt lat="45.83973" lon="4.25989">
        <ele>651.524</ele>
        <time>2018-08-20T06:22:34Z</time>
      </trkpt>
      <trkpt lat="45.83979" lon="4.25991">
        <ele>651.999</ele>
        <time>2018-08-20T06:22:40Z</time>
      </trkpt>
      <trkpt lat="45.83983" lon="4.25992">
        <ele>652.404</ele>
        <time>2018-08-20T06:22:46Z</time>
      </trkpt>
      <trkpt lat="45.8399" lon="4.25994">
        <ele>652.91</ele>
        <time>2018-08-20T06:22:52Z</time>
      </trkpt>
      <trkpt lat="45.83995" lon="4.25995">
        <ele>653.312</ele>
        <time>2018-08-20T06:22:58Z</time>
      </trkpt>
      <trkpt lat="45.83997" lon="4.25996">
        <ele>653.492</ele>
        <time>2018-08-20T06:23:03Z</time>
      </trkpt>
      <trkpt lat="45.83996" lon="4.25997">
        <ele>653.62</ele>
        <time>2018-08-20T06:23:08Z</time>
      </trkpt>
      <trkpt lat="45.84" lon="4.25997">
        <ele>654.016</ele>
        <time>2018-08-20T06:23:14Z</time>
      </trkpt>
      <trkpt lat="45.84008" lon="4.25997">
        <ele>654.755</ele>
        <time>2018-08-20T06:23:20Z</time>
      </trkpt>
      <trkpt lat="45.84014" lon="4.25996">
        <ele>655.645</ele>
        <time>2018-08-20T06:23:26Z</time>
      </trkpt>
      <trkpt lat="45.84019" lon="4.25996">
        <ele>656.136</ele>
        <time>2018-08-20T06:23:32Z</time>
      </trkpt>
      <trkpt lat="45.84024" lon="4.25998">
        <ele>656.755</ele>
        <time>2018-08-20T06:23:38Z</time>
      </trkpt>
      <trkpt lat="45.84028" lon="4.26">
        <ele>657.081</ele>
        <time>2018-08-20T06:23:43Z</time>
      </trkpt>
      <trkpt lat="45.84032" lon="4.26">
        <ele>657.583</ele>
        <time>2018-08-20T06:23:49Z</time>
      </trkpt>
      <trkpt lat="45.84036" lon="4.26001">
        <ele>658.098</ele>
        <time>2018-08-20T06:23:55Z</time>
      </trkpt>
      <trkpt lat="45.84041" lon="4.26001">
        <ele>658.824</ele>
        <time>2018-08-20T06:24:00Z</time>
      </trkpt>
      <trkpt lat="45.84045" lon="4.26001">
        <ele>659.69</ele>
        <time>2018-08-20T06:24:06Z</time>
      </trkpt>
      <trkpt lat="45.84049" lon="4.26">
        <ele>660.807</ele>
        <time>2018-08-20T06:24:12Z</time>
      </trkpt>
      <trkpt lat="45.84055" lon="4.25999">
        <ele>661.631</ele>
        <time>2018-08-20T06:24:17Z</time>
      </trkpt>
      <trkpt lat="45.8406" lon="4.25999">
        <ele>662.465</ele>
        <time>2018-08-20T06:24:23Z</time>
      </trkpt>
      <trkpt lat="45.8406" lon="4.25999">
        <ele>662.632</ele>
        <time>2018-08-20T06:24:28Z</time>
      </trkpt>
      <trkpt lat="45.84063" lon="4.26">
        <ele>662.995</ele>
        <time>2018-08-20T06:24:34Z</time>
      </trkpt>
      <trkpt lat="45.84065" lon="4.26001">
        <ele>663.341</ele>
        <time>2018-08-20T06:24:40Z</time>
      </trkpt>
      <trkpt lat="45.84067" lon="4.26001">
        <ele>663.478</ele>
        <time>2018-08-20T06:24:45Z</time>
      </trkpt>
      <trkpt lat="45.84069" lon="4.26001">
        <ele>663.829</ele>
        <time>2018-08-20T06:24:51Z</time>
      </trkpt>
      <trkpt lat="45.84073" lon="4.26001">
        <ele>664.584</ele>
        <time>2018-08-20T06:24:56Z</time>
      </trkpt>
      <trkpt lat="45.84078" lon="4.26001">
        <ele>665.487</ele>
        <time>2018-08-20T06:25:02Z</time>
      </trkpt>
      <trkpt lat="45.8408" lon="4.26">
        <ele>665.973</ele>
        <time>2018-08-20T06:25:07Z</time>
      </trkpt>
      <trkpt lat="45.84083" lon="4.25998">
        <ele>666.799</ele>
        <time>2018-08-20T06:25:13Z</time>
      </trkpt>
      <trkpt lat="45.84087" lon="4.25993">
        <ele>667.786</ele>
        <time>2018-08-20T06:25:19Z</time>
      </trkpt>
      <trkpt lat="45.8409" lon="4.25988">
        <ele>668.677</ele>
        <time>2018-08-20T06:25:25Z</time>
      </trkpt>
      <trkpt lat="45.84095" lon="4.25981">
        <ele>669.427</ele>
        <time>2018-08-20T06:25:31Z</time>
      </trkpt>
      <trkpt lat="45.84098" lon="4.25976">
        <ele>669.665</ele>
        <time>2018-08-20T06:25:36Z</time>
      </trkpt>
      <trkpt lat="45.841" lon="4.2597">
        <ele>670.155</ele>
        <time>2018-08-20T06:25:42Z</time>
      </trkpt>
      <trkpt lat="45.84101" lon="4.25967">
        <ele>670.73</ele>
        <time>2018-08-20T06:25:47Z</time>
      </trkpt>
      <trkpt lat="45.84105" lon="4.25962">
        <ele>671.552</ele>
        <time>2018-08-20T06:25:53Z</time>
      </trkpt>
      <trkpt lat="45.84112" lon="4.25956">
        <ele>672.523</ele>
        <time>2018-08-20T06:25:59Z</time>
      </trkpt>
      <trkpt lat="45.84116" lon="4.25954">
        <ele>673.399</ele>
        <time>2018-08-20T06:26:04Z</time>
      </trkpt>
      <trkpt lat="45.84119" lon="4.25954">
        <ele>674.291</ele>
        <time>2018-08-20T06:26:10Z</time>
      </trkpt>
      <trkpt lat="45.84121" lon="4.25952">
        <ele>674.986</ele>
        <time>2018-08-20T06:26:15Z</time>
      </trkpt>
      <trkpt lat="45.84124" lon="4.2595">
        <ele>675.892</ele>
        <time>2018-08-20T06:26:20Z</time>
      </trkpt>
      <trkpt lat="45.84129" lon="4.25947">
        <ele>677.239</ele>
        <time>2018-08-20T06:26:26Z</time>
      </trkpt>
      <trkpt lat="45.84133" lon="4.2594">
        <ele>678.139</ele>
        <time>2018-08-20T06:26:32Z</time>
      </trkpt>
      <trkpt lat="45.84135" lon="4.25935">
        <ele>678.852</ele>
        <time>2018-08-20T06:26:38Z</time>
      </trkpt>
      <trkpt lat="45.84137" lon="4.25931">
        <ele>679.184</ele>
        <time>2018-08-20T06:26:44Z</time>
      </trkpt>
      <trkpt lat="45.8414" lon="4.25928">
        <ele>679.959</ele>
        <time>2018-08-20T06:26:50Z</time>
      </trkpt>
      <trkpt lat="45.84143" lon="4.25923">
        <ele>680.826</ele>
        <time>2018-08-20T06:26:56Z</time>
      </trkpt>
      <trkpt lat="45.84145" lon="4.25919">
        <ele>681.59</ele>
        <time>2018-08-20T06:27:02Z</time>
      </trkpt>
      <trkpt lat="45.84147" lon="4.25917">
        <ele>681.928</ele>
        <time>2018-08-20T06:27:08Z</time>
      </trkpt>
      <trkpt lat="45.8415" lon="4.25911">
        <ele>682.36</ele>
        <time>2018-08-20T06:27:14Z</time>
      </trkpt>
      <trkpt lat="45.84152" lon="4.25911">
        <ele>682.653</ele>
        <time>2018-08-20T06:27:19Z</time>
      </trkpt>
      <trkpt lat="45.84154" lon="4.2591">
        <ele>682.618</ele>
        <time>2018-08-20T06:27:24Z</time>
      </trkpt>
      <trkpt lat="45.84155" lon="4.25909">
        <ele>682.711</ele>
        <time>2018-08-20T06:27:31Z</time>
      </trkpt>
      <trkpt lat="45.84156" lon="4.25909">
        <ele>682.794</ele>
        <time>2018-08-20T06:27:37Z</time>
      </trkpt>
      <trkpt lat="45.84155" lon="4.25911">
        <ele>683.013</ele>
        <time>2018-08-20T06:27:42Z</time>
      </trkpt>
      <trkpt lat="45.84155" lon="4.25911">
        <ele>683.127</ele>
        <time>2018-08-20T06:27:47Z</time>
      </trkpt>
      <trkpt lat="45.84155" lon="4.25911">
        <ele>683.412</ele>
        <time>2018-08-20T06:27:52Z</time>
      </trkpt>
      <trkpt lat="45.84155" lon="4.25909">
        <ele>683.882</ele>
        <time>2018-08-20T06:27:58Z</time>
      </trkpt>
      <trkpt lat="45.84156" lon="4.25909">
        <ele>683.989</ele>
        <time>2018-08-20T06:28:03Z</time>
      </trkpt>
      <trkpt lat="45.84156" lon="4.2591">
        <ele>684.228</ele>
        <time>2018-08-20T06:28:09Z</time>
      </trkpt>
      <trkpt lat="45.84155" lon="4.25911">
        <ele>684.514</ele>
        <time>2018-08-20T06:28:15Z</time>
      </trkpt>
      <trkpt lat="45.84154" lon="4.25912">
        <ele>684.691</ele>
        <time>2018-08-20T06:28:21Z</time>
      </trkpt>
      <trkpt lat="45.84154" lon="4.25912">
        <ele>684.574</ele>
        <time>2018-08-20T06:28:26Z</time>
      </trkpt>
      <trkpt lat="45.84155" lon="4.25911">
        <ele>684.568</ele>
        <time>2018-08-20T06:28:31Z</time>
      </trkpt>
      <trkpt lat="45.84156" lon="4.25912">
        <ele>684.557</ele>
        <time>2018-08-20T06:28:37Z</time>
      </trkpt>
      <trkpt lat="45.84156" lon="4.25912">
        <ele>684.359</ele>
        <time>2018-08-20T06:28:43Z</time>
      </trkpt>
      <trkpt lat="45.84156" lon="4.25912">
        <ele>684.276</ele>
        <time>2018-08-20T06:28:49Z</time>
      </trkpt>
      <trkpt lat="45.84156" lon="4.25911">
        <ele>684.315</ele>
        <time>2018-08-20T06:28:54Z</time>
      </trkpt>
      <trkpt lat="45.84156" lon="4.2591">
        <ele>684.333</ele>
        <time>2018-08-20T06:28:59Z</time>
      </trkpt>
      <trkpt lat="45.84156" lon="4.2591">
        <ele>684.559</ele>
        <time>2018-08-20T06:29:05Z</time>
      </trkpt>
      <trkpt lat="45.84157" lon="4.25911">
        <ele>684.558</ele>
        <time>2018-08-20T06:29:10Z</time>
      </trkpt>
      <trkpt lat="45.84156" lon="4.25912">
        <ele>684.602</ele>
        <time>2018-08-20T06:29:15Z</time>
      </trkpt>
      <trkpt lat="45.84155" lon="4.25911">
        <ele>685.005</ele>
        <time>2018-08-20T06:29:21Z</time>
      </trkpt>
      <trkpt lat="45.84152" lon="4.25908">
        <ele>685.282</ele>
        <time>2018-08-20T06:29:27Z</time>
      </trkpt>
      <trkpt lat="45.84149" lon="4.25906">
        <ele>685.462</ele>
        <time>2018-08-20T06:29:32Z</time>
      </trkpt>
      <trkpt lat="45.84146" lon="4.25903">
        <ele>685.687</ele>
        <time>2018-08-20T06:29:38Z</time>
      </trkpt>
      <trkpt lat="45.84143" lon="4.259">
        <ele>685.839</ele>
        <time>2018-08-20T06:29:44Z</time>
      </trkpt>
      <trkpt lat="45.84142" lon="4.25899">
        <ele>685.703</ele>
        <time>2018-08-20T06:29:49Z</time>
      </trkpt>
      <trkpt lat="45.84139" lon="4.25896">
        <ele>685.057</ele>
        <time>2018-08-20T06:29:54Z</time>
      </trkpt>
      <trkpt lat="45.84135" lon="4.25893">
        <ele>685.068</ele>
        <time>2018-08-20T06:29:59Z</time>
      </trkpt>
      <trkpt lat="45.8413" lon="4.25889">
        <ele>685.312</ele>
        <time>2018-08-20T06:30:05Z</time>
      </trkpt>
      <trkpt lat="45.84124" lon="4.25885">
        <ele>685.262</ele>
        <time>2018-08-20T06:30:11Z</time>
      </trkpt>
      <trkpt lat="45.84119" lon="4.25877">
        <ele>685.042</ele>
        <time>2018-08-20T06:30:17Z</time>
      </trkpt>
      <trkpt lat="45.84115" lon="4.25872">
        <ele>684.74</ele>
        <time>2018-08-20T06:30:23Z</time>
      </trkpt>
      <trkpt lat="45.84111" lon="4.25865">
        <ele>684.515</ele>
        <time>2018-08-20T06:30:29Z</time>
      </trkpt>
      <trkpt lat="45.84108" lon="4.25859">
        <ele>684.246</ele>
        <time>2018-08-20T06:30:34Z</time>
      </trkpt>
      <trkpt lat="45.84103" lon="4.25851">
        <ele>683.829</ele>
        <time>2018-08-20T06:30:39Z</time>
      </trkpt>
      <trkpt lat="45.84102" lon="4.25845">
        <ele>683.499</ele>
        <time>2018-08-20T06:30:45Z</time>
      </trkpt>
      <trkpt lat="45.84101" lon="4.25839">
        <ele>683.042</ele>
        <time>2018-08-20T06:30:50Z</time>
      </trkpt>
      <trkpt lat="45.841" lon="4.25833">
        <ele>682.668</ele>
        <time>2018-08-20T06:30:55Z</time>
      </trkpt>
      <trkpt lat="45.84098" lon="4.25827">
        <ele>682.13</ele>
        <time>2018-08-20T06:31:00Z</time>
      </trkpt>
      <trkpt lat="45.84095" lon="4.25819">
        <ele>681.572</ele>
        <time>2018-08-20T06:31:06Z</time>
      </trkpt>
      <trkpt lat="45.84094" lon="4.25811">
        <ele>680.987</ele>
        <time>2018-08-20T06:31:11Z</time>
      </trkpt>
      <trkpt lat="45.84092" lon="4.25802">
        <ele>680.563</ele>
        <time>2018-08-20T06:31:17Z</time>
      </trkpt>
      <trkpt lat="45.84091" lon="4.25793">
        <ele>680.248</ele>
        <time>2018-08-20T06:31:23Z</time>
      </trkpt>
      <trkpt lat="45.84091" lon="4.25785">
        <ele>680.012</ele>
        <time>2018-08-20T06:31:29Z</time>
      </trkpt>
      <trkpt lat="45.84091" lon="4.25775">
        <ele>679.349</ele>
        <time>2018-08-20T06:31:35Z</time>
      </trkpt>
      <trkpt lat="45.84092" lon="4.25766">
        <ele>678.8</ele>
        <time>2018-08-20T06:31:41Z</time>
      </trkpt>
      <trkpt lat="45.84092" lon="4.25761">
        <ele>678.488</ele>
        <time>2018-08-20T06:31:46Z</time>
      </trkpt>
      <trkpt lat="45.84092" lon="4.25754">
        <ele>677.938</ele>
        <time>2018-08-20T06:31:51Z</time>
      </trkpt>
      <trkpt lat="45.84093" lon="4.25742">
        <ele>677.276</ele>
        <time>2018-08-20T06:31:57Z</time>
      </trkpt>
      <trkpt lat="45.84094" lon="4.25733">
        <ele>676.381</ele>
        <time>2018-08-20T06:32:03Z</time>
      </trkpt>
      <trkpt lat="45.84094" lon="4.25724">
        <ele>675.595</ele>
        <time>2018-08-20T06:32:09Z</time>
      </trkpt>
      <trkpt lat="45.84096" lon="4.25716">
        <ele>675.143</ele>
        <time>2018-08-20T06:32:14Z</time>
      </trkpt>
      <trkpt lat="45.84097" lon="4.25707">
        <ele>674.813</ele>
        <time>2018-08-20T06:32:20Z</time>
      </trkpt>
      <trkpt lat="45.84099" lon="4.257">
        <ele>674.243</ele>
        <time>2018-08-20T06:32:26Z</time>
      </trkpt>
      <trkpt lat="45.84102" lon="4.25692">
        <ele>673.231</ele>
        <time>2018-08-20T06:32:32Z</time>
      </trkpt>
      <trkpt lat="45.84105" lon="4.25685">
        <ele>672.56</ele>
        <time>2018-08-20T06:32:38Z</time>
      </trkpt>
      <trkpt lat="45.84106" lon="4.25678">
        <ele>671.882</ele>
        <time>2018-08-20T06:32:43Z</time>
      </trkpt>
      <trkpt lat="45.84109" lon="4.25668">
        <ele>671.102</ele>
        <time>2018-08-20T06:32:49Z</time>
      </trkpt>
      <trkpt lat="45.84112" lon="4.2566">
        <ele>670.227</ele>
        <time>2018-08-20T06:32:55Z</time>
      </trkpt>
      <trkpt lat="45.84113" lon="4.25653">
        <ele>669.271</ele>
        <time>2018-08-20T06:33:00Z</time>
      </trkpt>
      <trkpt lat="45.84115" lon="4.25643">
        <ele>668.422</ele>
        <time>2018-08-20T06:33:06Z</time>
      </trkpt>
      <trkpt lat="45.84116" lon="4.25637">
        <ele>667.942</ele>
        <time>2018-08-20T06:33:11Z</time>
      </trkpt>
      <trkpt lat="45.84116" lon="4.2563">
        <ele>667.437</ele>
        <time>2018-08-20T06:33:16Z</time>
      </trkpt>
      <trkpt lat="45.84118" lon="4.25624">
        <ele>666.703</ele>
        <time>2018-08-20T06:33:21Z</time>
      </trkpt>
      <trkpt lat="45.84119" lon="4.25616">
        <ele>665.568</ele>
        <time>2018-08-20T06:33:27Z</time>
      </trkpt>
      <trkpt lat="45.8412" lon="4.25606">
        <ele>664.766</ele>
        <time>2018-08-20T06:33:33Z</time>
      </trkpt>
      <trkpt lat="45.84119" lon="4.25599">
        <ele>664.314</ele>
        <time>2018-08-20T06:33:38Z</time>
      </trkpt>
      <trkpt lat="45.84116" lon="4.25591">
        <ele>663.648</ele>
        <time>2018-08-20T06:33:44Z</time>
      </trkpt>
      <trkpt lat="45.84113" lon="4.25584">
        <ele>663.153</ele>
        <time>2018-08-20T06:33:49Z</time>
      </trkpt>
      <trkpt lat="45.84111" lon="4.25576">
        <ele>662.687</ele>
        <time>2018-08-20T06:33:54Z</time>
      </trkpt>
      <trkpt lat="45.84107" lon="4.25566">
        <ele>662.029</ele>
        <time>2018-08-20T06:34:00Z</time>
      </trkpt>
      <trkpt lat="45.84105" lon="4.2556">
        <ele>661.657</ele>
        <time>2018-08-20T06:34:05Z</time>
      </trkpt>
      <trkpt lat="45.84101" lon="4.25553">
        <ele>661.37</ele>
        <time>2018-08-20T06:34:11Z</time>
      </trkpt>
      <trkpt lat="45.84097" lon="4.25546">
        <ele>661.192</ele>
        <time>2018-08-20T06:34:16Z</time>
      </trkpt>
      <trkpt lat="45.84093" lon="4.25542">
        <ele>660.957</ele>
        <time>2018-08-20T06:34:21Z</time>
      </trkpt>
      <trkpt lat="45.84089" lon="4.25535">
        <ele>660.447</ele>
        <time>2018-08-20T06:34:28Z</time>
      </trkpt>
      <trkpt lat="45.84085" lon="4.25528">
        <ele>660.209</ele>
        <time>2018-08-20T06:34:33Z</time>
      </trkpt>
      <trkpt lat="45.84081" lon="4.25521">
        <ele>659.818</ele>
        <time>2018-08-20T06:34:39Z</time>
      </trkpt>
      <trkpt lat="45.84079" lon="4.25517">
        <ele>659.549</ele>
        <time>2018-08-20T06:34:45Z</time>
      </trkpt>
      <trkpt lat="45.84075" lon="4.25509">
        <ele>658.877</ele>
        <time>2018-08-20T06:34:50Z</time>
      </trkpt>
      <trkpt lat="45.84072" lon="4.25503">
        <ele>658.352</ele>
        <time>2018-08-20T06:34:55Z</time>
      </trkpt>
      <trkpt lat="45.84069" lon="4.25495">
        <ele>658.059</ele>
        <time>2018-08-20T06:35:01Z</time>
      </trkpt>
      <trkpt lat="45.84065" lon="4.25489">
        <ele>657.452</ele>
        <time>2018-08-20T06:35:07Z</time>
      </trkpt>
      <trkpt lat="45.84062" lon="4.25484">
        <ele>656.928</ele>
        <time>2018-08-20T06:35:12Z</time>
      </trkpt>
      <trkpt lat="45.84057" lon="4.25474">
        <ele>656.211</ele>
        <time>2018-08-20T06:35:18Z</time>
      </trkpt>
      <trkpt lat="45.84052" lon="4.25469">
        <ele>655.738</ele>
        <time>2018-08-20T06:35:24Z</time>
      </trkpt>
      <trkpt lat="45.84048" lon="4.25463">
        <ele>655.255</ele>
        <time>2018-08-20T06:35:30Z</time>
      </trkpt>
      <trkpt lat="45.84043" lon="4.25457">
        <ele>655.1</ele>
        <time>2018-08-20T06:35:36Z</time>
      </trkpt>
      <trkpt lat="45.84038" lon="4.25451">
        <ele>654.619</ele>
        <time>2018-08-20T06:35:42Z</time>
      </trkpt>
      <trkpt lat="45.84034" lon="4.25442">
        <ele>654.313</ele>
        <time>2018-08-20T06:35:47Z</time>
      </trkpt>
      <trkpt lat="45.84029" lon="4.25434">
        <ele>654.1</ele>
        <time>2018-08-20T06:35:53Z</time>
      </trkpt>
      <trkpt lat="45.84026" lon="4.25428">
        <ele>653.769</ele>
        <time>2018-08-20T06:35:58Z</time>
      </trkpt>
      <trkpt lat="45.84022" lon="4.25423">
        <ele>653.243</ele>
        <time>2018-08-20T06:36:04Z</time>
      </trkpt>
      <trkpt lat="45.84019" lon="4.25415">
        <ele>652.701</ele>
        <time>2018-08-20T06:36:09Z</time>
      </trkpt>
      <trkpt lat="45.84014" lon="4.25407">
        <ele>651.846</ele>
        <time>2018-08-20T06:36:15Z</time>
      </trkpt>
      <trkpt lat="45.84012" lon="4.25403">
        <ele>651.366</ele>
        <time>2018-08-20T06:36:20Z</time>
      </trkpt>
      <trkpt lat="45.8401" lon="4.25399">
        <ele>650.632</ele>
        <time>2018-08-20T06:36:26Z</time>
      </trkpt>
      <trkpt lat="45.84005" lon="4.25393">
        <ele>650.091</ele>
        <time>2018-08-20T06:36:31Z</time>
      </trkpt>
      <trkpt lat="45.84001" lon="4.25386">
        <ele>649.517</ele>
        <time>2018-08-20T06:36:36Z</time>
      </trkpt>
      <trkpt lat="45.83996" lon="4.25379">
        <ele>648.712</ele>
        <time>2018-08-20T06:36:42Z</time>
      </trkpt>
      <trkpt lat="45.83993" lon="4.2537">
        <ele>648.11</ele>
        <time>2018-08-20T06:36:47Z</time>
      </trkpt>
      <trkpt lat="45.83988" lon="4.25364">
        <ele>647.516</ele>
        <time>2018-08-20T06:36:53Z</time>
      </trkpt>
      <trkpt lat="45.83985" lon="4.25358">
        <ele>646.898</ele>
        <time>2018-08-20T06:36:59Z</time>
      </trkpt>
      <trkpt lat="45.83981" lon="4.25354">
        <ele>646.371</ele>
        <time>2018-08-20T06:37:04Z</time>
      </trkpt>
      <trkpt lat="45.83977" lon="4.25345">
        <ele>645.655</ele>
        <time>2018-08-20T06:37:10Z</time>
      </trkpt>
      <trkpt lat="45.83972" lon="4.25338">
        <ele>644.938</ele>
        <time>2018-08-20T06:37:16Z</time>
      </trkpt>
      <trkpt lat="45.83969" lon="4.25333">
        <ele>644.584</ele>
        <time>2018-08-20T06:37:21Z</time>
      </trkpt>
      <trkpt lat="45.83966" lon="4.25324">
        <ele>644.148</ele>
        <time>2018-08-20T06:37:27Z</time>
      </trkpt>
      <trkpt lat="45.83963" lon="4.25314">
        <ele>643.297</ele>
        <time>2018-08-20T06:37:33Z</time>
      </trkpt>
      <trkpt lat="45.8396" lon="4.25307">
        <ele>642.814</ele>
        <time>2018-08-20T06:37:38Z</time>
      </trkpt>
      <trkpt lat="45.83956" lon="4.25298">
        <ele>642.221</ele>
        <time>2018-08-20T06:37:44Z</time>
      </trkpt>
      <trkpt lat="45.83955" lon="4.25291">
        <ele>641.516</ele>
        <time>2018-08-20T06:37:49Z</time>
      </trkpt>
      <trkpt lat="45.83952" lon="4.25282">
        <ele>640.867</ele>
        <time>2018-08-20T06:37:55Z</time>
      </trkpt>
      <trkpt lat="45.83948" lon="4.25271">
        <ele>640.5</ele>
        <time>2018-08-20T06:38:01Z</time>
      </trkpt>
      <trkpt lat="45.83946" lon="4.25263">
        <ele>640.074</ele>
        <time>2018-08-20T06:38:07Z</time>
      </trkpt>
      <trkpt lat="45.83944" lon="4.25255">
        <ele>639.546</ele>
        <time>2018-08-20T06:38:13Z</time>
      </trkpt>
      <trkpt lat="45.83943" lon="4.25246">
        <ele>639.02</ele>
        <time>2018-08-20T06:38:18Z</time>
      </trkpt>
      <trkpt lat="45.83942" lon="4.25238">
        <ele>638.487</ele>
        <time>2018-08-20T06:38:23Z</time>
      </trkpt>
      <trkpt lat="45.83941" lon="4.2523">
        <ele>638.056</ele>
        <time>2018-08-20T06:38:28Z</time>
      </trkpt>
      <trkpt lat="45.83939" lon="4.25222">
        <ele>637.441</ele>
        <time>2018-08-20T06:38:34Z</time>
      </trkpt>
      <trkpt lat="45.83938" lon="4.25214">
        <ele>637.108</ele>
        <time>2018-08-20T06:38:39Z</time>
      </trkpt>
      <trkpt lat="45.83938" lon="4.25203">
        <ele>636.741</ele>
        <time>2018-08-20T06:38:45Z</time>
      </trkpt>
      <trkpt lat="45.83937" lon="4.25194">
        <ele>636.272</ele>
        <time>2018-08-20T06:38:50Z</time>
      </trkpt>
      <trkpt lat="45.83937" lon="4.25188">
        <ele>636.336</ele>
        <time>2018-08-20T06:38:55Z</time>
      </trkpt>
      <trkpt lat="45.83937" lon="4.2518">
        <ele>636.419</ele>
        <time>2018-08-20T06:39:01Z</time>
      </trkpt>
      <trkpt lat="45.83936" lon="4.25172">
        <ele>636.245</ele>
        <time>2018-08-20T06:39:06Z</time>
      </trkpt>
      <trkpt lat="45.83936" lon="4.25162">
        <ele>635.798</ele>
        <time>2018-08-20T06:39:12Z</time>
      </trkpt>
      <trkpt lat="45.83936" lon="4.25155">
        <ele>635.915</ele>
        <time>2018-08-20T06:39:17Z</time>
      </trkpt>
      <trkpt lat="45.83934" lon="4.25143">
        <ele>635.907</ele>
        <time>2018-08-20T06:39:23Z</time>
      </trkpt>
      <trkpt lat="45.83935" lon="4.25133">
        <ele>635.91</ele>
        <time>2018-08-20T06:39:29Z</time>
      </trkpt>
      <trkpt lat="45.83937" lon="4.25128">
        <ele>635.817</ele>
        <time>2018-08-20T06:39:34Z</time>
      </trkpt>
      <trkpt lat="45.8394" lon="4.25124">
        <ele>635.769</ele>
        <time>2018-08-20T06:39:39Z</time>
      </trkpt>
      <trkpt lat="45.83944" lon="4.2512">
        <ele>635.563</ele>
        <time>2018-08-20T06:39:44Z</time>
      </trkpt>
      <trkpt lat="45.83951" lon="4.2512">
        <ele>635.686</ele>
        <time>2018-08-20T06:39:50Z</time>
      </trkpt>
      <trkpt lat="45.83956" lon="4.2512">
        <ele>635.962</ele>
        <time>2018-08-20T06:39:55Z</time>
      </trkpt>
      <trkpt lat="45.83965" lon="4.25118">
        <ele>636.174</ele>
        <time>2018-08-20T06:40:01Z</time>
      </trkpt>
      <trkpt lat="45.83968" lon="4.25115">
        <ele>636.392</ele>
        <time>2018-08-20T06:40:07Z</time>
      </trkpt>
      <trkpt lat="45.83971" lon="4.25114">
        <ele>636.944</ele>
        <time>2018-08-20T06:40:12Z</time>
      </trkpt>
      <trkpt lat="45.83974" lon="4.25113">
        <ele>637.228</ele>
        <time>2018-08-20T06:40:17Z</time>
      </trkpt>
      <trkpt lat="45.83981" lon="4.25108">
        <ele>637.708</ele>
        <time>2018-08-20T06:40:23Z</time>
      </trkpt>
      <trkpt lat="45.83986" lon="4.25107">
        <ele>638.004</ele>
        <time>2018-08-20T06:40:28Z</time>
      </trkpt>
      <trkpt lat="45.83994" lon="4.25104">
        <ele>638.144</ele>
        <time>2018-08-20T06:40:34Z</time>
      </trkpt>
      <trkpt lat="45.84" lon="4.25102">
        <ele>638.187</ele>
        <time>2018-08-20T06:40:40Z</time>
      </trkpt>
      <trkpt lat="45.84004" lon="4.251">
        <ele>638.232</ele>
        <time>2018-08-20T06:40:46Z</time>
      </trkpt>
      <trkpt lat="45.84005" lon="4.25099">
        <ele>638.249</ele>
        <time>2018-08-20T06:40:52Z</time>
      </trkpt>
      <trkpt lat="45.84006" lon="4.25099">
        <ele>638.266</ele>
        <time>2018-08-20T06:40:58Z</time>
      </trkpt>
      <trkpt lat="45.84006" lon="4.25099">
        <ele>638.298</ele>
        <time>2018-08-20T06:41:04Z</time>
      </trkpt>
      <trkpt lat="45.84005" lon="4.25101">
        <ele>638.428</ele>
        <time>2018-08-20T06:41:10Z</time>
      </trkpt>
      <trkpt lat="45.84005" lon="4.25102">
        <ele>638.568</ele>
        <time>2018-08-20T06:41:15Z</time>
      </trkpt>
      <trkpt lat="45.84006" lon="4.251">
        <ele>638.66</ele>
        <time>2018-08-20T06:41:20Z</time>
      </trkpt>
      <trkpt lat="45.84007" lon="4.251">
        <ele>638.411</ele>
        <time>2018-08-20T06:41:26Z</time>
      </trkpt>
      <trkpt lat="45.84008" lon="4.25099">
        <ele>638.27</ele>
        <time>2018-08-20T06:41:31Z</time>
      </trkpt>
      <trkpt lat="45.8401" lon="4.25098">
        <ele>637.777</ele>
        <time>2018-08-20T06:41:37Z</time>
      </trkpt>
      <trkpt lat="45.84012" lon="4.25093">
        <ele>637.51</ele>
        <time>2018-08-20T06:41:43Z</time>
      </trkpt>
      <trkpt lat="45.84012" lon="4.25092">
        <ele>637.621</ele>
        <time>2018-08-20T06:41:48Z</time>
      </trkpt>
      <trkpt lat="45.84012" lon="4.25092">
        <ele>637.709</ele>
        <time>2018-08-20T06:41:54Z</time>
      </trkpt>
      <trkpt lat="45.84012" lon="4.25093">
        <ele>637.743</ele>
        <time>2018-08-20T06:41:59Z</time>
      </trkpt>
      <trkpt lat="45.84014" lon="4.25094">
        <ele>637.601</ele>
        <time>2018-08-20T06:42:05Z</time>
      </trkpt>
      <trkpt lat="45.84014" lon="4.25093">
        <ele>637.409</ele>
        <time>2018-08-20T06:42:11Z</time>
      </trkpt>
      <trkpt lat="45.84015" lon="4.25093">
        <ele>637.307</ele>
        <time>2018-08-20T06:42:17Z</time>
      </trkpt>
      <trkpt lat="45.84016" lon="4.25093">
        <ele>636.978</ele>
        <time>2018-08-20T06:42:23Z</time>
      </trkpt>
      <trkpt lat="45.84015" lon="4.25092">
        <ele>636.907</ele>
        <time>2018-08-20T06:42:29Z</time>
      </trkpt>
      <trkpt lat="45.84014" lon="4.25091">
        <ele>636.905</ele>
        <time>2018-08-20T06:42:34Z</time>
      </trkpt>
      <trkpt lat="45.84013" lon="4.2509">
        <ele>636.991</ele>
        <time>2018-08-20T06:42:40Z</time>
      </trkpt>
      <trkpt lat="45.84015" lon="4.25088">
        <ele>637.22</ele>
        <time>2018-08-20T06:42:45Z</time>
      </trkpt>
      <trkpt lat="45.84017" lon="4.25086">
        <ele>637.25</ele>
        <time>2018-08-20T06:42:51Z</time>
      </trkpt>
      <trkpt lat="45.84021" lon="4.25081">
        <ele>637.116</ele>
        <time>2018-08-20T06:42:56Z</time>
      </trkpt>
      <trkpt lat="45.84025" lon="4.2508">
        <ele>637.183</ele>
        <time>2018-08-20T06:43:02Z</time>
      </trkpt>
      <trkpt lat="45.84028" lon="4.25077">
        <ele>637.264</ele>
        <time>2018-08-20T06:43:08Z</time>
      </trkpt>
      <trkpt lat="45.84032" lon="4.25071">
        <ele>637.176</ele>
        <time>2018-08-20T06:43:13Z</time>
      </trkpt>
      <trkpt lat="45.84035" lon="4.25069">
        <ele>636.909</ele>
        <time>2018-08-20T06:43:18Z</time>
      </trkpt>
      <trkpt lat="45.84041" lon="4.25065">
        <ele>636.627</ele>
        <time>2018-08-20T06:43:24Z</time>
      </trkpt>
      <trkpt lat="45.84045" lon="4.25062">
        <ele>636.281</ele>
        <time>2018-08-20T06:43:30Z</time>
      </trkpt>
      <trkpt lat="45.84051" lon="4.25058">
        <ele>635.954</ele>
        <time>2018-08-20T06:43:35Z</time>
      </trkpt>
      <trkpt lat="45.84056" lon="4.25054">
        <ele>635.545</ele>
        <time>2018-08-20T06:43:41Z</time>
      </trkpt>
      <trkpt lat="45.84057" lon="4.25045">
        <ele>635.477</ele>
        <time>2018-08-20T06:43:47Z</time>
      </trkpt>
      <trkpt lat="45.84059" lon="4.25037">
        <ele>635.368</ele>
        <time>2018-08-20T06:43:52Z</time>
      </trkpt>
      <trkpt lat="45.84064" lon="4.25028">
        <ele>634.618</ele>
        <time>2018-08-20T06:43:58Z</time>
      </trkpt>
      <trkpt lat="45.84065" lon="4.25021">
        <ele>633.967</ele>
        <time>2018-08-20T06:44:04Z</time>
      </trkpt>
      <trkpt lat="45.84069" lon="4.25012">
        <ele>633.562</ele>
        <time>2018-08-20T06:44:11Z</time>
      </trkpt>
      <trkpt lat="45.84069" lon="4.25008">
        <ele>633.219</ele>
        <time>2018-08-20T06:44:16Z</time>
      </trkpt>
      <trkpt lat="45.84071" lon="4.25003">
        <ele>632.593</ele>
        <time>2018-08-20T06:44:22Z</time>
      </trkpt>
      <trkpt lat="45.84074" lon="4.24996">
        <ele>631.726</ele>
        <time>2018-08-20T06:44:28Z</time>
      </trkpt>
      <trkpt lat="45.84076" lon="4.24989">
        <ele>631.381</ele>
        <time>2018-08-20T06:44:33Z</time>
      </trkpt>
      <trkpt lat="45.84079" lon="4.24988">
        <ele>631.441</ele>
        <time>2018-08-20T06:44:38Z</time>
      </trkpt>
      <trkpt lat="45.84081" lon="4.24983">
        <ele>630.907</ele>
        <time>2018-08-20T06:44:43Z</time>
      </trkpt>
      <trkpt lat="45.84086" lon="4.24976">
        <ele>630.328</ele>
        <time>2018-08-20T06:44:49Z</time>
      </trkpt>
      <trkpt lat="45.84086" lon="4.24967">
        <ele>629.367</ele>
        <time>2018-08-20T06:44:55Z</time>
      </trkpt>
      <trkpt lat="45.84091" lon="4.24956">
        <ele>628.404</ele>
        <time>2018-08-20T06:45:01Z</time>
      </trkpt>
      <trkpt lat="45.84093" lon="4.24951">
        <ele>627.455</ele>
        <time>2018-08-20T06:45:06Z</time>
      </trkpt>
      <trkpt lat="45.84096" lon="4.24944">
        <ele>626.509</ele>
        <time>2018-08-20T06:45:11Z</time>
      </trkpt>
      <trkpt lat="45.84097" lon="4.24939">
        <ele>625.176</ele>
        <time>2018-08-20T06:45:17Z</time>
      </trkpt>
      <trkpt lat="45.84098" lon="4.24933">
        <ele>624.179</ele>
        <time>2018-08-20T06:45:22Z</time>
      </trkpt>
      <trkpt lat="45.84098" lon="4.24924">
        <ele>622.893</ele>
        <time>2018-08-20T06:45:28Z</time>
      </trkpt>
      <trkpt lat="45.84098" lon="4.24911">
        <ele>621.962</ele>
        <time>2018-08-20T06:45:34Z</time>
      </trkpt>
      <trkpt lat="45.84097" lon="4.24903">
        <ele>620.986</ele>
        <time>2018-08-20T06:45:40Z</time>
      </trkpt>
      <trkpt lat="45.84094" lon="4.24898">
        <ele>620.184</ele>
        <time>2018-08-20T06:45:45Z</time>
      </trkpt>
      <trkpt lat="45.84088" lon="4.24892">
        <ele>619.164</ele>
        <time>2018-08-20T06:45:51Z</time>
      </trkpt>
      <trkpt lat="45.84083" lon="4.24889">
        <ele>618.257</ele>
        <time>2018-08-20T06:45:56Z</time>
      </trkpt>
      <trkpt lat="45.8408" lon="4.24886">
        <ele>617.573</ele>
        <time>2018-08-20T06:46:01Z</time>
      </trkpt>
      <trkpt lat="45.84082" lon="4.24881">
        <ele>616.124</ele>
        <time>2018-08-20T06:46:07Z</time>
      </trkpt>
      <trkpt lat="45.84085" lon="4.24879">
        <ele>615.315</ele>
        <time>2018-08-20T06:46:12Z</time>
      </trkpt>
      <trkpt lat="45.84089" lon="4.24879">
        <ele>614.827</ele>
        <time>2018-08-20T06:46:17Z</time>
      </trkpt>
      <trkpt lat="45.84095" lon="4.24878">
        <ele>614.639</ele>
        <time>2018-08-20T06:46:23Z</time>
      </trkpt>
      <trkpt lat="45.841" lon="4.24877">
        <ele>614.843</ele>
        <time>2018-08-20T06:46:28Z</time>
      </trkpt>
      <trkpt lat="45.84105" lon="4.24876">
        <ele>614.938</ele>
        <time>2018-08-20T06:46:33Z</time>
      </trkpt>
      <trkpt lat="45.84111" lon="4.24874">
        <ele>615.137</ele>
        <time>2018-08-20T06:46:39Z</time>
      </trkpt>
      <trkpt lat="45.84119" lon="4.2487">
        <ele>615.185</ele>
        <time>2018-08-20T06:46:44Z</time>
      </trkpt>
      <trkpt lat="45.84124" lon="4.2487">
        <ele>614.869</ele>
        <time>2018-08-20T06:46:50Z</time>
      </trkpt>
      <trkpt lat="45.8413" lon="4.24871">
        <ele>614.209</ele>
        <time>2018-08-20T06:46:56Z</time>
      </trkpt>
      <trkpt lat="45.84136" lon="4.24873">
        <ele>614.02</ele>
        <time>2018-08-20T06:47:01Z</time>
      </trkpt>
      <trkpt lat="45.84142" lon="4.24873">
        <ele>613.619</ele>
        <time>2018-08-20T06:47:07Z</time>
      </trkpt>
      <trkpt lat="45.84148" lon="4.24874">
        <ele>613.28</ele>
        <time>2018-08-20T06:47:12Z</time>
      </trkpt>
      <trkpt lat="45.84153" lon="4.24872">
        <ele>612.53</ele>
        <time>2018-08-20T06:47:17Z</time>
      </trkpt>
      <trkpt lat="45.84159" lon="4.2487">
        <ele>611.999</ele>
        <time>2018-08-20T06:47:23Z</time>
      </trkpt>
      <trkpt lat="45.84167" lon="4.24867">
        <ele>611.498</ele>
        <time>2018-08-20T06:47:29Z</time>
      </trkpt>
      <trkpt lat="45.84169" lon="4.24866">
        <ele>611.025</ele>
        <time>2018-08-20T06:47:34Z</time>
      </trkpt>
      <trkpt lat="45.84175" lon="4.24863">
        <ele>610.069</ele>
        <time>2018-08-20T06:47:39Z</time>
      </trkpt>
      <trkpt lat="45.84184" lon="4.24855">
        <ele>609.329</ele>
        <time>2018-08-20T06:47:45Z</time>
      </trkpt>
      <trkpt lat="45.8419" lon="4.24852">
        <ele>608.768</ele>
        <time>2018-08-20T06:47:50Z</time>
      </trkpt>
      <trkpt lat="45.84194" lon="4.24852">
        <ele>607.981</ele>
        <time>2018-08-20T06:47:55Z</time>
      </trkpt>
      <trkpt lat="45.84198" lon="4.24851">
        <ele>607.125</ele>
        <time>2018-08-20T06:48:00Z</time>
      </trkpt>
      <trkpt lat="45.84201" lon="4.24849">
        <ele>606.352</ele>
        <time>2018-08-20T06:48:06Z</time>
      </trkpt>
      <trkpt lat="45.84202" lon="4.24851">
        <ele>605.486</ele>
        <time>2018-08-20T06:48:11Z</time>
      </trkpt>
      <trkpt lat="45.84199" lon="4.24855">
        <ele>604.255</ele>
        <time>2018-08-20T06:48:16Z</time>
      </trkpt>
      <trkpt lat="45.84199" lon="4.24854">
        <ele>603.293</ele>
        <time>2018-08-20T06:48:21Z</time>
      </trkpt>
      <trkpt lat="45.84201" lon="4.24856">
        <ele>602.425</ele>
        <time>2018-08-20T06:48:27Z</time>
      </trkpt>
      <trkpt lat="45.84201" lon="4.24857">
        <ele>601.056</ele>
        <time>2018-08-20T06:48:32Z</time>
      </trkpt>
      <trkpt lat="45.84201" lon="4.24857">
        <ele>600.791</ele>
        <time>2018-08-20T06:48:37Z</time>
      </trkpt>
      <trkpt lat="45.84203" lon="4.24853">
        <ele>600.804</ele>
        <time>2018-08-20T06:48:43Z</time>
      </trkpt>
      <trkpt lat="45.84208" lon="4.24848">
        <ele>601.069</ele>
        <time>2018-08-20T06:48:48Z</time>
      </trkpt>
      <trkpt lat="45.84211" lon="4.24844">
        <ele>601.93</ele>
        <time>2018-08-20T06:48:54Z</time>
      </trkpt>
      <trkpt lat="45.84212" lon="4.24841">
        <ele>603.327</ele>
        <time>2018-08-20T06:48:59Z</time>
      </trkpt>
      <trkpt lat="45.84212" lon="4.24841">
        <ele>603.891</ele>
        <time>2018-08-20T06:49:05Z</time>
      </trkpt>
      <trkpt lat="45.84212" lon="4.24841">
        <ele>604.099</ele>
        <time>2018-08-20T06:49:10Z</time>
      </trkpt>
      <trkpt lat="45.84212" lon="4.2484">
        <ele>604.623</ele>
        <time>2018-08-20T06:49:16Z</time>
      </trkpt>
      <trkpt lat="45.84212" lon="4.2484">
        <ele>604.987</ele>
        <time>2018-08-20T06:49:22Z</time>
      </trkpt>
      <trkpt lat="45.84212" lon="4.2484">
        <ele>605.457</ele>
        <time>2018-08-20T06:49:28Z</time>
      </trkpt>
      <trkpt lat="45.84217" lon="4.24841">
        <ele>605.537</ele>
        <time>2018-08-20T06:49:33Z</time>
      </trkpt>
      <trkpt lat="45.84219" lon="4.24841">
        <ele>605.011</ele>
        <time>2018-08-20T06:49:38Z</time>
      </trkpt>
      <trkpt lat="45.84219" lon="4.24841">
        <ele>604.817</ele>
        <time>2018-08-20T06:49:44Z</time>
      </trkpt>
      <trkpt lat="45.84219" lon="4.24841">
        <ele>604.776</ele>
        <time>2018-08-20T06:49:50Z</time>
      </trkpt>
      <trkpt lat="45.84219" lon="4.24841">
        <ele>604.639</ele>
        <time>2018-08-20T06:49:55Z</time>
      </trkpt>
      <trkpt lat="45.84219" lon="4.24841">
        <ele>604.554</ele>
        <time>2018-08-20T06:50:01Z</time>
      </trkpt>
      <trkpt lat="45.84219" lon="4.24841">
        <ele>604.478</ele>
        <time>2018-08-20T06:50:07Z</time>
      </trkpt>
      <trkpt lat="45.84219" lon="4.24841">
        <ele>604.372</ele>
        <time>2018-08-20T06:50:12Z</time>
      </trkpt>
      <trkpt lat="45.84219" lon="4.24841">
        <ele>604.12</ele>
        <time>2018-08-20T06:50:18Z</time>
      </trkpt>
      <trkpt lat="45.84219" lon="4.24841">
        <ele>604.06</ele>
        <time>2018-08-20T06:50:23Z</time>
      </trkpt>
      <trkpt lat="45.84219" lon="4.24841">
        <ele>604.159</ele>
        <time>2018-08-20T06:50:29Z</time>
      </trkpt>
      <trkpt lat="45.84219" lon="4.24841">
        <ele>604.254</ele>
        <time>2018-08-20T06:50:34Z</time>
      </trkpt>
      <trkpt lat="45.84219" lon="4.24841">
        <ele>604.415</ele>
        <time>2018-08-20T06:50:40Z</time>
      </trkpt>
      <trkpt lat="45.84219" lon="4.24841">
        <ele>604.559</ele>
        <time>2018-08-20T06:50:45Z</time>
      </trkpt>
      <trkpt lat="45.84219" lon="4.24841">
        <ele>604.906</ele>
        <time>2018-08-20T06:50:51Z</time>
      </trkpt>
      <trkpt lat="45.84219" lon="4.24841">
        <ele>604.965</ele>
        <time>2018-08-20T06:50:56Z</time>
      </trkpt>
      <trkpt lat="45.84219" lon="4.24842">
        <ele>604.953</ele>
        <time>2018-08-20T06:51:01Z</time>
      </trkpt>
      <trkpt lat="45.84219" lon="4.24842">
        <ele>604.757</ele>
        <time>2018-08-20T06:51:07Z</time>
      </trkpt>
      <trkpt lat="45.84219" lon="4.24842">
        <ele>604.611</ele>
        <time>2018-08-20T06:51:13Z</time>
      </trkpt>
      <trkpt lat="45.84219" lon="4.24842">
        <ele>604.5</ele>
        <time>2018-08-20T06:51:18Z</time>
      </trkpt>
      <trkpt lat="45.84219" lon="4.24842">
        <ele>604.476</ele>
        <time>2018-08-20T06:51:24Z</time>
      </trkpt>
      <trkpt lat="45.84219" lon="4.24842">
        <ele>604.017</ele>
        <time>2018-08-20T06:51:29Z</time>
      </trkpt>
      <trkpt lat="45.84219" lon="4.24842">
        <ele>603.944</ele>
        <time>2018-08-20T06:51:35Z</time>
      </trkpt>
      <trkpt lat="45.84219" lon="4.24842">
        <ele>603.955</ele>
        <time>2018-08-20T06:51:41Z</time>
      </trkpt>
      <trkpt lat="45.84219" lon="4.24842">
        <ele>603.976</ele>
        <time>2018-08-20T06:51:46Z</time>
      </trkpt>
      <trkpt lat="45.84218" lon="4.24844">
        <ele>603.713</ele>
        <time>2018-08-20T06:51:51Z</time>
      </trkpt>
      <trkpt lat="45.84216" lon="4.24845">
        <ele>603.163</ele>
        <time>2018-08-20T06:51:56Z</time>
      </trkpt>
      <trkpt lat="45.84213" lon="4.24848">
        <ele>602.927</ele>
        <time>2018-08-20T06:52:01Z</time>
      </trkpt>
      <trkpt lat="45.84212" lon="4.24856">
        <ele>603.255</ele>
        <time>2018-08-20T06:52:07Z</time>
      </trkpt>
      <trkpt lat="45.84212" lon="4.24861">
        <ele>601.538</ele>
        <time>2018-08-20T06:52:13Z</time>
      </trkpt>
      <trkpt lat="45.84209" lon="4.24866">
        <ele>600.199</ele>
        <time>2018-08-20T06:52:19Z</time>
      </trkpt>
      <trkpt lat="45.84211" lon="4.24876">
        <ele>600.342</ele>
        <time>2018-08-20T06:52:25Z</time>
      </trkpt>
      <trkpt lat="45.84214" lon="4.24884">
        <ele>600.951</ele>
        <time>2018-08-20T06:52:31Z</time>
      </trkpt>
      <trkpt lat="45.84214" lon="4.24893">
        <ele>601.313</ele>
        <time>2018-08-20T06:52:37Z</time>
      </trkpt>
      <trkpt lat="45.84213" lon="4.24901">
        <ele>600.181</ele>
        <time>2018-08-20T06:52:43Z</time>
      </trkpt>
      <trkpt lat="45.84211" lon="4.24907">
        <ele>599.524</ele>
        <time>2018-08-20T06:52:48Z</time>
      </trkpt>
      <trkpt lat="45.84209" lon="4.24914">
        <ele>597.788</ele>
        <time>2018-08-20T06:52:53Z</time>
      </trkpt>
      <trkpt lat="45.84209" lon="4.24923">
        <ele>596.471</ele>
        <time>2018-08-20T06:52:58Z</time>
      </trkpt>
      <trkpt lat="45.84208" lon="4.24931">
        <ele>595.262</ele>
        <time>2018-08-20T06:53:03Z</time>
      </trkpt>
      <trkpt lat="45.84206" lon="4.24938">
        <ele>593.889</ele>
        <time>2018-08-20T06:53:09Z</time>
      </trkpt>
      <trkpt lat="45.84204" lon="4.24944">
        <ele>592.614</ele>
        <time>2018-08-20T06:53:15Z</time>
      </trkpt>
      <trkpt lat="45.84204" lon="4.24955">
        <ele>592.522</ele>
        <time>2018-08-20T06:53:21Z</time>
      </trkpt>
      <trkpt lat="45.84203" lon="4.24962">
        <ele>592.414</ele>
        <time>2018-08-20T06:53:26Z</time>
      </trkpt>
      <trkpt lat="45.84204" lon="4.2497">
        <ele>591.943</ele>
        <time>2018-08-20T06:53:31Z</time>
      </trkpt>
      <trkpt lat="45.84204" lon="4.24977">
        <ele>591.171</ele>
        <time>2018-08-20T06:53:37Z</time>
      </trkpt>
      <trkpt lat="45.84204" lon="4.24987">
        <ele>590.927</ele>
        <time>2018-08-20T06:53:43Z</time>
      </trkpt>
      <trkpt lat="45.84206" lon="4.24996">
        <ele>591.114</ele>
        <time>2018-08-20T06:53:49Z</time>
      </trkpt>
      <trkpt lat="45.84206" lon="4.25004">
        <ele>590.844</ele>
        <time>2018-08-20T06:53:54Z</time>
      </trkpt>
      <trkpt lat="45.84206" lon="4.25012">
        <ele>590.694</ele>
        <time>2018-08-20T06:53:59Z</time>
      </trkpt>
      <trkpt lat="45.84204" lon="4.25024">
        <ele>590.493</ele>
        <time>2018-08-20T06:54:05Z</time>
      </trkpt>
      <trkpt lat="45.84203" lon="4.2503">
        <ele>589.992</ele>
        <time>2018-08-20T06:54:10Z</time>
      </trkpt>
      <trkpt lat="45.84201" lon="4.25037">
        <ele>589.453</ele>
        <time>2018-08-20T06:54:15Z</time>
      </trkpt>
      <trkpt lat="45.84199" lon="4.25044">
        <ele>589.195</ele>
        <time>2018-08-20T06:54:21Z</time>
      </trkpt>
      <trkpt lat="45.84196" lon="4.25055">
        <ele>589.369</ele>
        <time>2018-08-20T06:54:27Z</time>
      </trkpt>
      <trkpt lat="45.84194" lon="4.25059">
        <ele>589.509</ele>
        <time>2018-08-20T06:54:32Z</time>
      </trkpt>
      <trkpt lat="45.84188" lon="4.25067">
        <ele>589.568</ele>
        <time>2018-08-20T06:54:38Z</time>
      </trkpt>
      <trkpt lat="45.84184" lon="4.25074">
        <ele>588.964</ele>
        <time>2018-08-20T06:54:44Z</time>
      </trkpt>
      <trkpt lat="45.84178" lon="4.25083">
        <ele>587.813</ele>
        <time>2018-08-20T06:54:50Z</time>
      </trkpt>
      <trkpt lat="45.84173" lon="4.25091">
        <ele>587.188</ele>
        <time>2018-08-20T06:54:56Z</time>
      </trkpt>
      <trkpt lat="45.84171" lon="4.251">
        <ele>586.24</ele>
        <time>2018-08-20T06:55:01Z</time>
      </trkpt>
      <trkpt lat="45.84172" lon="4.25108">
        <ele>585.364</ele>
        <time>2018-08-20T06:55:07Z</time>
      </trkpt>
      <trkpt lat="45.84174" lon="4.25116">
        <ele>584.794</ele>
        <time>2018-08-20T06:55:12Z</time>
      </trkpt>
      <trkpt lat="45.84178" lon="4.25128">
        <ele>584.82</ele>
        <time>2018-08-20T06:55:17Z</time>
      </trkpt>
      <trkpt lat="45.84188" lon="4.25136">
        <ele>585.728</ele>
        <time>2018-08-20T06:55:23Z</time>
      </trkpt>
      <trkpt lat="45.84196" lon="4.2514">
        <ele>586.49</ele>
        <time>2018-08-20T06:55:29Z</time>
      </trkpt>
      <trkpt lat="45.84206" lon="4.25144">
        <ele>587.664</ele>
        <time>2018-08-20T06:55:35Z</time>
      </trkpt>
      <trkpt lat="45.84212" lon="4.2515">
        <ele>588.852</ele>
        <time>2018-08-20T06:55:40Z</time>
      </trkpt>
      <trkpt lat="45.84217" lon="4.25154">
        <ele>589.686</ele>
        <time>2018-08-20T06:55:45Z</time>
      </trkpt>
      <trkpt lat="45.84224" lon="4.25161">
        <ele>590.5</ele>
        <time>2018-08-20T06:55:51Z</time>
      </trkpt>
      <trkpt lat="45.84228" lon="4.25161">
        <ele>591.006</ele>
        <time>2018-08-20T06:55:56Z</time>
      </trkpt>
      <trkpt lat="45.84232" lon="4.2516">
        <ele>591.742</ele>
        <time>2018-08-20T06:56:01Z</time>
      </trkpt>
      <trkpt lat="45.84232" lon="4.2516">
        <ele>591.807</ele>
        <time>2018-08-20T06:56:07Z</time>
      </trkpt>
      <trkpt lat="45.84232" lon="4.2516">
        <ele>591.738</ele>
        <time>2018-08-20T06:56:13Z</time>
      </trkpt>
      <trkpt lat="45.84234" lon="4.2516">
        <ele>590.976</ele>
        <time>2018-08-20T06:56:19Z</time>
      </trkpt>
      <trkpt lat="45.84236" lon="4.25157">
        <ele>590.806</ele>
        <time>2018-08-20T06:56:24Z</time>
      </trkpt>
      <trkpt lat="45.84232" lon="4.2515">
        <ele>591.058</ele>
        <time>2018-08-20T06:56:29Z</time>
      </trkpt>
      <trkpt lat="45.8423" lon="4.25144">
        <ele>591.368</ele>
        <time>2018-08-20T06:56:34Z</time>
      </trkpt>
      <trkpt lat="45.84227" lon="4.25131">
        <ele>591.415</ele>
        <time>2018-08-20T06:56:40Z</time>
      </trkpt>
      <trkpt lat="45.84225" lon="4.25122">
        <ele>590.71</ele>
        <time>2018-08-20T06:56:46Z</time>
      </trkpt>
      <trkpt lat="45.84224" lon="4.25113">
        <ele>589.826</ele>
        <time>2018-08-20T06:56:52Z</time>
      </trkpt>
      <trkpt lat="45.84225" lon="4.25103">
        <ele>588.944</ele>
        <time>2018-08-20T06:56:58Z</time>
      </trkpt>
      <trkpt lat="45.84224" lon="4.25096">
        <ele>588.15</ele>
        <time>2018-08-20T06:57:03Z</time>
      </trkpt>
      <trkpt lat="45.84224" lon="4.25085">
        <ele>587.093</ele>
        <time>2018-08-20T06:57:09Z</time>
      </trkpt>
      <trkpt lat="45.84225" lon="4.25075">
        <ele>586.486</ele>
        <time>2018-08-20T06:57:14Z</time>
      </trkpt>
      <trkpt lat="45.84225" lon="4.25062">
        <ele>585.969</ele>
        <time>2018-08-20T06:57:20Z</time>
      </trkpt>
      <trkpt lat="45.84227" lon="4.25051">
        <ele>585.369</ele>
        <time>2018-08-20T06:57:25Z</time>
      </trkpt>
      <trkpt lat="45.84229" lon="4.25037">
        <ele>585.066</ele>
        <time>2018-08-20T06:57:31Z</time>
      </trkpt>
      <trkpt lat="45.84232" lon="4.25028">
        <ele>584.82</ele>
        <time>2018-08-20T06:57:36Z</time>
      </trkpt>
      <trkpt lat="45.84234" lon="4.25016">
        <ele>584.138</ele>
        <time>2018-08-20T06:57:42Z</time>
      </trkpt>
      <trkpt lat="45.84237" lon="4.25006">
        <ele>583.865</ele>
        <time>2018-08-20T06:57:48Z</time>
      </trkpt>
      <trkpt lat="45.84242" lon="4.24996">
        <ele>583.934</ele>
        <time>2018-08-20T06:57:54Z</time>
      </trkpt>
      <trkpt lat="45.84244" lon="4.24986">
        <ele>583.806</ele>
        <time>2018-08-20T06:58:00Z</time>
      </trkpt>
      <trkpt lat="45.84247" lon="4.24977">
        <ele>583.587</ele>
        <time>2018-08-20T06:58:05Z</time>
      </trkpt>
      <trkpt lat="45.84252" lon="4.24967">
        <ele>583.516</ele>
        <time>2018-08-20T06:58:11Z</time>
      </trkpt>
      <trkpt lat="45.84254" lon="4.2496">
        <ele>583.156</ele>
        <time>2018-08-20T06:58:16Z</time>
      </trkpt>
      <trkpt lat="45.84256" lon="4.24951">
        <ele>582.865</ele>
        <time>2018-08-20T06:58:21Z</time>
      </trkpt>
      <trkpt lat="45.84259" lon="4.24944">
        <ele>582.702</ele>
        <time>2018-08-20T06:58:27Z</time>
      </trkpt>
      <trkpt lat="45.84263" lon="4.24934">
        <ele>582.157</ele>
        <time>2018-08-20T06:58:33Z</time>
      </trkpt>
      <trkpt lat="45.84267" lon="4.24925">
        <ele>581.648</ele>
        <time>2018-08-20T06:58:39Z</time>
      </trkpt>
      <trkpt lat="45.84273" lon="4.24913">
        <ele>580.755</ele>
        <time>2018-08-20T06:58:45Z</time>
      </trkpt>
      <trkpt lat="45.84278" lon="4.24903">
        <ele>579.853</ele>
        <time>2018-08-20T06:58:50Z</time>
      </trkpt>
      <trkpt lat="45.84281" lon="4.24893">
        <ele>578.577</ele>
        <time>2018-08-20T06:58:56Z</time>
      </trkpt>
      <trkpt lat="45.84281" lon="4.24884">
        <ele>577.594</ele>
        <time>2018-08-20T06:59:01Z</time>
      </trkpt>
      <trkpt lat="45.84284" lon="4.24874">
        <ele>576.695</ele>
        <time>2018-08-20T06:59:07Z</time>
      </trkpt>
      <trkpt lat="45.84288" lon="4.24865">
        <ele>575.648</ele>
        <time>2018-08-20T06:59:13Z</time>
      </trkpt>
      <trkpt lat="45.84291" lon="4.24857">
        <ele>574.302</ele>
        <time>2018-08-20T06:59:18Z</time>
      </trkpt>
      <trkpt lat="45.84294" lon="4.2485">
        <ele>572.47</ele>
        <time>2018-08-20T06:59:24Z</time>
      </trkpt>
      <trkpt lat="45.84298" lon="4.24839">
        <ele>571.02</ele>
        <time>2018-08-20T06:59:30Z</time>
      </trkpt>
      <trkpt lat="45.84301" lon="4.24832">
        <ele>570.213</ele>
        <time>2018-08-20T06:59:35Z</time>
      </trkpt>
      <trkpt lat="45.84307" lon="4.24817">
        <ele>569.15</ele>
        <time>2018-08-20T06:59:41Z</time>
      </trkpt>
      <trkpt lat="45.84311" lon="4.24809">
        <ele>568.482</ele>
        <time>2018-08-20T06:59:47Z</time>
      </trkpt>
      <trkpt lat="45.84313" lon="4.24816">
        <ele>567.31</ele>
        <time>2018-08-20T06:59:52Z</time>
      </trkpt>
      <trkpt lat="45.84316" lon="4.24828">
        <ele>565.994</ele>
        <time>2018-08-20T06:59:58Z</time>
      </trkpt>
      <trkpt lat="45.84315" lon="4.2484">
        <ele>564.338</ele>
        <time>2018-08-20T07:00:04Z</time>
      </trkpt>
      <trkpt lat="45.84313" lon="4.2485">
        <ele>563.211</ele>
        <time>2018-08-20T07:00:09Z</time>
      </trkpt>
      <trkpt lat="45.84312" lon="4.24857">
        <ele>562.501</ele>
        <time>2018-08-20T07:00:15Z</time>
      </trkpt>
      <trkpt lat="45.8431" lon="4.24862">
        <ele>561.673</ele>
        <time>2018-08-20T07:00:20Z</time>
      </trkpt>
      <trkpt lat="45.84309" lon="4.24864">
        <ele>560.677</ele>
        <time>2018-08-20T07:00:26Z</time>
      </trkpt>
      <trkpt lat="45.84305" lon="4.24866">
        <ele>560.01</ele>
        <time>2018-08-20T07:00:31Z</time>
      </trkpt>
      <trkpt lat="45.84303" lon="4.24866">
        <ele>559.587</ele>
        <time>2018-08-20T07:00:36Z</time>
      </trkpt>
      <trkpt lat="45.84303" lon="4.24866">
        <ele>559.501</ele>
        <time>2018-08-20T07:00:42Z</time>
      </trkpt>
      <trkpt lat="45.84303" lon="4.24866">
        <ele>559.819</ele>
        <time>2018-08-20T07:00:48Z</time>
      </trkpt>
      <trkpt lat="45.84303" lon="4.24866">
        <ele>559.635</ele>
        <time>2018-08-20T07:00:53Z</time>
      </trkpt>
      <trkpt lat="45.84301" lon="4.24866">
        <ele>558.333</ele>
        <time>2018-08-20T07:00:59Z</time>
      </trkpt>
      <trkpt lat="45.84297" lon="4.24865">
        <ele>556.848</ele>
        <time>2018-08-20T07:01:04Z</time>
      </trkpt>
      <trkpt lat="45.84296" lon="4.24863">
        <ele>556.101</ele>
        <time>2018-08-20T07:01:10Z</time>
      </trkpt>
      <trkpt lat="45.84296" lon="4.24862">
        <ele>556.084</ele>
        <time>2018-08-20T07:01:16Z</time>
      </trkpt>
      <trkpt lat="45.84296" lon="4.24861">
        <ele>556.065</ele>
        <time>2018-08-20T07:01:22Z</time>
      </trkpt>
      <trkpt lat="45.84296" lon="4.24861">
        <ele>556.067</ele>
        <time>2018-08-20T07:01:28Z</time>
      </trkpt>
      <trkpt lat="45.84296" lon="4.24861">
        <ele>556.15</ele>
        <time>2018-08-20T07:01:33Z</time>
      </trkpt>
      <trkpt lat="45.84296" lon="4.24861">
        <ele>556.259</ele>
        <time>2018-08-20T07:01:39Z</time>
      </trkpt>
      <trkpt lat="45.84297" lon="4.24862">
        <ele>556.698</ele>
        <time>2018-08-20T07:01:44Z</time>
      </trkpt>
      <trkpt lat="45.84303" lon="4.2487">
        <ele>557.134</ele>
        <time>2018-08-20T07:01:50Z</time>
      </trkpt>
      <trkpt lat="45.84303" lon="4.2487">
        <ele>557.2</ele>
        <time>2018-08-20T07:01:55Z</time>
      </trkpt>
      <trkpt lat="45.84303" lon="4.2487">
        <ele>556.888</ele>
        <time>2018-08-20T07:02:00Z</time>
      </trkpt>
      <trkpt lat="45.84303" lon="4.2487">
        <ele>556.836</ele>
        <time>2018-08-20T07:02:06Z</time>
      </trkpt>
      <trkpt lat="45.84302" lon="4.24868">
        <ele>556.517</ele>
        <time>2018-08-20T07:02:12Z</time>
      </trkpt>
      <trkpt lat="45.84302" lon="4.24868">
        <ele>556.397</ele>
        <time>2018-08-20T07:02:17Z</time>
      </trkpt>
      <trkpt lat="45.84301" lon="4.24867">
        <ele>555.915</ele>
        <time>2018-08-20T07:02:22Z</time>
      </trkpt>
      <trkpt lat="45.84301" lon="4.24867">
        <ele>555.51</ele>
        <time>2018-08-20T07:02:28Z</time>
      </trkpt>
      <trkpt lat="45.84302" lon="4.24866">
        <ele>555.837</ele>
        <time>2018-08-20T07:02:33Z</time>
      </trkpt>
      <trkpt lat="45.84304" lon="4.24864">
        <ele>556.205</ele>
        <time>2018-08-20T07:02:39Z</time>
      </trkpt>
      <trkpt lat="45.84304" lon="4.24864">
        <ele>556.419</ele>
        <time>2018-08-20T07:02:44Z</time>
      </trkpt>
      <trkpt lat="45.84303" lon="4.24863">
        <ele>556.381</ele>
        <time>2018-08-20T07:02:50Z</time>
      </trkpt>
      <trkpt lat="45.84303" lon="4.24863">
        <ele>556.492</ele>
        <time>2018-08-20T07:02:55Z</time>
      </trkpt>
      <trkpt lat="45.84303" lon="4.24863">
        <ele>556.856</ele>
        <time>2018-08-20T07:03:00Z</time>
      </trkpt>
      <trkpt lat="45.84304" lon="4.2486">
        <ele>558.21</ele>
        <time>2018-08-20T07:03:06Z</time>
      </trkpt>
      <trkpt lat="45.84302" lon="4.24855">
        <ele>559.322</ele>
        <time>2018-08-20T07:03:12Z</time>
      </trkpt>
      <trkpt lat="45.84302" lon="4.24855">
        <ele>559.488</ele>
        <time>2018-08-20T07:03:18Z</time>
      </trkpt>
      <trkpt lat="45.84302" lon="4.24855">
        <ele>559.602</ele>
        <time>2018-08-20T07:03:24Z</time>
      </trkpt>
      <trkpt lat="45.84303" lon="4.24854">
        <ele>559.419</ele>
        <time>2018-08-20T07:03:29Z</time>
      </trkpt>
      <trkpt lat="45.84303" lon="4.24854">
        <ele>559.359</ele>
        <time>2018-08-20T07:03:35Z</time>
      </trkpt>
      <trkpt lat="45.84307" lon="4.24853">
        <ele>559.557</ele>
        <time>2018-08-20T07:03:41Z</time>
      </trkpt>
      <trkpt lat="45.84313" lon="4.24849">
        <ele>561.141</ele>
        <time>2018-08-20T07:03:47Z</time>
      </trkpt>
      <trkpt lat="45.84315" lon="4.24842">
        <ele>562.365</ele>
        <time>2018-08-20T07:03:53Z</time>
      </trkpt>
      <trkpt lat="45.84315" lon="4.24837">
        <ele>561.735</ele>
        <time>2018-08-20T07:03:59Z</time>
      </trkpt>
      <trkpt lat="45.84314" lon="4.24828">
        <ele>561.125</ele>
        <time>2018-08-20T07:04:04Z</time>
      </trkpt>
      <trkpt lat="45.84311" lon="4.24817">
        <ele>560.972</ele>
        <time>2018-08-20T07:04:10Z</time>
      </trkpt>
      <trkpt lat="45.84308" lon="4.24812">
        <ele>560.265</ele>
        <time>2018-08-20T07:04:15Z</time>
      </trkpt>
      <trkpt lat="45.84305" lon="4.24802">
        <ele>558.928</ele>
        <time>2018-08-20T07:04:21Z</time>
      </trkpt>
      <trkpt lat="45.84305" lon="4.24791">
        <ele>557.789</ele>
        <time>2018-08-20T07:04:27Z</time>
      </trkpt>
      <trkpt lat="45.84305" lon="4.2478">
        <ele>556.93</ele>
        <time>2018-08-20T07:04:33Z</time>
      </trkpt>
      <trkpt lat="45.84305" lon="4.24775">
        <ele>556.411</ele>
        <time>2018-08-20T07:04:38Z</time>
      </trkpt>
      <trkpt lat="45.84309" lon="4.24763">
        <ele>556.153</ele>
        <time>2018-08-20T07:04:44Z</time>
      </trkpt>
      <trkpt lat="45.84314" lon="4.24755">
        <ele>555.897</ele>
        <time>2018-08-20T07:04:50Z</time>
      </trkpt>
      <trkpt lat="45.8432" lon="4.2475">
        <ele>555.84</ele>
        <time>2018-08-20T07:04:55Z</time>
      </trkpt>
      <trkpt lat="45.84325" lon="4.24742">
        <ele>555.536</ele>
        <time>2018-08-20T07:05:00Z</time>
      </trkpt>
      <trkpt lat="45.8433" lon="4.24736">
        <ele>554.645</ele>
        <time>2018-08-20T07:05:06Z</time>
      </trkpt>
      <trkpt lat="45.84332" lon="4.24732">
        <ele>553.784</ele>
        <time>2018-08-20T07:05:12Z</time>
      </trkpt>
      <trkpt lat="45.84333" lon="4.24726">
        <ele>552.742</ele>
        <time>2018-08-20T07:05:17Z</time>
      </trkpt>
      <trkpt lat="45.84334" lon="4.24722">
        <ele>551.43</ele>
        <time>2018-08-20T07:05:22Z</time>
      </trkpt>
      <trkpt lat="45.84335" lon="4.24718">
        <ele>550.467</ele>
        <time>2018-08-20T07:05:27Z</time>
      </trkpt>
      <trkpt lat="45.84335" lon="4.24718">
        <ele>550.461</ele>
        <time>2018-08-20T07:05:33Z</time>
      </trkpt>
      <trkpt lat="45.84334" lon="4.24701">
        <ele>550.871</ele>
        <time>2018-08-20T07:05:39Z</time>
      </trkpt>
      <trkpt lat="45.84332" lon="4.24691">
        <ele>551.058</ele>
        <time>2018-08-20T07:05:45Z</time>
      </trkpt>
      <trkpt lat="45.84332" lon="4.24683">
        <ele>550.936</ele>
        <time>2018-08-20T07:05:51Z</time>
      </trkpt>
      <trkpt lat="45.84329" lon="4.24674">
        <ele>550.635</ele>
        <time>2018-08-20T07:05:56Z</time>
      </trkpt>
      <trkpt lat="45.84327" lon="4.24667">
        <ele>550.195</ele>
        <time>2018-08-20T07:06:02Z</time>
      </trkpt>
      <trkpt lat="45.84324" lon="4.24653">
        <ele>549.383</ele>
        <time>2018-08-20T07:06:08Z</time>
      </trkpt>
      <trkpt lat="45.84321" lon="4.24647">
        <ele>548.808</ele>
        <time>2018-08-20T07:06:13Z</time>
      </trkpt>
      <trkpt lat="45.84318" lon="4.24638">
        <ele>547.981</ele>
        <time>2018-08-20T07:06:19Z</time>
      </trkpt>
      <trkpt lat="45.84316" lon="4.24633">
        <ele>547.749</ele>
        <time>2018-08-20T07:06:24Z</time>
      </trkpt>
      <trkpt lat="45.84315" lon="4.24621">
        <ele>547.296</ele>
        <time>2018-08-20T07:06:30Z</time>
      </trkpt>
      <trkpt lat="45.84313" lon="4.24612">
        <ele>546.842</ele>
        <time>2018-08-20T07:06:35Z</time>
      </trkpt>
      <trkpt lat="45.84312" lon="4.24603">
        <ele>546.645</ele>
        <time>2018-08-20T07:06:40Z</time>
      </trkpt>
      <trkpt lat="45.8431" lon="4.24594">
        <ele>546.326</ele>
        <time>2018-08-20T07:06:46Z</time>
      </trkpt>
      <trkpt lat="45.84308" lon="4.24584">
        <ele>545.993</ele>
        <time>2018-08-20T07:06:51Z</time>
      </trkpt>
      <trkpt lat="45.84307" lon="4.24573">
        <ele>545.628</ele>
        <time>2018-08-20T07:06:56Z</time>
      </trkpt>
      <trkpt lat="45.84309" lon="4.2456">
        <ele>544.823</ele>
        <time>2018-08-20T07:07:02Z</time>
      </trkpt>
      <trkpt lat="45.84308" lon="4.24549">
        <ele>544.17</ele>
        <time>2018-08-20T07:07:07Z</time>
      </trkpt>
      <trkpt lat="45.84309" lon="4.2454">
        <ele>543.493</ele>
        <time>2018-08-20T07:07:13Z</time>
      </trkpt>
      <trkpt lat="45.8431" lon="4.24528">
        <ele>543.225</ele>
        <time>2018-08-20T07:07:19Z</time>
      </trkpt>
      <trkpt lat="45.8431" lon="4.24518">
        <ele>542.463</ele>
        <time>2018-08-20T07:07:24Z</time>
      </trkpt>
      <trkpt lat="45.84309" lon="4.24511">
        <ele>541.574</ele>
        <time>2018-08-20T07:07:29Z</time>
      </trkpt>
      <trkpt lat="45.84307" lon="4.24501">
        <ele>540.767</ele>
        <time>2018-08-20T07:07:35Z</time>
      </trkpt>
      <trkpt lat="45.84304" lon="4.24489">
        <ele>539.851</ele>
        <time>2018-08-20T07:07:41Z</time>
      </trkpt>
      <trkpt lat="45.84301" lon="4.24479">
        <ele>539.254</ele>
        <time>2018-08-20T07:07:46Z</time>
      </trkpt>
      <trkpt lat="45.84299" lon="4.2447">
        <ele>538.879</ele>
        <time>2018-08-20T07:07:52Z</time>
      </trkpt>
      <trkpt lat="45.84297" lon="4.24462">
        <ele>538.875</ele>
        <time>2018-08-20T07:07:58Z</time>
      </trkpt>
      <trkpt lat="45.84296" lon="4.2445">
        <ele>538.79</ele>
        <time>2018-08-20T07:08:03Z</time>
      </trkpt>
      <trkpt lat="45.84298" lon="4.24434">
        <ele>537.887</ele>
        <time>2018-08-20T07:08:09Z</time>
      </trkpt>
      <trkpt lat="45.84297" lon="4.24423">
        <ele>536.476</ele>
        <time>2018-08-20T07:08:15Z</time>
      </trkpt>
      <trkpt lat="45.84298" lon="4.24411">
        <ele>535.803</ele>
        <time>2018-08-20T07:08:20Z</time>
      </trkpt>
      <trkpt lat="45.843" lon="4.24403">
        <ele>535.338</ele>
        <time>2018-08-20T07:08:25Z</time>
      </trkpt>
      <trkpt lat="45.84301" lon="4.24391">
        <ele>534.682</ele>
        <time>2018-08-20T07:08:31Z</time>
      </trkpt>
      <trkpt lat="45.84304" lon="4.24379">
        <ele>534.317</ele>
        <time>2018-08-20T07:08:36Z</time>
      </trkpt>
      <trkpt lat="45.84305" lon="4.24371">
        <ele>533.608</ele>
        <time>2018-08-20T07:08:42Z</time>
      </trkpt>
      <trkpt lat="45.84303" lon="4.24359">
        <ele>533.147</ele>
        <time>2018-08-20T07:08:48Z</time>
      </trkpt>
      <trkpt lat="45.84302" lon="4.24353">
        <ele>532.556</ele>
        <time>2018-08-20T07:08:53Z</time>
      </trkpt>
      <trkpt lat="45.843" lon="4.24343">
        <ele>531.549</ele>
        <time>2018-08-20T07:08:59Z</time>
      </trkpt>
      <trkpt lat="45.84298" lon="4.24334">
        <ele>530.469</ele>
        <time>2018-08-20T07:09:04Z</time>
      </trkpt>
      <trkpt lat="45.84298" lon="4.24325">
        <ele>529.829</ele>
        <time>2018-08-20T07:09:09Z</time>
      </trkpt>
      <trkpt lat="45.84295" lon="4.24312">
        <ele>529.855</ele>
        <time>2018-08-20T07:09:15Z</time>
      </trkpt>
      <trkpt lat="45.84294" lon="4.24299">
        <ele>529.867</ele>
        <time>2018-08-20T07:09:21Z</time>
      </trkpt>
      <trkpt lat="45.84295" lon="4.24294">
        <ele>529.21</ele>
        <time>2018-08-20T07:09:26Z</time>
      </trkpt>
      <trkpt lat="45.84295" lon="4.24288">
        <ele>528.432</ele>
        <time>2018-08-20T07:09:31Z</time>
      </trkpt>
      <trkpt lat="45.84293" lon="4.24278">
        <ele>527.571</ele>
        <time>2018-08-20T07:09:37Z</time>
      </trkpt>
      <trkpt lat="45.84293" lon="4.24264">
        <ele>526.627</ele>
        <time>2018-08-20T07:09:43Z</time>
      </trkpt>
      <trkpt lat="45.84294" lon="4.24254">
        <ele>525.655</ele>
        <time>2018-08-20T07:09:49Z</time>
      </trkpt>
      <trkpt lat="45.84297" lon="4.24254">
        <ele>524.986</ele>
        <time>2018-08-20T07:09:54Z</time>
      </trkpt>
      <trkpt lat="45.84297" lon="4.24255">
        <ele>524.56</ele>
        <time>2018-08-20T07:10:00Z</time>
      </trkpt>
      <trkpt lat="45.84299" lon="4.24262">
        <ele>524.183</ele>
        <time>2018-08-20T07:10:06Z</time>
      </trkpt>
      <trkpt lat="45.843" lon="4.24262">
        <ele>523.913</ele>
        <time>2018-08-20T07:10:11Z</time>
      </trkpt>
      <trkpt lat="45.84301" lon="4.24263">
        <ele>523.871</ele>
        <time>2018-08-20T07:10:17Z</time>
      </trkpt>
      <trkpt lat="45.84301" lon="4.24263">
        <ele>523.6</ele>
        <time>2018-08-20T07:10:23Z</time>
      </trkpt>
      <trkpt lat="45.84301" lon="4.24263">
        <ele>522.93</ele>
        <time>2018-08-20T07:10:29Z</time>
      </trkpt>
      <trkpt lat="45.84302" lon="4.24262">
        <ele>522.217</ele>
        <time>2018-08-20T07:10:35Z</time>
      </trkpt>
      <trkpt lat="45.84303" lon="4.24263">
        <ele>522.019</ele>
        <time>2018-08-20T07:10:41Z</time>
      </trkpt>
      <trkpt lat="45.84303" lon="4.24263">
        <ele>521.772</ele>
        <time>2018-08-20T07:10:47Z</time>
      </trkpt>
      <trkpt lat="45.84303" lon="4.24263">
        <ele>521.573</ele>
        <time>2018-08-20T07:10:52Z</time>
      </trkpt>
      <trkpt lat="45.84303" lon="4.24263">
        <ele>521.397</ele>
        <time>2018-08-20T07:10:58Z</time>
      </trkpt>
      <trkpt lat="45.84303" lon="4.24263">
        <ele>521.264</ele>
        <time>2018-08-20T07:11:03Z</time>
      </trkpt>
      <trkpt lat="45.84303" lon="4.24263">
        <ele>521.097</ele>
        <time>2018-08-20T07:11:08Z</time>
      </trkpt>
      <trkpt lat="45.84303" lon="4.24263">
        <ele>520.876</ele>
        <time>2018-08-20T07:11:14Z</time>
      </trkpt>
      <trkpt lat="45.84303" lon="4.24263">
        <ele>520.696</ele>
        <time>2018-08-20T07:11:19Z</time>
      </trkpt>
      <trkpt lat="45.84304" lon="4.24263">
        <ele>520.004</ele>
        <time>2018-08-20T07:11:24Z</time>
      </trkpt>
      <trkpt lat="45.84304" lon="4.24263">
        <ele>519.952</ele>
        <time>2018-08-20T07:11:30Z</time>
      </trkpt>
      <trkpt lat="45.84304" lon="4.24263">
        <ele>519.668</ele>
        <time>2018-08-20T07:11:36Z</time>
      </trkpt>
      <trkpt lat="45.84304" lon="4.24263">
        <ele>519.461</ele>
        <time>2018-08-20T07:11:41Z</time>
      </trkpt>
      <trkpt lat="45.84304" lon="4.24262">
        <ele>518.152</ele>
        <time>2018-08-20T07:11:46Z</time>
      </trkpt>
      <trkpt lat="45.84304" lon="4.24262">
        <ele>517.99</ele>
        <time>2018-08-20T07:11:51Z</time>
      </trkpt>
      <trkpt lat="45.84304" lon="4.24262">
        <ele>517.846</ele>
        <time>2018-08-20T07:11:57Z</time>
      </trkpt>
      <trkpt lat="45.84304" lon="4.24262">
        <ele>517.926</ele>
        <time>2018-08-20T07:12:03Z</time>
      </trkpt>
      <trkpt lat="45.84304" lon="4.24262">
        <ele>518.014</ele>
        <time>2018-08-20T07:12:09Z</time>
      </trkpt>
      <trkpt lat="45.84304" lon="4.24262">
        <ele>518.153</ele>
        <time>2018-08-20T07:12:15Z</time>
      </trkpt>
      <trkpt lat="45.84304" lon="4.24262">
        <ele>518.287</ele>
        <time>2018-08-20T07:12:21Z</time>
      </trkpt>
      <trkpt lat="45.84305" lon="4.24261">
        <ele>518.108</ele>
        <time>2018-08-20T07:12:27Z</time>
      </trkpt>
      <trkpt lat="45.84307" lon="4.24263">
        <ele>517.851</ele>
        <time>2018-08-20T07:12:32Z</time>
      </trkpt>
      <trkpt lat="45.84311" lon="4.24268">
        <ele>517.353</ele>
        <time>2018-08-20T07:12:38Z</time>
      </trkpt>
      <trkpt lat="45.84312" lon="4.2427">
        <ele>517.007</ele>
        <time>2018-08-20T07:12:43Z</time>
      </trkpt>
      <trkpt lat="45.84315" lon="4.24272">
        <ele>516.927</ele>
        <time>2018-08-20T07:12:48Z</time>
      </trkpt>
      <trkpt lat="45.8432" lon="4.24272">
        <ele>516.975</ele>
        <time>2018-08-20T07:12:54Z</time>
      </trkpt>
      <trkpt lat="45.84325" lon="4.24272">
        <ele>517.622</ele>
        <time>2018-08-20T07:12:59Z</time>
      </trkpt>
      <trkpt lat="45.84328" lon="4.24273">
        <ele>518.922</ele>
        <time>2018-08-20T07:13:05Z</time>
      </trkpt>
      <trkpt lat="45.84331" lon="4.24273">
        <ele>519.697</ele>
        <time>2018-08-20T07:13:11Z</time>
      </trkpt>
      <trkpt lat="45.84336" lon="4.24275">
        <ele>520.303</ele>
        <time>2018-08-20T07:13:16Z</time>
      </trkpt>
      <trkpt lat="45.84343" lon="4.24276">
        <ele>520.882</ele>
        <time>2018-08-20T07:13:22Z</time>
      </trkpt>
      <trkpt lat="45.84351" lon="4.24276">
        <ele>521.583</ele>
        <time>2018-08-20T07:13:28Z</time>
      </trkpt>
      <trkpt lat="45.84355" lon="4.24275">
        <ele>522.492</ele>
        <time>2018-08-20T07:13:33Z</time>
      </trkpt>
      <trkpt lat="45.84359" lon="4.24275">
        <ele>523.378</ele>
        <time>2018-08-20T07:13:38Z</time>
      </trkpt>
      <trkpt lat="45.84367" lon="4.24274">
        <ele>524.018</ele>
        <time>2018-08-20T07:13:43Z</time>
      </trkpt>
      <trkpt lat="45.84371" lon="4.24276">
        <ele>524.265</ele>
        <time>2018-08-20T07:13:48Z</time>
      </trkpt>
      <trkpt lat="45.84378" lon="4.24274">
        <ele>524.171</ele>
        <time>2018-08-20T07:13:54Z</time>
      </trkpt>
      <trkpt lat="45.84383" lon="4.24273">
        <ele>524.561</ele>
        <time>2018-08-20T07:13:59Z</time>
      </trkpt>
      <trkpt lat="45.84387" lon="4.24272">
        <ele>525.077</ele>
        <time>2018-08-20T07:14:05Z</time>
      </trkpt>
      <trkpt lat="45.84392" lon="4.24272">
        <ele>525.757</ele>
        <time>2018-08-20T07:14:11Z</time>
      </trkpt>
      <trkpt lat="45.84397" lon="4.24271">
        <ele>526.744</ele>
        <time>2018-08-20T07:14:17Z</time>
      </trkpt>
      <trkpt lat="45.84406" lon="4.24274">
        <ele>527.716</ele>
        <time>2018-08-20T07:14:23Z</time>
      </trkpt>
      <trkpt lat="45.84409" lon="4.24273">
        <ele>528.155</ele>
        <time>2018-08-20T07:14:29Z</time>
      </trkpt>
      <trkpt lat="45.84412" lon="4.24273">
        <ele>528.437</ele>
        <time>2018-08-20T07:14:34Z</time>
      </trkpt>
      <trkpt lat="45.84419" lon="4.24275">
        <ele>528.689</ele>
        <time>2018-08-20T07:14:40Z</time>
      </trkpt>
      <trkpt lat="45.84423" lon="4.24276">
        <ele>529.323</ele>
        <time>2018-08-20T07:14:46Z</time>
      </trkpt>
      <trkpt lat="45.84433" lon="4.24275">
        <ele>529.867</ele>
        <time>2018-08-20T07:14:52Z</time>
      </trkpt>
      <trkpt lat="45.84437" lon="4.24274">
        <ele>530.594</ele>
        <time>2018-08-20T07:14:58Z</time>
      </trkpt>
      <trkpt lat="45.84441" lon="4.24273">
        <ele>530.651</ele>
        <time>2018-08-20T07:15:04Z</time>
      </trkpt>
      <trkpt lat="45.84445" lon="4.24276">
        <ele>530.483</ele>
        <time>2018-08-20T07:15:09Z</time>
      </trkpt>
      <trkpt lat="45.84452" lon="4.24281">
        <ele>531.261</ele>
        <time>2018-08-20T07:15:15Z</time>
      </trkpt>
      <trkpt lat="45.84458" lon="4.24284">
        <ele>532.148</ele>
        <time>2018-08-20T07:15:20Z</time>
      </trkpt>
      <trkpt lat="45.84463" lon="4.24286">
        <ele>532.743</ele>
        <time>2018-08-20T07:15:25Z</time>
      </trkpt>
      <trkpt lat="45.84468" lon="4.24288">
        <ele>533.308</ele>
        <time>2018-08-20T07:15:31Z</time>
      </trkpt>
      <trkpt lat="45.84471" lon="4.24288">
        <ele>533.681</ele>
        <time>2018-08-20T07:15:36Z</time>
      </trkpt>
      <trkpt lat="45.84476" lon="4.24287">
        <ele>534.549</ele>
        <time>2018-08-20T07:15:42Z</time>
      </trkpt>
      <trkpt lat="45.84481" lon="4.24289">
        <ele>535.55</ele>
        <time>2018-08-20T07:15:47Z</time>
      </trkpt>
      <trkpt lat="45.84485" lon="4.24292">
        <ele>536.508</ele>
        <time>2018-08-20T07:15:53Z</time>
      </trkpt>
      <trkpt lat="45.8449" lon="4.24294">
        <ele>537.213</ele>
        <time>2018-08-20T07:15:58Z</time>
      </trkpt>
      <trkpt lat="45.84495" lon="4.24299">
        <ele>537.834</ele>
        <time>2018-08-20T07:16:03Z</time>
      </trkpt>
      <trkpt lat="45.84498" lon="4.24299">
        <ele>538.737</ele>
        <time>2018-08-20T07:16:09Z</time>
      </trkpt>
      <trkpt lat="45.84501" lon="4.24303">
        <ele>539.342</ele>
        <time>2018-08-20T07:16:14Z</time>
      </trkpt>
      <trkpt lat="45.84506" lon="4.24305">
        <ele>539.793</ele>
        <time>2018-08-20T07:16:19Z</time>
      </trkpt>
      <trkpt lat="45.8451" lon="4.24307">
        <ele>540.038</ele>
        <time>2018-08-20T07:16:25Z</time>
      </trkpt>
      <trkpt lat="45.84516" lon="4.24311">
        <ele>540.214</ele>
        <time>2018-08-20T07:16:31Z</time>
      </trkpt>
      <trkpt lat="45.84521" lon="4.24316">
        <ele>540.538</ele>
        <time>2018-08-20T07:16:36Z</time>
      </trkpt>
      <trkpt lat="45.84527" lon="4.24321">
        <ele>541.058</ele>
        <time>2018-08-20T07:16:42Z</time>
      </trkpt>
      <trkpt lat="45.84531" lon="4.24324">
        <ele>541.484</ele>
        <time>2018-08-20T07:16:47Z</time>
      </trkpt>
      <trkpt lat="45.84537" lon="4.24329">
        <ele>541.85</ele>
        <time>2018-08-20T07:16:53Z</time>
      </trkpt>
      <trkpt lat="45.84539" lon="4.24333">
        <ele>542.232</ele>
        <time>2018-08-20T07:16:58Z</time>
      </trkpt>
      <trkpt lat="45.84542" lon="4.24338">
        <ele>543.105</ele>
        <time>2018-08-20T07:17:04Z</time>
      </trkpt>
      <trkpt lat="45.84544" lon="4.24347">
        <ele>543.899</ele>
        <time>2018-08-20T07:17:09Z</time>
      </trkpt>
      <trkpt lat="45.84547" lon="4.24353">
        <ele>544.405</ele>
        <time>2018-08-20T07:17:15Z</time>
      </trkpt>
      <trkpt lat="45.8455" lon="4.24356">
        <ele>544.793</ele>
        <time>2018-08-20T07:17:20Z</time>
      </trkpt>
      <trkpt lat="45.84554" lon="4.2436">
        <ele>545.006</ele>
        <time>2018-08-20T07:17:25Z</time>
      </trkpt>
      <trkpt lat="45.84559" lon="4.24367">
        <ele>545.348</ele>
        <time>2018-08-20T07:17:31Z</time>
      </trkpt>
      <trkpt lat="45.84563" lon="4.24371">
        <ele>545.99</ele>
        <time>2018-08-20T07:17:37Z</time>
      </trkpt>
      <trkpt lat="45.84565" lon="4.24378">
        <ele>546.269</ele>
        <time>2018-08-20T07:17:42Z</time>
      </trkpt>
      <trkpt lat="45.84568" lon="4.24382">
        <ele>546.864</ele>
        <time>2018-08-20T07:17:47Z</time>
      </trkpt>
      <trkpt lat="45.84571" lon="4.24384">
        <ele>546.891</ele>
        <time>2018-08-20T07:17:53Z</time>
      </trkpt>
      <trkpt lat="45.84574" lon="4.24388">
        <ele>547.16</ele>
        <time>2018-08-20T07:17:59Z</time>
      </trkpt>
      <trkpt lat="45.84576" lon="4.24393">
        <ele>547.751</ele>
        <time>2018-08-20T07:18:04Z</time>
      </trkpt>
      <trkpt lat="45.8458" lon="4.24397">
        <ele>547.898</ele>
        <time>2018-08-20T07:18:09Z</time>
      </trkpt>
      <trkpt lat="45.84581" lon="4.24405">
        <ele>548.098</ele>
        <time>2018-08-20T07:18:15Z</time>
      </trkpt>
      <trkpt lat="45.84585" lon="4.2441">
        <ele>548.77</ele>
        <time>2018-08-20T07:18:21Z</time>
      </trkpt>
      <trkpt lat="45.84588" lon="4.24416">
        <ele>549.626</ele>
        <time>2018-08-20T07:18:27Z</time>
      </trkpt>
      <trkpt lat="45.84591" lon="4.24423">
        <ele>550.51</ele>
        <time>2018-08-20T07:18:33Z</time>
      </trkpt>
      <trkpt lat="45.84593" lon="4.24426">
        <ele>550.963</ele>
        <time>2018-08-20T07:18:38Z</time>
      </trkpt>
      <trkpt lat="45.84594" lon="4.24432">
        <ele>551.957</ele>
        <time>2018-08-20T07:18:44Z</time>
      </trkpt>
      <trkpt lat="45.84598" lon="4.24437">
        <ele>553.125</ele>
        <time>2018-08-20T07:18:50Z</time>
      </trkpt>
      <trkpt lat="45.84603" lon="4.24452">
        <ele>553.566</ele>
        <time>2018-08-20T07:18:56Z</time>
      </trkpt>
      <trkpt lat="45.84606" lon="4.24456">
        <ele>553.825</ele>
        <time>2018-08-20T07:19:01Z</time>
      </trkpt>
      <trkpt lat="45.8461" lon="4.24458">
        <ele>554.136</ele>
        <time>2018-08-20T07:19:07Z</time>
      </trkpt>
      <trkpt lat="45.84615" lon="4.24462">
        <ele>554.564</ele>
        <time>2018-08-20T07:19:12Z</time>
      </trkpt>
      <trkpt lat="45.84621" lon="4.24469">
        <ele>554.636</ele>
        <time>2018-08-20T07:19:18Z</time>
      </trkpt>
      <trkpt lat="45.84625" lon="4.24471">
        <ele>554.364</ele>
        <time>2018-08-20T07:19:23Z</time>
      </trkpt>
      <trkpt lat="45.84629" lon="4.24477">
        <ele>554.295</ele>
        <time>2018-08-20T07:19:28Z</time>
      </trkpt>
      <trkpt lat="45.84635" lon="4.24487">
        <ele>554.827</ele>
        <time>2018-08-20T07:19:34Z</time>
      </trkpt>
      <trkpt lat="45.84638" lon="4.24494">
        <ele>554.747</ele>
        <time>2018-08-20T07:19:39Z</time>
      </trkpt>
      <trkpt lat="45.84642" lon="4.24499">
        <ele>554.828</ele>
        <time>2018-08-20T07:19:44Z</time>
      </trkpt>
      <trkpt lat="45.84649" lon="4.24507">
        <ele>556.052</ele>
        <time>2018-08-20T07:19:50Z</time>
      </trkpt>
      <trkpt lat="45.84651" lon="4.24511">
        <ele>558.456</ele>
        <time>2018-08-20T07:19:56Z</time>
      </trkpt>
      <trkpt lat="45.84657" lon="4.24522">
        <ele>560.743</ele>
        <time>2018-08-20T07:20:02Z</time>
      </trkpt>
      <trkpt lat="45.84664" lon="4.2453">
        <ele>561.744</ele>
        <time>2018-08-20T07:20:08Z</time>
      </trkpt>
      <trkpt lat="45.84667" lon="4.24536">
        <ele>562.419</ele>
        <time>2018-08-20T07:20:14Z</time>
      </trkpt>
      <trkpt lat="45.84672" lon="4.24545">
        <ele>562.916</ele>
        <time>2018-08-20T07:20:20Z</time>
      </trkpt>
      <trkpt lat="45.84677" lon="4.2455">
        <ele>563.259</ele>
        <time>2018-08-20T07:20:25Z</time>
      </trkpt>
      <trkpt lat="45.84681" lon="4.24558">
        <ele>563.851</ele>
        <time>2018-08-20T07:20:31Z</time>
      </trkpt>
      <trkpt lat="45.84684" lon="4.24563">
        <ele>564.599</ele>
        <time>2018-08-20T07:20:37Z</time>
      </trkpt>
      <trkpt lat="45.84687" lon="4.2457">
        <ele>565.287</ele>
        <time>2018-08-20T07:20:42Z</time>
      </trkpt>
      <trkpt lat="45.84689" lon="4.24578">
        <ele>566.354</ele>
        <time>2018-08-20T07:20:47Z</time>
      </trkpt>
      <trkpt lat="45.84695" lon="4.24592">
        <ele>568.024</ele>
        <time>2018-08-20T07:20:53Z</time>
      </trkpt>
      <trkpt lat="45.84696" lon="4.24597">
        <ele>568.902</ele>
        <time>2018-08-20T07:20:59Z</time>
      </trkpt>
      <trkpt lat="45.84699" lon="4.24603">
        <ele>569.189</ele>
        <time>2018-08-20T07:21:05Z</time>
      </trkpt>
      <trkpt lat="45.847" lon="4.24608">
        <ele>569.114</ele>
        <time>2018-08-20T07:21:10Z</time>
      </trkpt>
      <trkpt lat="45.84705" lon="4.24617">
        <ele>568.804</ele>
        <time>2018-08-20T07:21:16Z</time>
      </trkpt>
      <trkpt lat="45.84708" lon="4.24622">
        <ele>568.865</ele>
        <time>2018-08-20T07:21:21Z</time>
      </trkpt>
      <trkpt lat="45.84716" lon="4.24634">
        <ele>569.319</ele>
        <time>2018-08-20T07:21:27Z</time>
      </trkpt>
      <trkpt lat="45.84719" lon="4.2464">
        <ele>570.235</ele>
        <time>2018-08-20T07:21:33Z</time>
      </trkpt>
      <trkpt lat="45.84724" lon="4.24644">
        <ele>570.779</ele>
        <time>2018-08-20T07:21:38Z</time>
      </trkpt>
      <trkpt lat="45.84727" lon="4.24648">
        <ele>570.584</ele>
        <time>2018-08-20T07:21:44Z</time>
      </trkpt>
      <trkpt lat="45.84734" lon="4.24653">
        <ele>571.283</ele>
        <time>2018-08-20T07:21:50Z</time>
      </trkpt>
      <trkpt lat="45.84739" lon="4.24658">
        <ele>572.231</ele>
        <time>2018-08-20T07:21:55Z</time>
      </trkpt>
      <trkpt lat="45.84746" lon="4.24667">
        <ele>572.58</ele>
        <time>2018-08-20T07:22:01Z</time>
      </trkpt>
      <trkpt lat="45.84751" lon="4.24673">
        <ele>573.109</ele>
        <time>2018-08-20T07:22:06Z</time>
      </trkpt>
      <trkpt lat="45.84754" lon="4.24676">
        <ele>573.215</ele>
        <time>2018-08-20T07:22:11Z</time>
      </trkpt>
      <trkpt lat="45.84761" lon="4.2468">
        <ele>573.607</ele>
        <time>2018-08-20T07:22:17Z</time>
      </trkpt>
      <trkpt lat="45.84765" lon="4.24684">
        <ele>573.771</ele>
        <time>2018-08-20T07:22:22Z</time>
      </trkpt>
      <trkpt lat="45.84769" lon="4.24686">
        <ele>573.849</ele>
        <time>2018-08-20T07:22:27Z</time>
      </trkpt>
      <trkpt lat="45.84774" lon="4.2469">
        <ele>573.771</ele>
        <time>2018-08-20T07:22:32Z</time>
      </trkpt>
      <trkpt lat="45.84781" lon="4.24694">
        <ele>573.938</ele>
        <time>2018-08-20T07:22:38Z</time>
      </trkpt>
      <trkpt lat="45.84785" lon="4.24696">
        <ele>574.451</ele>
        <time>2018-08-20T07:22:44Z</time>
      </trkpt>
      <trkpt lat="45.84788" lon="4.24699">
        <ele>575.414</ele>
        <time>2018-08-20T07:22:50Z</time>
      </trkpt>
      <trkpt lat="45.84794" lon="4.24703">
        <ele>576.72</ele>
        <time>2018-08-20T07:22:56Z</time>
      </trkpt>
      <trkpt lat="45.84799" lon="4.24711">
        <ele>578.264</ele>
        <time>2018-08-20T07:23:02Z</time>
      </trkpt>
      <trkpt lat="45.84803" lon="4.24716">
        <ele>579.114</ele>
        <time>2018-08-20T07:23:08Z</time>
      </trkpt>
      <trkpt lat="45.84809" lon="4.24724">
        <ele>580.112</ele>
        <time>2018-08-20T07:23:14Z</time>
      </trkpt>
      <trkpt lat="45.84815" lon="4.24728">
        <ele>580.956</ele>
        <time>2018-08-20T07:23:20Z</time>
      </trkpt>
      <trkpt lat="45.84819" lon="4.24734">
        <ele>581.48</ele>
        <time>2018-08-20T07:23:25Z</time>
      </trkpt>
      <trkpt lat="45.84824" lon="4.2474">
        <ele>582.425</ele>
        <time>2018-08-20T07:23:31Z</time>
      </trkpt>
      <trkpt lat="45.84827" lon="4.24743">
        <ele>583.324</ele>
        <time>2018-08-20T07:23:36Z</time>
      </trkpt>
      <trkpt lat="45.8483" lon="4.24747">
        <ele>584.112</ele>
        <time>2018-08-20T07:23:41Z</time>
      </trkpt>
      <trkpt lat="45.84834" lon="4.24752">
        <ele>585.003</ele>
        <time>2018-08-20T07:23:47Z</time>
      </trkpt>
      <trkpt lat="45.84839" lon="4.24758">
        <ele>586.028</ele>
        <time>2018-08-20T07:23:53Z</time>
      </trkpt>
      <trkpt lat="45.84846" lon="4.24766">
        <ele>587.267</ele>
        <time>2018-08-20T07:23:59Z</time>
      </trkpt>
      <trkpt lat="45.84851" lon="4.24771">
        <ele>588.186</ele>
        <time>2018-08-20T07:24:05Z</time>
      </trkpt>
      <trkpt lat="45.84854" lon="4.24778">
        <ele>589.016</ele>
        <time>2018-08-20T07:24:10Z</time>
      </trkpt>
      <trkpt lat="45.84858" lon="4.24785">
        <ele>589.624</ele>
        <time>2018-08-20T07:24:16Z</time>
      </trkpt>
      <trkpt lat="45.84863" lon="4.24796">
        <ele>589.968</ele>
        <time>2018-08-20T07:24:22Z</time>
      </trkpt>
      <trkpt lat="45.84865" lon="4.24802">
        <ele>590.278</ele>
        <time>2018-08-20T07:24:27Z</time>
      </trkpt>
      <trkpt lat="45.8487" lon="4.24809">
        <ele>590.924</ele>
        <time>2018-08-20T07:24:33Z</time>
      </trkpt>
      <trkpt lat="45.84872" lon="4.24818">
        <ele>591.716</ele>
        <time>2018-08-20T07:24:38Z</time>
      </trkpt>
      <trkpt lat="45.84874" lon="4.24824">
        <ele>592.532</ele>
        <time>2018-08-20T07:24:44Z</time>
      </trkpt>
      <trkpt lat="45.84876" lon="4.24837">
        <ele>592.931</ele>
        <time>2018-08-20T07:24:50Z</time>
      </trkpt>
      <trkpt lat="45.84879" lon="4.24844">
        <ele>593.308</ele>
        <time>2018-08-20T07:24:56Z</time>
      </trkpt>
      <trkpt lat="45.84884" lon="4.24851">
        <ele>593.913</ele>
        <time>2018-08-20T07:25:02Z</time>
      </trkpt>
      <trkpt lat="45.84886" lon="4.24859">
        <ele>594.437</ele>
        <time>2018-08-20T07:25:07Z</time>
      </trkpt>
      <trkpt lat="45.84886" lon="4.24865">
        <ele>594.863</ele>
        <time>2018-08-20T07:25:12Z</time>
      </trkpt>
      <trkpt lat="45.84888" lon="4.24877">
        <ele>595.223</ele>
        <time>2018-08-20T07:25:18Z</time>
      </trkpt>
      <trkpt lat="45.84891" lon="4.24884">
        <ele>596.117</ele>
        <time>2018-08-20T07:25:24Z</time>
      </trkpt>
      <trkpt lat="45.84892" lon="4.24896">
        <ele>596.933</ele>
        <time>2018-08-20T07:25:30Z</time>
      </trkpt>
      <trkpt lat="45.84892" lon="4.24903">
        <ele>597.458</ele>
        <time>2018-08-20T07:25:35Z</time>
      </trkpt>
      <trkpt lat="45.84893" lon="4.24915">
        <ele>597.511</ele>
        <time>2018-08-20T07:25:41Z</time>
      </trkpt>
      <trkpt lat="45.84895" lon="4.24919">
        <ele>597.642</ele>
        <time>2018-08-20T07:25:47Z</time>
      </trkpt>
      <trkpt lat="45.84896" lon="4.24929">
        <ele>598.192</ele>
        <time>2018-08-20T07:25:53Z</time>
      </trkpt>
      <trkpt lat="45.84898" lon="4.24938">
        <ele>599.072</ele>
        <time>2018-08-20T07:25:59Z</time>
      </trkpt>
      <trkpt lat="45.84899" lon="4.24948">
        <ele>599.421</ele>
        <time>2018-08-20T07:26:04Z</time>
      </trkpt>
      <trkpt lat="45.849" lon="4.24953">
        <ele>600.144</ele>
        <time>2018-08-20T07:26:09Z</time>
      </trkpt>
      <trkpt lat="45.84901" lon="4.24961">
        <ele>601.013</ele>
        <time>2018-08-20T07:26:15Z</time>
      </trkpt>
      <trkpt lat="45.84902" lon="4.24974">
        <ele>601.157</ele>
        <time>2018-08-20T07:26:21Z</time>
      </trkpt>
      <trkpt lat="45.84905" lon="4.24984">
        <ele>601.037</ele>
        <time>2018-08-20T07:26:27Z</time>
      </trkpt>
      <trkpt lat="45.84905" lon="4.24992">
        <ele>601.144</ele>
        <time>2018-08-20T07:26:33Z</time>
      </trkpt>
      <trkpt lat="45.84906" lon="4.25">
        <ele>601.259</ele>
        <time>2018-08-20T07:26:38Z</time>
      </trkpt>
      <trkpt lat="45.84906" lon="4.25004">
        <ele>601.653</ele>
        <time>2018-08-20T07:26:43Z</time>
      </trkpt>
      <trkpt lat="45.84908" lon="4.25012">
        <ele>602.322</ele>
        <time>2018-08-20T07:26:48Z</time>
      </trkpt>
      <trkpt lat="45.84909" lon="4.25021">
        <ele>602.934</ele>
        <time>2018-08-20T07:26:54Z</time>
      </trkpt>
      <trkpt lat="45.84909" lon="4.25026">
        <ele>603.085</ele>
        <time>2018-08-20T07:26:59Z</time>
      </trkpt>
      <trkpt lat="45.84907" lon="4.25034">
        <ele>603.479</ele>
        <time>2018-08-20T07:27:04Z</time>
      </trkpt>
      <trkpt lat="45.84906" lon="4.25042">
        <ele>603.55</ele>
        <time>2018-08-20T07:27:10Z</time>
      </trkpt>
      <trkpt lat="45.84906" lon="4.25048">
        <ele>603.922</ele>
        <time>2018-08-20T07:27:15Z</time>
      </trkpt>
      <trkpt lat="45.84907" lon="4.25055">
        <ele>604.489</ele>
        <time>2018-08-20T07:27:20Z</time>
      </trkpt>
      <trkpt lat="45.84908" lon="4.25062">
        <ele>605.211</ele>
        <time>2018-08-20T07:27:26Z</time>
      </trkpt>
      <trkpt lat="45.84909" lon="4.25069">
        <ele>605.761</ele>
        <time>2018-08-20T07:27:32Z</time>
      </trkpt>
      <trkpt lat="45.8491" lon="4.25076">
        <ele>605.939</ele>
        <time>2018-08-20T07:27:37Z</time>
      </trkpt>
      <trkpt lat="45.8491" lon="4.25087">
        <ele>605.945</ele>
        <time>2018-08-20T07:27:43Z</time>
      </trkpt>
      <trkpt lat="45.8491" lon="4.25095">
        <ele>606.67</ele>
        <time>2018-08-20T07:27:48Z</time>
      </trkpt>
      <trkpt lat="45.8491" lon="4.25102">
        <ele>607.15</ele>
        <time>2018-08-20T07:27:53Z</time>
      </trkpt>
      <trkpt lat="45.8491" lon="4.2511">
        <ele>607.679</ele>
        <time>2018-08-20T07:27:58Z</time>
      </trkpt>
      <trkpt lat="45.84911" lon="4.25121">
        <ele>608.386</ele>
        <time>2018-08-20T07:28:04Z</time>
      </trkpt>
      <trkpt lat="45.84911" lon="4.25131">
        <ele>608.975</ele>
        <time>2018-08-20T07:28:10Z</time>
      </trkpt>
      <trkpt lat="45.84911" lon="4.25139">
        <ele>609.381</ele>
        <time>2018-08-20T07:28:15Z</time>
      </trkpt>
      <trkpt lat="45.84911" lon="4.25145">
        <ele>609.828</ele>
        <time>2018-08-20T07:28:21Z</time>
      </trkpt>
      <trkpt lat="45.84911" lon="4.25151">
        <ele>610.078</ele>
        <time>2018-08-20T07:28:26Z</time>
      </trkpt>
      <trkpt lat="45.84912" lon="4.25151">
        <ele>609.836</ele>
        <time>2018-08-20T07:28:33Z</time>
      </trkpt>
      <trkpt lat="45.84912" lon="4.25149">
        <ele>610.123</ele>
        <time>2018-08-20T07:28:39Z</time>
      </trkpt>
      <trkpt lat="45.84914" lon="4.25147">
        <ele>610.093</ele>
        <time>2018-08-20T07:28:44Z</time>
      </trkpt>
      <trkpt lat="45.84913" lon="4.2515">
        <ele>609.797</ele>
        <time>2018-08-20T07:28:50Z</time>
      </trkpt>
      <trkpt lat="45.84913" lon="4.25149">
        <ele>609.837</ele>
        <time>2018-08-20T07:28:55Z</time>
      </trkpt>
      <trkpt lat="45.84912" lon="4.25151">
        <ele>609.726</ele>
        <time>2018-08-20T07:29:01Z</time>
      </trkpt>
      <trkpt lat="45.84913" lon="4.25149">
        <ele>609.697</ele>
        <time>2018-08-20T07:29:07Z</time>
      </trkpt>
      <trkpt lat="45.84914" lon="4.25149">
        <ele>609.766</ele>
        <time>2018-08-20T07:29:12Z</time>
      </trkpt>
      <trkpt lat="45.84914" lon="4.2515">
        <ele>609.936</ele>
        <time>2018-08-20T07:29:17Z</time>
      </trkpt>
      <trkpt lat="45.84914" lon="4.2515">
        <ele>610.061</ele>
        <time>2018-08-20T07:29:23Z</time>
      </trkpt>
      <trkpt lat="45.84914" lon="4.2515">
        <ele>610.109</ele>
        <time>2018-08-20T07:29:29Z</time>
      </trkpt>
      <trkpt lat="45.84914" lon="4.2515">
        <ele>610.182</ele>
        <time>2018-08-20T07:29:34Z</time>
      </trkpt>
      <trkpt lat="45.84914" lon="4.2515">
        <ele>610.278</ele>
        <time>2018-08-20T07:29:39Z</time>
      </trkpt>
      <trkpt lat="45.84914" lon="4.2515">
        <ele>610.345</ele>
        <time>2018-08-20T07:29:44Z</time>
      </trkpt>
      <trkpt lat="45.84914" lon="4.2515">
        <ele>610.466</ele>
        <time>2018-08-20T07:29:50Z</time>
      </trkpt>
      <trkpt lat="45.84914" lon="4.2515">
        <ele>610.586</ele>
        <time>2018-08-20T07:29:55Z</time>
      </trkpt>
      <trkpt lat="45.84914" lon="4.2515">
        <ele>610.935</ele>
        <time>2018-08-20T07:30:01Z</time>
      </trkpt>
      <trkpt lat="45.84914" lon="4.2515">
        <ele>611.284</ele>
        <time>2018-08-20T07:30:07Z</time>
      </trkpt>
      <trkpt lat="45.84914" lon="4.2515">
        <ele>611.29</ele>
        <time>2018-08-20T07:30:12Z</time>
      </trkpt>
      <trkpt lat="45.84914" lon="4.2515">
        <ele>611.297</ele>
        <time>2018-08-20T07:30:18Z</time>
      </trkpt>
      <trkpt lat="45.84913" lon="4.25151">
        <ele>611.131</ele>
        <time>2018-08-20T07:30:24Z</time>
      </trkpt>
      <trkpt lat="45.84913" lon="4.25151">
        <ele>610.94</ele>
        <time>2018-08-20T07:30:29Z</time>
      </trkpt>
      <trkpt lat="45.84913" lon="4.25151">
        <ele>610.725</ele>
        <time>2018-08-20T07:30:34Z</time>
      </trkpt>
      <trkpt lat="45.84913" lon="4.25151">
        <ele>610.333</ele>
        <time>2018-08-20T07:30:40Z</time>
      </trkpt>
      <trkpt lat="45.84913" lon="4.25151">
        <ele>610.07</ele>
        <time>2018-08-20T07:30:46Z</time>
      </trkpt>
      <trkpt lat="45.84913" lon="4.25151">
        <ele>609.989</ele>
        <time>2018-08-20T07:30:51Z</time>
      </trkpt>
      <trkpt lat="45.84913" lon="4.25151">
        <ele>610.056</ele>
        <time>2018-08-20T07:30:57Z</time>
      </trkpt>
      <trkpt lat="45.84913" lon="4.25151">
        <ele>610.048</ele>
        <time>2018-08-20T07:31:02Z</time>
      </trkpt>
      <trkpt lat="45.84913" lon="4.25151">
        <ele>609.964</ele>
        <time>2018-08-20T07:31:08Z</time>
      </trkpt>
      <trkpt lat="45.84913" lon="4.25151">
        <ele>609.985</ele>
        <time>2018-08-20T07:31:14Z</time>
      </trkpt>
      <trkpt lat="45.84913" lon="4.25151">
        <ele>609.943</ele>
        <time>2018-08-20T07:31:19Z</time>
      </trkpt>
      <trkpt lat="45.84913" lon="4.25151">
        <ele>609.829</ele>
        <time>2018-08-20T07:31:25Z</time>
      </trkpt>
      <trkpt lat="45.84913" lon="4.25151">
        <ele>609.751</ele>
        <time>2018-08-20T07:31:30Z</time>
      </trkpt>
      <trkpt lat="45.84913" lon="4.25151">
        <ele>609.694</ele>
        <time>2018-08-20T07:31:36Z</time>
      </trkpt>
      <trkpt lat="45.84913" lon="4.25151">
        <ele>609.688</ele>
        <time>2018-08-20T07:31:41Z</time>
      </trkpt>
      <trkpt lat="45.84913" lon="4.25151">
        <ele>609.677</ele>
        <time>2018-08-20T07:31:47Z</time>
      </trkpt>
      <trkpt lat="45.84913" lon="4.25151">
        <ele>609.565</ele>
        <time>2018-08-20T07:31:53Z</time>
      </trkpt>
      <trkpt lat="45.84913" lon="4.25151">
        <ele>609.448</ele>
        <time>2018-08-20T07:31:59Z</time>
      </trkpt>
      <trkpt lat="45.84913" lon="4.25151">
        <ele>609.357</ele>
        <time>2018-08-20T07:32:04Z</time>
      </trkpt>
      <trkpt lat="45.84913" lon="4.25151">
        <ele>609.29</ele>
        <time>2018-08-20T07:32:10Z</time>
      </trkpt>
      <trkpt lat="45.84913" lon="4.25151">
        <ele>609.264</ele>
        <time>2018-08-20T07:32:15Z</time>
      </trkpt>
      <trkpt lat="45.84913" lon="4.25151">
        <ele>609.28</ele>
        <time>2018-08-20T07:32:21Z</time>
      </trkpt>
      <trkpt lat="45.84913" lon="4.25151">
        <ele>609.274</ele>
        <time>2018-08-20T07:32:27Z</time>
      </trkpt>
      <trkpt lat="45.84913" lon="4.25151">
        <ele>609.249</ele>
        <time>2018-08-20T07:32:32Z</time>
      </trkpt>
      <trkpt lat="45.84913" lon="4.25151">
        <ele>609.271</ele>
        <time>2018-08-20T07:32:37Z</time>
      </trkpt>
      <trkpt lat="45.84913" lon="4.25151">
        <ele>609.299</ele>
        <time>2018-08-20T07:32:42Z</time>
      </trkpt>
      <trkpt lat="45.84913" lon="4.25151">
        <ele>609.327</ele>
        <time>2018-08-20T07:32:47Z</time>
      </trkpt>
      <trkpt lat="45.84913" lon="4.25151">
        <ele>609.341</ele>
        <time>2018-08-20T07:32:53Z</time>
      </trkpt>
      <trkpt lat="45.84913" lon="4.25151">
        <ele>609.386</ele>
        <time>2018-08-20T07:32:59Z</time>
      </trkpt>
      <trkpt lat="45.84913" lon="4.25151">
        <ele>609.398</ele>
        <time>2018-08-20T07:33:05Z</time>
      </trkpt>
      <trkpt lat="45.84913" lon="4.25151">
        <ele>609.426</ele>
        <time>2018-08-20T07:33:10Z</time>
      </trkpt>
      <trkpt lat="45.84913" lon="4.25151">
        <ele>609.448</ele>
        <time>2018-08-20T07:33:15Z</time>
      </trkpt>
      <trkpt lat="45.84913" lon="4.25151">
        <ele>609.441</ele>
        <time>2018-08-20T07:33:21Z</time>
      </trkpt>
      <trkpt lat="45.84913" lon="4.25151">
        <ele>609.384</ele>
        <time>2018-08-20T07:33:27Z</time>
      </trkpt>
      <trkpt lat="45.84913" lon="4.25151">
        <ele>609.311</ele>
        <time>2018-08-20T07:33:33Z</time>
      </trkpt>
      <trkpt lat="45.84913" lon="4.25151">
        <ele>609.211</ele>
        <time>2018-08-20T07:33:38Z</time>
      </trkpt>
      <trkpt lat="45.84913" lon="4.25151">
        <ele>609.073</ele>
        <time>2018-08-20T07:33:43Z</time>
      </trkpt>
      <trkpt lat="45.84913" lon="4.25151">
        <ele>608.914</ele>
        <time>2018-08-20T07:33:49Z</time>
      </trkpt>
      <trkpt lat="45.84913" lon="4.25151">
        <ele>608.742</ele>
        <time>2018-08-20T07:33:54Z</time>
      </trkpt>
      <trkpt lat="45.84913" lon="4.25151">
        <ele>608.466</ele>
        <time>2018-08-20T07:34:00Z</time>
      </trkpt>
      <trkpt lat="45.84913" lon="4.25151">
        <ele>608.138</ele>
        <time>2018-08-20T07:34:05Z</time>
      </trkpt>
      <trkpt lat="45.84913" lon="4.25151">
        <ele>607.8</ele>
        <time>2018-08-20T07:34:10Z</time>
      </trkpt>
      <trkpt lat="45.84913" lon="4.25151">
        <ele>607.638</ele>
        <time>2018-08-20T07:34:16Z</time>
      </trkpt>
      <trkpt lat="45.84913" lon="4.25151">
        <ele>607.484</ele>
        <time>2018-08-20T07:34:22Z</time>
      </trkpt>
      <trkpt lat="45.84913" lon="4.25151">
        <ele>607.229</ele>
        <time>2018-08-20T07:34:28Z</time>
      </trkpt>
      <trkpt lat="45.84913" lon="4.25151">
        <ele>606.943</ele>
        <time>2018-08-20T07:34:34Z</time>
      </trkpt>
      <trkpt lat="45.84912" lon="4.25153">
        <ele>606.236</ele>
        <time>2018-08-20T07:34:40Z</time>
      </trkpt>
      <trkpt lat="45.84912" lon="4.25153">
        <ele>606.079</ele>
        <time>2018-08-20T07:34:46Z</time>
      </trkpt>
      <trkpt lat="45.84912" lon="4.25153">
        <ele>606.215</ele>
        <time>2018-08-20T07:34:52Z</time>
      </trkpt>
      <trkpt lat="45.84912" lon="4.25153">
        <ele>606.5</ele>
        <time>2018-08-20T07:34:57Z</time>
      </trkpt>
      <trkpt lat="45.84912" lon="4.25153">
        <ele>606.59</ele>
        <time>2018-08-20T07:35:03Z</time>
      </trkpt>
      <trkpt lat="45.84912" lon="4.25153">
        <ele>606.646</ele>
        <time>2018-08-20T07:35:08Z</time>
      </trkpt>
      <trkpt lat="45.84912" lon="4.25153">
        <ele>606.795</ele>
        <time>2018-08-20T07:35:14Z</time>
      </trkpt>
      <trkpt lat="45.84912" lon="4.25153">
        <ele>606.859</ele>
        <time>2018-08-20T07:35:19Z</time>
      </trkpt>
      <trkpt lat="45.84912" lon="4.25153">
        <ele>606.86</ele>
        <time>2018-08-20T07:35:24Z</time>
      </trkpt>
      <trkpt lat="45.84912" lon="4.25153">
        <ele>606.833</ele>
        <time>2018-08-20T07:35:30Z</time>
      </trkpt>
      <trkpt lat="45.84912" lon="4.25153">
        <ele>606.771</ele>
        <time>2018-08-20T07:35:36Z</time>
      </trkpt>
      <trkpt lat="45.84912" lon="4.25153">
        <ele>606.681</ele>
        <time>2018-08-20T07:35:41Z</time>
      </trkpt>
      <trkpt lat="45.84912" lon="4.25153">
        <ele>606.575</ele>
        <time>2018-08-20T07:35:47Z</time>
      </trkpt>
      <trkpt lat="45.84912" lon="4.25153">
        <ele>606.548</ele>
        <time>2018-08-20T07:35:52Z</time>
      </trkpt>
      <trkpt lat="45.84912" lon="4.25153">
        <ele>606.534</ele>
        <time>2018-08-20T07:35:58Z</time>
      </trkpt>
      <trkpt lat="45.84912" lon="4.25153">
        <ele>606.53</ele>
        <time>2018-08-20T07:36:04Z</time>
      </trkpt>
      <trkpt lat="45.84912" lon="4.25153">
        <ele>606.521</ele>
        <time>2018-08-20T07:36:09Z</time>
      </trkpt>
      <trkpt lat="45.84912" lon="4.25153">
        <ele>606.488</ele>
        <time>2018-08-20T07:36:15Z</time>
      </trkpt>
      <trkpt lat="45.84912" lon="4.25153">
        <ele>606.401</ele>
        <time>2018-08-20T07:36:21Z</time>
      </trkpt>
      <trkpt lat="45.84912" lon="4.25154">
        <ele>606.341</ele>
        <time>2018-08-20T07:36:26Z</time>
      </trkpt>
      <trkpt lat="45.8491" lon="4.25154">
        <ele>606.307</ele>
        <time>2018-08-20T07:36:31Z</time>
      </trkpt>
      <trkpt lat="45.84911" lon="4.25155">
        <ele>606.21</ele>
        <time>2018-08-20T07:36:37Z</time>
      </trkpt>
      <trkpt lat="45.84911" lon="4.25155">
        <ele>606.015</ele>
        <time>2018-08-20T07:36:43Z</time>
      </trkpt>
      <trkpt lat="45.84912" lon="4.25155">
        <ele>605.928</ele>
        <time>2018-08-20T07:36:48Z</time>
      </trkpt>
      <trkpt lat="45.84912" lon="4.25155">
        <ele>606.056</ele>
        <time>2018-08-20T07:36:53Z</time>
      </trkpt>
      <trkpt lat="45.84912" lon="4.25155">
        <ele>606.019</ele>
        <time>2018-08-20T07:36:59Z</time>
      </trkpt>
      <trkpt lat="45.84913" lon="4.25156">
        <ele>605.826</ele>
        <time>2018-08-20T07:37:04Z</time>
      </trkpt>
      <trkpt lat="45.84913" lon="4.25158">
        <ele>605.997</ele>
        <time>2018-08-20T07:37:09Z</time>
      </trkpt>
      <trkpt lat="45.84912" lon="4.25166">
        <ele>606.182</ele>
        <time>2018-08-20T07:37:15Z</time>
      </trkpt>
      <trkpt lat="45.84913" lon="4.25172">
        <ele>606.319</ele>
        <time>2018-08-20T07:37:20Z</time>
      </trkpt>
      <trkpt lat="45.84912" lon="4.25176">
        <ele>606.277</ele>
        <time>2018-08-20T07:37:25Z</time>
      </trkpt>
      <trkpt lat="45.8491" lon="4.25181">
        <ele>606.377</ele>
        <time>2018-08-20T07:37:31Z</time>
      </trkpt>
      <trkpt lat="45.84912" lon="4.25187">
        <ele>606.763</ele>
        <time>2018-08-20T07:37:37Z</time>
      </trkpt>
      <trkpt lat="45.84915" lon="4.25195">
        <ele>607.329</ele>
        <time>2018-08-20T07:37:43Z</time>
      </trkpt>
      <trkpt lat="45.84917" lon="4.25204">
        <ele>607.757</ele>
        <time>2018-08-20T07:37:49Z</time>
      </trkpt>
      <trkpt lat="45.84917" lon="4.25207">
        <ele>607.898</ele>
        <time>2018-08-20T07:37:54Z</time>
      </trkpt>
      <trkpt lat="45.8492" lon="4.25212">
        <ele>608.38</ele>
        <time>2018-08-20T07:37:59Z</time>
      </trkpt>
      <trkpt lat="45.84923" lon="4.2522">
        <ele>609.43</ele>
        <time>2018-08-20T07:38:05Z</time>
      </trkpt>
      <trkpt lat="45.84924" lon="4.25226">
        <ele>609.653</ele>
        <time>2018-08-20T07:38:11Z</time>
      </trkpt>
      <trkpt lat="45.84925" lon="4.25236">
        <ele>610.113</ele>
        <time>2018-08-20T07:38:17Z</time>
      </trkpt>
      <trkpt lat="45.84927" lon="4.25242">
        <ele>610.549</ele>
        <time>2018-08-20T07:38:22Z</time>
      </trkpt>
      <trkpt lat="45.8493" lon="4.25247">
        <ele>610.644</ele>
        <time>2018-08-20T07:38:28Z</time>
      </trkpt>
      <trkpt lat="45.84933" lon="4.25253">
        <ele>610.701</ele>
        <time>2018-08-20T07:38:33Z</time>
      </trkpt>
      <trkpt lat="45.84933" lon="4.25256">
        <ele>611.265</ele>
        <time>2018-08-20T07:38:38Z</time>
      </trkpt>
      <trkpt lat="45.84935" lon="4.25264">
        <ele>612.631</ele>
        <time>2018-08-20T07:38:44Z</time>
      </trkpt>
      <trkpt lat="45.84936" lon="4.25274">
        <ele>613.598</ele>
        <time>2018-08-20T07:38:50Z</time>
      </trkpt>
      <trkpt lat="45.84939" lon="4.25283">
        <ele>614.264</ele>
        <time>2018-08-20T07:38:55Z</time>
      </trkpt>
      <trkpt lat="45.84941" lon="4.25289">
        <ele>615.414</ele>
        <time>2018-08-20T07:39:01Z</time>
      </trkpt>
      <trkpt lat="45.84942" lon="4.25292">
        <ele>616.828</ele>
        <time>2018-08-20T07:39:06Z</time>
      </trkpt>
      <trkpt lat="45.84945" lon="4.25295">
        <ele>617.681</ele>
        <time>2018-08-20T07:39:11Z</time>
      </trkpt>
      <trkpt lat="45.84951" lon="4.25302">
        <ele>618.094</ele>
        <time>2018-08-20T07:39:17Z</time>
      </trkpt>
      <trkpt lat="45.84954" lon="4.2531">
        <ele>618.496</ele>
        <time>2018-08-20T07:39:23Z</time>
      </trkpt>
      <trkpt lat="45.84958" lon="4.25319">
        <ele>619.412</ele>
        <time>2018-08-20T07:39:29Z</time>
      </trkpt>
      <trkpt lat="45.8496" lon="4.25324">
        <ele>620.171</ele>
        <time>2018-08-20T07:39:35Z</time>
      </trkpt>
      <trkpt lat="45.84962" lon="4.25332">
        <ele>619.973</ele>
        <time>2018-08-20T07:39:40Z</time>
      </trkpt>
      <trkpt lat="45.84965" lon="4.25339">
        <ele>620.012</ele>
        <time>2018-08-20T07:39:46Z</time>
      </trkpt>
      <trkpt lat="45.84968" lon="4.25346">
        <ele>619.96</ele>
        <time>2018-08-20T07:39:51Z</time>
      </trkpt>
      <trkpt lat="45.84971" lon="4.25354">
        <ele>619.754</ele>
        <time>2018-08-20T07:39:57Z</time>
      </trkpt>
      <trkpt lat="45.84972" lon="4.25357">
        <ele>619.359</ele>
        <time>2018-08-20T07:40:02Z</time>
      </trkpt>
      <trkpt lat="45.84974" lon="4.25364">
        <ele>619.809</ele>
        <time>2018-08-20T07:40:08Z</time>
      </trkpt>
      <trkpt lat="45.84977" lon="4.25372">
        <ele>620.439</ele>
        <time>2018-08-20T07:40:14Z</time>
      </trkpt>
      <trkpt lat="45.84979" lon="4.2538">
        <ele>621.149</ele>
        <time>2018-08-20T07:40:19Z</time>
      </trkpt>
      <trkpt lat="45.84982" lon="4.25387">
        <ele>621.465</ele>
        <time>2018-08-20T07:40:25Z</time>
      </trkpt>
      <trkpt lat="45.84985" lon="4.25395">
        <ele>622.057</ele>
        <time>2018-08-20T07:40:30Z</time>
      </trkpt>
      <trkpt lat="45.84985" lon="4.25406">
        <ele>622.101</ele>
        <time>2018-08-20T07:40:36Z</time>
      </trkpt>
      <trkpt lat="45.84985" lon="4.25416">
        <ele>622.075</ele>
        <time>2018-08-20T07:40:42Z</time>
      </trkpt>
      <trkpt lat="45.84985" lon="4.25424">
        <ele>621.931</ele>
        <time>2018-08-20T07:40:47Z</time>
      </trkpt>
      <trkpt lat="45.84985" lon="4.2543">
        <ele>621.954</ele>
        <time>2018-08-20T07:40:52Z</time>
      </trkpt>
      <trkpt lat="45.84984" lon="4.25438">
        <ele>622.528</ele>
        <time>2018-08-20T07:40:58Z</time>
      </trkpt>
      <trkpt lat="45.84984" lon="4.25442">
        <ele>623.024</ele>
        <time>2018-08-20T07:41:03Z</time>
      </trkpt>
      <trkpt lat="45.84982" lon="4.25453">
        <ele>623.349</ele>
        <time>2018-08-20T07:41:09Z</time>
      </trkpt>
      <trkpt lat="45.84981" lon="4.2546">
        <ele>623.974</ele>
        <time>2018-08-20T07:41:15Z</time>
      </trkpt>
      <trkpt lat="45.84976" lon="4.25472">
        <ele>624.66</ele>
        <time>2018-08-20T07:41:21Z</time>
      </trkpt>
      <trkpt lat="45.84975" lon="4.25478">
        <ele>625.129</ele>
        <time>2018-08-20T07:41:26Z</time>
      </trkpt>
      <trkpt lat="45.84973" lon="4.25484">
        <ele>625.603</ele>
        <time>2018-08-20T07:41:31Z</time>
      </trkpt>
      <trkpt lat="45.84971" lon="4.25494">
        <ele>625.415</ele>
        <time>2018-08-20T07:41:37Z</time>
      </trkpt>
      <trkpt lat="45.84969" lon="4.25499">
        <ele>625.212</ele>
        <time>2018-08-20T07:41:42Z</time>
      </trkpt>
      <trkpt lat="45.84968" lon="4.25506">
        <ele>625.727</ele>
        <time>2018-08-20T07:41:48Z</time>
      </trkpt>
      <trkpt lat="45.84968" lon="4.25513">
        <ele>625.928</ele>
        <time>2018-08-20T07:41:53Z</time>
      </trkpt>
      <trkpt lat="45.84967" lon="4.25522">
        <ele>626.116</ele>
        <time>2018-08-20T07:41:58Z</time>
      </trkpt>
      <trkpt lat="45.84965" lon="4.25529">
        <ele>626.354</ele>
        <time>2018-08-20T07:42:03Z</time>
      </trkpt>
      <trkpt lat="45.84963" lon="4.25537">
        <ele>626.313</ele>
        <time>2018-08-20T07:42:09Z</time>
      </trkpt>
      <trkpt lat="45.84961" lon="4.25543">
        <ele>626.409</ele>
        <time>2018-08-20T07:42:14Z</time>
      </trkpt>
      <trkpt lat="45.84956" lon="4.25556">
        <ele>626.456</ele>
        <time>2018-08-20T07:42:20Z</time>
      </trkpt>
      <trkpt lat="45.84954" lon="4.25564">
        <ele>626.536</ele>
        <time>2018-08-20T07:42:25Z</time>
      </trkpt>
      <trkpt lat="45.84955" lon="4.2557">
        <ele>627.169</ele>
        <time>2018-08-20T07:42:31Z</time>
      </trkpt>
      <trkpt lat="45.84956" lon="4.25577">
        <ele>628.394</ele>
        <time>2018-08-20T07:42:36Z</time>
      </trkpt>
      <trkpt lat="45.84952" lon="4.25589">
        <ele>629.574</ele>
        <time>2018-08-20T07:42:42Z</time>
      </trkpt>
      <trkpt lat="45.84949" lon="4.25594">
        <ele>630.496</ele>
        <time>2018-08-20T07:42:47Z</time>
      </trkpt>
      <trkpt lat="45.84946" lon="4.25596">
        <ele>631.27</ele>
        <time>2018-08-20T07:42:52Z</time>
      </trkpt>
      <trkpt lat="45.84945" lon="4.25601">
        <ele>632.3</ele>
        <time>2018-08-20T07:42:58Z</time>
      </trkpt>
      <trkpt lat="45.84945" lon="4.25608">
        <ele>632.865</ele>
        <time>2018-08-20T07:43:04Z</time>
      </trkpt>
      <trkpt lat="45.84943" lon="4.25619">
        <ele>633.067</ele>
        <time>2018-08-20T07:43:10Z</time>
      </trkpt>
      <trkpt lat="45.84942" lon="4.25627">
        <ele>632.854</ele>
        <time>2018-08-20T07:43:16Z</time>
      </trkpt>
      <trkpt lat="45.8494" lon="4.25634">
        <ele>632.624</ele>
        <time>2018-08-20T07:43:21Z</time>
      </trkpt>
      <trkpt lat="45.84937" lon="4.25643">
        <ele>632.876</ele>
        <time>2018-08-20T07:43:27Z</time>
      </trkpt>
      <trkpt lat="45.84936" lon="4.25649">
        <ele>633.349</ele>
        <time>2018-08-20T07:43:32Z</time>
      </trkpt>
      <trkpt lat="45.84935" lon="4.25658">
        <ele>633.649</ele>
        <time>2018-08-20T07:43:37Z</time>
      </trkpt>
      <trkpt lat="45.84933" lon="4.25667">
        <ele>633.717</ele>
        <time>2018-08-20T07:43:43Z</time>
      </trkpt>
      <trkpt lat="45.8493" lon="4.25677">
        <ele>633.544</ele>
        <time>2018-08-20T07:43:49Z</time>
      </trkpt>
      <trkpt lat="45.84928" lon="4.25685">
        <ele>633.989</ele>
        <time>2018-08-20T07:43:54Z</time>
      </trkpt>
      <trkpt lat="45.84926" lon="4.25693">
        <ele>634.47</ele>
        <time>2018-08-20T07:43:59Z</time>
      </trkpt>
      <trkpt lat="45.84924" lon="4.25703">
        <ele>635.01</ele>
        <time>2018-08-20T07:44:05Z</time>
      </trkpt>
      <trkpt lat="45.84922" lon="4.25713">
        <ele>635.459</ele>
        <time>2018-08-20T07:44:11Z</time>
      </trkpt>
      <trkpt lat="45.8492" lon="4.2572">
        <ele>635.905</ele>
        <time>2018-08-20T07:44:17Z</time>
      </trkpt>
      <trkpt lat="45.84919" lon="4.25726">
        <ele>636.33</ele>
        <time>2018-08-20T07:44:22Z</time>
      </trkpt>
      <trkpt lat="45.84917" lon="4.25733">
        <ele>637.132</ele>
        <time>2018-08-20T07:44:28Z</time>
      </trkpt>
      <trkpt lat="45.84915" lon="4.25747">
        <ele>637.717</ele>
        <time>2018-08-20T07:44:34Z</time>
      </trkpt>
      <trkpt lat="45.84914" lon="4.25756">
        <ele>637.495</ele>
        <time>2018-08-20T07:44:39Z</time>
      </trkpt>
      <trkpt lat="45.84912" lon="4.25763">
        <ele>637.338</ele>
        <time>2018-08-20T07:44:44Z</time>
      </trkpt>
      <trkpt lat="45.8491" lon="4.2577">
        <ele>637.083</ele>
        <time>2018-08-20T07:44:49Z</time>
      </trkpt>
      <trkpt lat="45.84908" lon="4.2578">
        <ele>636.911</ele>
        <time>2018-08-20T07:44:55Z</time>
      </trkpt>
      <trkpt lat="45.84906" lon="4.25787">
        <ele>636.739</ele>
        <time>2018-08-20T07:45:00Z</time>
      </trkpt>
      <trkpt lat="45.84904" lon="4.25798">
        <ele>636.561</ele>
        <time>2018-08-20T07:45:06Z</time>
      </trkpt>
      <trkpt lat="45.84899" lon="4.25809">
        <ele>636.321</ele>
        <time>2018-08-20T07:45:11Z</time>
      </trkpt>
      <trkpt lat="45.84898" lon="4.25814">
        <ele>636.62</ele>
        <time>2018-08-20T07:45:17Z</time>
      </trkpt>
      <trkpt lat="45.84895" lon="4.2582">
        <ele>637.097</ele>
        <time>2018-08-20T07:45:23Z</time>
      </trkpt>
      <trkpt lat="45.84895" lon="4.25824">
        <ele>637.277</ele>
        <time>2018-08-20T07:45:28Z</time>
      </trkpt>
      <trkpt lat="45.84893" lon="4.25829">
        <ele>637.817</ele>
        <time>2018-08-20T07:45:34Z</time>
      </trkpt>
      <trkpt lat="45.84891" lon="4.25835">
        <ele>637.226</ele>
        <time>2018-08-20T07:45:39Z</time>
      </trkpt>
      <trkpt lat="45.8489" lon="4.25845">
        <ele>636.28</ele>
        <time>2018-08-20T07:45:45Z</time>
      </trkpt>
      <trkpt lat="45.84887" lon="4.25854">
        <ele>635.151</ele>
        <time>2018-08-20T07:45:50Z</time>
      </trkpt>
      <trkpt lat="45.84886" lon="4.25862">
        <ele>634.913</ele>
        <time>2018-08-20T07:45:55Z</time>
      </trkpt>
      <trkpt lat="45.84887" lon="4.25867">
        <ele>635.461</ele>
        <time>2018-08-20T07:46:00Z</time>
      </trkpt>
      <trkpt lat="45.84889" lon="4.2587">
        <ele>636.659</ele>
        <time>2018-08-20T07:46:05Z</time>
      </trkpt>
      <trkpt lat="45.84895" lon="4.25868">
        <ele>637.726</ele>
        <time>2018-08-20T07:46:11Z</time>
      </trkpt>
      <trkpt lat="45.849" lon="4.25865">
        <ele>638.12</ele>
        <time>2018-08-20T07:46:17Z</time>
      </trkpt>
      <trkpt lat="45.84905" lon="4.25861">
        <ele>638.243</ele>
        <time>2018-08-20T07:46:23Z</time>
      </trkpt>
      <trkpt lat="45.8491" lon="4.25854">
        <ele>638.908</ele>
        <time>2018-08-20T07:46:28Z</time>
      </trkpt>
      <trkpt lat="45.84913" lon="4.25853">
        <ele>639.635</ele>
        <time>2018-08-20T07:46:34Z</time>
      </trkpt>
      <trkpt lat="45.84921" lon="4.2585">
        <ele>640.317</ele>
        <time>2018-08-20T07:46:40Z</time>
      </trkpt>
      <trkpt lat="45.84925" lon="4.25848">
        <ele>640.605</ele>
        <time>2018-08-20T07:46:45Z</time>
      </trkpt>
      <trkpt lat="45.8493" lon="4.25847">
        <ele>641.124</ele>
        <time>2018-08-20T07:46:50Z</time>
      </trkpt>
      <trkpt lat="45.84932" lon="4.25844">
        <ele>641.638</ele>
        <time>2018-08-20T07:46:56Z</time>
      </trkpt>
      <trkpt lat="45.84936" lon="4.25842">
        <ele>642.012</ele>
        <time>2018-08-20T07:47:01Z</time>
      </trkpt>
      <trkpt lat="45.84944" lon="4.25838">
        <ele>642.684</ele>
        <time>2018-08-20T07:47:07Z</time>
      </trkpt>
      <trkpt lat="45.84951" lon="4.25836">
        <ele>643.28</ele>
        <time>2018-08-20T07:47:13Z</time>
      </trkpt>
      <trkpt lat="45.84958" lon="4.25835">
        <ele>643.981</ele>
        <time>2018-08-20T07:47:18Z</time>
      </trkpt>
      <trkpt lat="45.84966" lon="4.25836">
        <ele>645.101</ele>
        <time>2018-08-20T07:47:24Z</time>
      </trkpt>
      <trkpt lat="45.84971" lon="4.25837">
        <ele>646.1</ele>
        <time>2018-08-20T07:47:30Z</time>
      </trkpt>
      <trkpt lat="45.84975" lon="4.25835">
        <ele>647.303</ele>
        <time>2018-08-20T07:47:36Z</time>
      </trkpt>
      <trkpt lat="45.84979" lon="4.25835">
        <ele>648.315</ele>
        <time>2018-08-20T07:47:42Z</time>
      </trkpt>
      <trkpt lat="45.84985" lon="4.25837">
        <ele>649.323</ele>
        <time>2018-08-20T07:47:47Z</time>
      </trkpt>
      <trkpt lat="45.84991" lon="4.25839">
        <ele>649.847</ele>
        <time>2018-08-20T07:47:53Z</time>
      </trkpt>
      <trkpt lat="45.84997" lon="4.2584">
        <ele>650.44</ele>
        <time>2018-08-20T07:47:59Z</time>
      </trkpt>
      <trkpt lat="45.85002" lon="4.25843">
        <ele>650.942</ele>
        <time>2018-08-20T07:48:05Z</time>
      </trkpt>
      <trkpt lat="45.85001" lon="4.25846">
        <ele>651.19</ele>
        <time>2018-08-20T07:48:11Z</time>
      </trkpt>
      <trkpt lat="45.84998" lon="4.25849">
        <ele>650.999</ele>
        <time>2018-08-20T07:48:16Z</time>
      </trkpt>
      <trkpt lat="45.84998" lon="4.25848">
        <ele>650.006</ele>
        <time>2018-08-20T07:48:22Z</time>
      </trkpt>
      <trkpt lat="45.84999" lon="4.25846">
        <ele>649.57</ele>
        <time>2018-08-20T07:48:28Z</time>
      </trkpt>
      <trkpt lat="45.85001" lon="4.25846">
        <ele>648.857</ele>
        <time>2018-08-20T07:48:33Z</time>
      </trkpt>
      <trkpt lat="45.85005" lon="4.25847">
        <ele>648.001</ele>
        <time>2018-08-20T07:48:39Z</time>
      </trkpt>
      <trkpt lat="45.85005" lon="4.25847">
        <ele>647.921</ele>
        <time>2018-08-20T07:48:44Z</time>
      </trkpt>
      <trkpt lat="45.85005" lon="4.25847">
        <ele>647.746</ele>
        <time>2018-08-20T07:48:50Z</time>
      </trkpt>
      <trkpt lat="45.85005" lon="4.25847">
        <ele>647.63</ele>
        <time>2018-08-20T07:48:55Z</time>
      </trkpt>
      <trkpt lat="45.85005" lon="4.25847">
        <ele>647.542</ele>
        <time>2018-08-20T07:49:00Z</time>
      </trkpt>
      <trkpt lat="45.85005" lon="4.25847">
        <ele>647.545</ele>
        <time>2018-08-20T07:49:06Z</time>
      </trkpt>
      <trkpt lat="45.85005" lon="4.25847">
        <ele>647.628</ele>
        <time>2018-08-20T07:49:11Z</time>
      </trkpt>
      <trkpt lat="45.85005" lon="4.25847">
        <ele>647.736</ele>
        <time>2018-08-20T07:49:17Z</time>
      </trkpt>
      <trkpt lat="45.85005" lon="4.25847">
        <ele>647.765</ele>
        <time>2018-08-20T07:49:23Z</time>
      </trkpt>
      <trkpt lat="45.85005" lon="4.25847">
        <ele>647.833</ele>
        <time>2018-08-20T07:49:28Z</time>
      </trkpt>
      <trkpt lat="45.85005" lon="4.25847">
        <ele>647.875</ele>
        <time>2018-08-20T07:49:33Z</time>
      </trkpt>
      <trkpt lat="45.85005" lon="4.25847">
        <ele>647.917</ele>
        <time>2018-08-20T07:49:39Z</time>
      </trkpt>
      <trkpt lat="45.85006" lon="4.25846">
        <ele>648.095</ele>
        <time>2018-08-20T07:49:45Z</time>
      </trkpt>
      <trkpt lat="45.85011" lon="4.25848">
        <ele>648.151</ele>
        <time>2018-08-20T07:49:51Z</time>
      </trkpt>
      <trkpt lat="45.85017" lon="4.25853">
        <ele>648.182</ele>
        <time>2018-08-20T07:49:56Z</time>
      </trkpt>
      <trkpt lat="45.85022" lon="4.25858">
        <ele>647.965</ele>
        <time>2018-08-20T07:50:01Z</time>
      </trkpt>
      <trkpt lat="45.85027" lon="4.25862">
        <ele>647.686</ele>
        <time>2018-08-20T07:50:07Z</time>
      </trkpt>
      <trkpt lat="45.85032" lon="4.25864">
        <ele>647.62</ele>
        <time>2018-08-20T07:50:12Z</time>
      </trkpt>
      <trkpt lat="45.85037" lon="4.25866">
        <ele>647.738</ele>
        <time>2018-08-20T07:50:18Z</time>
      </trkpt>
      <trkpt lat="45.85042" lon="4.25869">
        <ele>648.053</ele>
        <time>2018-08-20T07:50:23Z</time>
      </trkpt>
      <trkpt lat="45.85047" lon="4.25871">
        <ele>647.872</ele>
        <time>2018-08-20T07:50:29Z</time>
      </trkpt>
      <trkpt lat="45.85051" lon="4.25869">
        <ele>647.578</ele>
        <time>2018-08-20T07:50:34Z</time>
      </trkpt>
      <trkpt lat="45.85056" lon="4.25869">
        <ele>647.581</ele>
        <time>2018-08-20T07:50:39Z</time>
      </trkpt>
      <trkpt lat="45.85063" lon="4.25873">
        <ele>647.586</ele>
        <time>2018-08-20T07:50:45Z</time>
      </trkpt>
      <trkpt lat="45.85071" lon="4.25878">
        <ele>647.273</ele>
        <time>2018-08-20T07:50:50Z</time>
      </trkpt>
      <trkpt lat="45.85079" lon="4.25876">
        <ele>646.5</ele>
        <time>2018-08-20T07:50:56Z</time>
      </trkpt>
      <trkpt lat="45.85086" lon="4.25875">
        <ele>645.877</ele>
        <time>2018-08-20T07:51:01Z</time>
      </trkpt>
      <trkpt lat="45.85093" lon="4.25875">
        <ele>645.853</ele>
        <time>2018-08-20T07:51:06Z</time>
      </trkpt>
      <trkpt lat="45.85097" lon="4.25873">
        <ele>646.128</ele>
        <time>2018-08-20T07:51:12Z</time>
      </trkpt>
      <trkpt lat="45.85109" lon="4.25873">
        <ele>646.579</ele>
        <time>2018-08-20T07:51:17Z</time>
      </trkpt>
      <trkpt lat="45.85113" lon="4.25874">
        <ele>647.393</ele>
        <time>2018-08-20T07:51:23Z</time>
      </trkpt>
      <trkpt lat="45.85121" lon="4.25877">
        <ele>648.07</ele>
        <time>2018-08-20T07:51:28Z</time>
      </trkpt>
      <trkpt lat="45.85127" lon="4.2588">
        <ele>648.694</ele>
        <time>2018-08-20T07:51:34Z</time>
      </trkpt>
      <trkpt lat="45.85131" lon="4.25883">
        <ele>649.096</ele>
        <time>2018-08-20T07:51:39Z</time>
      </trkpt>
      <trkpt lat="45.85139" lon="4.25884">
        <ele>649.45</ele>
        <time>2018-08-20T07:51:45Z</time>
      </trkpt>
      <trkpt lat="45.85145" lon="4.25886">
        <ele>649.942</ele>
        <time>2018-08-20T07:51:50Z</time>
      </trkpt>
      <trkpt lat="45.85153" lon="4.25885">
        <ele>650.029</ele>
        <time>2018-08-20T07:51:56Z</time>
      </trkpt>
      <trkpt lat="45.85159" lon="4.2588">
        <ele>650.436</ele>
        <time>2018-08-20T07:52:02Z</time>
      </trkpt>
      <trkpt lat="45.85165" lon="4.2588">
        <ele>651.077</ele>
        <time>2018-08-20T07:52:07Z</time>
      </trkpt>
      <trkpt lat="45.85171" lon="4.2588">
        <ele>652.196</ele>
        <time>2018-08-20T07:52:13Z</time>
      </trkpt>
      <trkpt lat="45.85179" lon="4.25884">
        <ele>652.883</ele>
        <time>2018-08-20T07:52:19Z</time>
      </trkpt>
      <trkpt lat="45.85187" lon="4.25887">
        <ele>653.187</ele>
        <time>2018-08-20T07:52:25Z</time>
      </trkpt>
      <trkpt lat="45.85193" lon="4.25886">
        <ele>653.791</ele>
        <time>2018-08-20T07:52:31Z</time>
      </trkpt>
      <trkpt lat="45.85202" lon="4.25889">
        <ele>653.75</ele>
        <time>2018-08-20T07:52:37Z</time>
      </trkpt>
      <trkpt lat="45.85209" lon="4.25893">
        <ele>654.016</ele>
        <time>2018-08-20T07:52:43Z</time>
      </trkpt>
      <trkpt lat="45.85217" lon="4.25893">
        <ele>654.363</ele>
        <time>2018-08-20T07:52:49Z</time>
      </trkpt>
      <trkpt lat="45.85223" lon="4.25896">
        <ele>654.295</ele>
        <time>2018-08-20T07:52:54Z</time>
      </trkpt>
      <trkpt lat="45.85232" lon="4.25899">
        <ele>654.191</ele>
        <time>2018-08-20T07:53:00Z</time>
      </trkpt>
      <trkpt lat="45.85239" lon="4.25901">
        <ele>654.202</ele>
        <time>2018-08-20T07:53:05Z</time>
      </trkpt>
      <trkpt lat="45.85248" lon="4.25902">
        <ele>654.087</ele>
        <time>2018-08-20T07:53:11Z</time>
      </trkpt>
      <trkpt lat="45.85255" lon="4.25909">
        <ele>653.274</ele>
        <time>2018-08-20T07:53:17Z</time>
      </trkpt>
      <trkpt lat="45.85262" lon="4.25911">
        <ele>653.068</ele>
        <time>2018-08-20T07:53:23Z</time>
      </trkpt>
      <trkpt lat="45.85271" lon="4.25916">
        <ele>652.171</ele>
        <time>2018-08-20T07:53:29Z</time>
      </trkpt>
      <trkpt lat="45.85279" lon="4.25919">
        <ele>651.747</ele>
        <time>2018-08-20T07:53:34Z</time>
      </trkpt>
      <trkpt lat="45.85285" lon="4.25923">
        <ele>650.954</ele>
        <time>2018-08-20T07:53:39Z</time>
      </trkpt>
      <trkpt lat="45.8529" lon="4.25924">
        <ele>649.833</ele>
        <time>2018-08-20T07:53:45Z</time>
      </trkpt>
      <trkpt lat="45.85297" lon="4.25924">
        <ele>648.868</ele>
        <time>2018-08-20T07:53:50Z</time>
      </trkpt>
      <trkpt lat="45.85305" lon="4.25926">
        <ele>647.976</ele>
        <time>2018-08-20T07:53:56Z</time>
      </trkpt>
      <trkpt lat="45.85317" lon="4.25929">
        <ele>646.629</ele>
        <time>2018-08-20T07:54:03Z</time>
      </trkpt>
      <trkpt lat="45.85323" lon="4.25928">
        <ele>646.298</ele>
        <time>2018-08-20T07:54:09Z</time>
      </trkpt>
      <trkpt lat="45.85329" lon="4.25929">
        <ele>646.537</ele>
        <time>2018-08-20T07:54:14Z</time>
      </trkpt>
      <trkpt lat="45.85334" lon="4.2593">
        <ele>646.522</ele>
        <time>2018-08-20T07:54:19Z</time>
      </trkpt>
      <trkpt lat="45.85341" lon="4.25929">
        <ele>646.245</ele>
        <time>2018-08-20T07:54:24Z</time>
      </trkpt>
      <trkpt lat="45.85345" lon="4.25926">
        <ele>646.22</ele>
        <time>2018-08-20T07:54:29Z</time>
      </trkpt>
      <trkpt lat="45.85353" lon="4.2592">
        <ele>645.82</ele>
        <time>2018-08-20T07:54:35Z</time>
      </trkpt>
      <trkpt lat="45.85358" lon="4.25919">
        <ele>645.636</ele>
        <time>2018-08-20T07:54:41Z</time>
      </trkpt>
      <trkpt lat="45.85358" lon="4.25919">
        <ele>645.621</ele>
        <time>2018-08-20T07:54:46Z</time>
      </trkpt>
      <trkpt lat="45.85358" lon="4.25919">
        <ele>645.666</ele>
        <time>2018-08-20T07:54:52Z</time>
      </trkpt>
      <trkpt lat="45.85359" lon="4.2592">
        <ele>646.015</ele>
        <time>2018-08-20T07:54:57Z</time>
      </trkpt>
      <trkpt lat="45.85359" lon="4.25921">
        <ele>646.504</ele>
        <time>2018-08-20T07:55:03Z</time>
      </trkpt>
      <trkpt lat="45.85359" lon="4.25921">
        <ele>646.598</ele>
        <time>2018-08-20T07:55:08Z</time>
      </trkpt>
      <trkpt lat="45.85359" lon="4.25921">
        <ele>646.621</ele>
        <time>2018-08-20T07:55:14Z</time>
      </trkpt>
      <trkpt lat="45.85359" lon="4.25921">
        <ele>646.724</ele>
        <time>2018-08-20T07:55:20Z</time>
      </trkpt>
      <trkpt lat="45.85359" lon="4.25921">
        <ele>646.817</ele>
        <time>2018-08-20T07:55:25Z</time>
      </trkpt>
      <trkpt lat="45.8536" lon="4.25918">
        <ele>646.737</ele>
        <time>2018-08-20T07:55:31Z</time>
      </trkpt>
      <trkpt lat="45.85361" lon="4.25918">
        <ele>645.701</ele>
        <time>2018-08-20T07:55:36Z</time>
      </trkpt>
      <trkpt lat="45.85361" lon="4.25925">
        <ele>645.472</ele>
        <time>2018-08-20T07:55:42Z</time>
      </trkpt>
      <trkpt lat="45.85365" lon="4.25935">
        <ele>644.863</ele>
        <time>2018-08-20T07:55:48Z</time>
      </trkpt>
      <trkpt lat="45.85369" lon="4.25951">
        <ele>643.995</ele>
        <time>2018-08-20T07:55:53Z</time>
      </trkpt>
      <trkpt lat="45.85371" lon="4.25957">
        <ele>642.944</ele>
        <time>2018-08-20T07:55:59Z</time>
      </trkpt>
      <trkpt lat="45.85374" lon="4.25968">
        <ele>642.128</ele>
        <time>2018-08-20T07:56:05Z</time>
      </trkpt>
      <trkpt lat="45.85376" lon="4.25976">
        <ele>641.45</ele>
        <time>2018-08-20T07:56:10Z</time>
      </trkpt>
      <trkpt lat="45.85378" lon="4.25994">
        <ele>640.935</ele>
        <time>2018-08-20T07:56:16Z</time>
      </trkpt>
      <trkpt lat="45.85379" lon="4.26">
        <ele>640.617</ele>
        <time>2018-08-20T07:56:21Z</time>
      </trkpt>
      <trkpt lat="45.85379" lon="4.2601">
        <ele>640.439</ele>
        <time>2018-08-20T07:56:27Z</time>
      </trkpt>
      <trkpt lat="45.8538" lon="4.2602">
        <ele>640.504</ele>
        <time>2018-08-20T07:56:32Z</time>
      </trkpt>
      <trkpt lat="45.8538" lon="4.26035">
        <ele>640.941</ele>
        <time>2018-08-20T07:56:38Z</time>
      </trkpt>
      <trkpt lat="45.8538" lon="4.26046">
        <ele>641.23</ele>
        <time>2018-08-20T07:56:44Z</time>
      </trkpt>
      <trkpt lat="45.85379" lon="4.26059">
        <ele>641.415</ele>
        <time>2018-08-20T07:56:50Z</time>
      </trkpt>
      <trkpt lat="45.85379" lon="4.26071">
        <ele>641.615</ele>
        <time>2018-08-20T07:56:56Z</time>
      </trkpt>
      <trkpt lat="45.85378" lon="4.26081">
        <ele>642.072</ele>
        <time>2018-08-20T07:57:02Z</time>
      </trkpt>
      <trkpt lat="45.85377" lon="4.2609">
        <ele>642.596</ele>
        <time>2018-08-20T07:57:07Z</time>
      </trkpt>
      <trkpt lat="45.85377" lon="4.26098">
        <ele>643.645</ele>
        <time>2018-08-20T07:57:13Z</time>
      </trkpt>
      <trkpt lat="45.85376" lon="4.26107">
        <ele>644.677</ele>
        <time>2018-08-20T07:57:18Z</time>
      </trkpt>
      <trkpt lat="45.85376" lon="4.26117">
        <ele>646.246</ele>
        <time>2018-08-20T07:57:24Z</time>
      </trkpt>
      <trkpt lat="45.85374" lon="4.26127">
        <ele>647.287</ele>
        <time>2018-08-20T07:57:29Z</time>
      </trkpt>
      <trkpt lat="45.85371" lon="4.26137">
        <ele>648.326</ele>
        <time>2018-08-20T07:57:35Z</time>
      </trkpt>
      <trkpt lat="45.85367" lon="4.26143">
        <ele>648.511</ele>
        <time>2018-08-20T07:57:40Z</time>
      </trkpt>
      <trkpt lat="45.85364" lon="4.26151">
        <ele>648.169</ele>
        <time>2018-08-20T07:57:45Z</time>
      </trkpt>
      <trkpt lat="45.8536" lon="4.26165">
        <ele>647.286</ele>
        <time>2018-08-20T07:57:51Z</time>
      </trkpt>
      <trkpt lat="45.85357" lon="4.26177">
        <ele>646.868</ele>
        <time>2018-08-20T07:57:56Z</time>
      </trkpt>
      <trkpt lat="45.85357" lon="4.26184">
        <ele>646.515</ele>
        <time>2018-08-20T07:58:02Z</time>
      </trkpt>
      <trkpt lat="45.85355" lon="4.2619">
        <ele>646.305</ele>
        <time>2018-08-20T07:58:08Z</time>
      </trkpt>
      <trkpt lat="45.85355" lon="4.26194">
        <ele>646.261</ele>
        <time>2018-08-20T07:58:13Z</time>
      </trkpt>
      <trkpt lat="45.85353" lon="4.26201">
        <ele>646.068</ele>
        <time>2018-08-20T07:58:19Z</time>
      </trkpt>
      <trkpt lat="45.85351" lon="4.26219">
        <ele>645.865</ele>
        <time>2018-08-20T07:58:24Z</time>
      </trkpt>
      <trkpt lat="45.8535" lon="4.26232">
        <ele>646.415</ele>
        <time>2018-08-20T07:58:30Z</time>
      </trkpt>
      <trkpt lat="45.85348" lon="4.26241">
        <ele>646.772</ele>
        <time>2018-08-20T07:58:35Z</time>
      </trkpt>
      <trkpt lat="45.85346" lon="4.2625">
        <ele>647.865</ele>
        <time>2018-08-20T07:58:41Z</time>
      </trkpt>
      <trkpt lat="45.85341" lon="4.2626">
        <ele>648.936</ele>
        <time>2018-08-20T07:58:47Z</time>
      </trkpt>
      <trkpt lat="45.85338" lon="4.26275">
        <ele>650.362</ele>
        <time>2018-08-20T07:58:53Z</time>
      </trkpt>
      <trkpt lat="45.85334" lon="4.26284">
        <ele>650.685</ele>
        <time>2018-08-20T07:58:58Z</time>
      </trkpt>
      <trkpt lat="45.8533" lon="4.2629">
        <ele>650.943</ele>
        <time>2018-08-20T07:59:03Z</time>
      </trkpt>
      <trkpt lat="45.85325" lon="4.26295">
        <ele>651.219</ele>
        <time>2018-08-20T07:59:08Z</time>
      </trkpt>
      <trkpt lat="45.85321" lon="4.26303">
        <ele>650.907</ele>
        <time>2018-08-20T07:59:14Z</time>
      </trkpt>
      <trkpt lat="45.85318" lon="4.26309">
        <ele>650.707</ele>
        <time>2018-08-20T07:59:19Z</time>
      </trkpt>
      <trkpt lat="45.85313" lon="4.26316">
        <ele>650.165</ele>
        <time>2018-08-20T07:59:25Z</time>
      </trkpt>
      <trkpt lat="45.85311" lon="4.26327">
        <ele>649.47</ele>
        <time>2018-08-20T07:59:31Z</time>
      </trkpt>
      <trkpt lat="45.85309" lon="4.26337">
        <ele>648.752</ele>
        <time>2018-08-20T07:59:37Z</time>
      </trkpt>
      <trkpt lat="45.85308" lon="4.26351">
        <ele>648.175</ele>
        <time>2018-08-20T07:59:43Z</time>
      </trkpt>
      <trkpt lat="45.85309" lon="4.26357">
        <ele>647.804</ele>
        <time>2018-08-20T07:59:48Z</time>
      </trkpt>
      <trkpt lat="45.8531" lon="4.26364">
        <ele>648.073</ele>
        <time>2018-08-20T07:59:53Z</time>
      </trkpt>
      <trkpt lat="45.85312" lon="4.26375">
        <ele>649.005</ele>
        <time>2018-08-20T07:59:59Z</time>
      </trkpt>
      <trkpt lat="45.85313" lon="4.26385">
        <ele>650.45</ele>
        <time>2018-08-20T08:00:05Z</time>
      </trkpt>
      <trkpt lat="45.85317" lon="4.26397">
        <ele>651.916</ele>
        <time>2018-08-20T08:00:11Z</time>
      </trkpt>
      <trkpt lat="45.85321" lon="4.2641">
        <ele>653.354</ele>
        <time>2018-08-20T08:00:16Z</time>
      </trkpt>
      <trkpt lat="45.85323" lon="4.26418">
        <ele>654.628</ele>
        <time>2018-08-20T08:00:21Z</time>
      </trkpt>
      <trkpt lat="45.85327" lon="4.26425">
        <ele>656.415</ele>
        <time>2018-08-20T08:00:27Z</time>
      </trkpt>
      <trkpt lat="45.85328" lon="4.26433">
        <ele>657.34</ele>
        <time>2018-08-20T08:00:33Z</time>
      </trkpt>
      <trkpt lat="45.8533" lon="4.26447">
        <ele>657.819</ele>
        <time>2018-08-20T08:00:39Z</time>
      </trkpt>
      <trkpt lat="45.8533" lon="4.26462">
        <ele>658.259</ele>
        <time>2018-08-20T08:00:45Z</time>
      </trkpt>
      <trkpt lat="45.85328" lon="4.26475">
        <ele>659.256</ele>
        <time>2018-08-20T08:00:51Z</time>
      </trkpt>
      <trkpt lat="45.8533" lon="4.26484">
        <ele>660.622</ele>
        <time>2018-08-20T08:00:56Z</time>
      </trkpt>
      <trkpt lat="45.85328" lon="4.26498">
        <ele>662.145</ele>
        <time>2018-08-20T08:01:02Z</time>
      </trkpt>
      <trkpt lat="45.85327" lon="4.26505">
        <ele>663.026</ele>
        <time>2018-08-20T08:01:07Z</time>
      </trkpt>
      <trkpt lat="45.85327" lon="4.26515">
        <ele>663.938</ele>
        <time>2018-08-20T08:01:13Z</time>
      </trkpt>
      <trkpt lat="45.85327" lon="4.26525">
        <ele>664.856</ele>
        <time>2018-08-20T08:01:19Z</time>
      </trkpt>
      <trkpt lat="45.85325" lon="4.26537">
        <ele>665.81</ele>
        <time>2018-08-20T08:01:25Z</time>
      </trkpt>
      <trkpt lat="45.85325" lon="4.26548">
        <ele>666.352</ele>
        <time>2018-08-20T08:01:31Z</time>
      </trkpt>
      <trkpt lat="45.85323" lon="4.26561">
        <ele>667.074</ele>
        <time>2018-08-20T08:01:37Z</time>
      </trkpt>
      <trkpt lat="45.85324" lon="4.2657">
        <ele>667.781</ele>
        <time>2018-08-20T08:01:42Z</time>
      </trkpt>
      <trkpt lat="45.85323" lon="4.26581">
        <ele>668.558</ele>
        <time>2018-08-20T08:01:48Z</time>
      </trkpt>
      <trkpt lat="45.85323" lon="4.2659">
        <ele>669.106</ele>
        <time>2018-08-20T08:01:53Z</time>
      </trkpt>
      <trkpt lat="45.85321" lon="4.26601">
        <ele>670.349</ele>
        <time>2018-08-20T08:01:59Z</time>
      </trkpt>
      <trkpt lat="45.8532" lon="4.26611">
        <ele>671.012</ele>
        <time>2018-08-20T08:02:04Z</time>
      </trkpt>
      <trkpt lat="45.85318" lon="4.26621">
        <ele>671.835</ele>
        <time>2018-08-20T08:02:09Z</time>
      </trkpt>
      <trkpt lat="45.85318" lon="4.2663">
        <ele>672.569</ele>
        <time>2018-08-20T08:02:15Z</time>
      </trkpt>
      <trkpt lat="45.85318" lon="4.26642">
        <ele>673.401</ele>
        <time>2018-08-20T08:02:21Z</time>
      </trkpt>
      <trkpt lat="45.85318" lon="4.26652">
        <ele>673.919</ele>
        <time>2018-08-20T08:02:26Z</time>
      </trkpt>
      <trkpt lat="45.85318" lon="4.26662">
        <ele>674.595</ele>
        <time>2018-08-20T08:02:32Z</time>
      </trkpt>
      <trkpt lat="45.85315" lon="4.26674">
        <ele>675.192</ele>
        <time>2018-08-20T08:02:38Z</time>
      </trkpt>
      <trkpt lat="45.8531" lon="4.26684">
        <ele>675.825</ele>
        <time>2018-08-20T08:02:44Z</time>
      </trkpt>
      <trkpt lat="45.85306" lon="4.26692">
        <ele>676.252</ele>
        <time>2018-08-20T08:02:49Z</time>
      </trkpt>
      <trkpt lat="45.85299" lon="4.26696">
        <ele>676.836</ele>
        <time>2018-08-20T08:02:55Z</time>
      </trkpt>
      <trkpt lat="45.85294" lon="4.26702">
        <ele>677.453</ele>
        <time>2018-08-20T08:03:00Z</time>
      </trkpt>
      <trkpt lat="45.85288" lon="4.26709">
        <ele>678.32</ele>
        <time>2018-08-20T08:03:06Z</time>
      </trkpt>
      <trkpt lat="45.85283" lon="4.26715">
        <ele>678.79</ele>
        <time>2018-08-20T08:03:11Z</time>
      </trkpt>
      <trkpt lat="45.85277" lon="4.26721">
        <ele>679.253</ele>
        <time>2018-08-20T08:03:17Z</time>
      </trkpt>
      <trkpt lat="45.85272" lon="4.26728">
        <ele>679.632</ele>
        <time>2018-08-20T08:03:23Z</time>
      </trkpt>
      <trkpt lat="45.85267" lon="4.26736">
        <ele>680.156</ele>
        <time>2018-08-20T08:03:29Z</time>
      </trkpt>
      <trkpt lat="45.85262" lon="4.26742">
        <ele>680.719</ele>
        <time>2018-08-20T08:03:34Z</time>
      </trkpt>
      <trkpt lat="45.85257" lon="4.26749">
        <ele>681.386</ele>
        <time>2018-08-20T08:03:40Z</time>
      </trkpt>
      <trkpt lat="45.85251" lon="4.26756">
        <ele>682.245</ele>
        <time>2018-08-20T08:03:46Z</time>
      </trkpt>
      <trkpt lat="45.85246" lon="4.26763">
        <ele>683.209</ele>
        <time>2018-08-20T08:03:52Z</time>
      </trkpt>
      <trkpt lat="45.8524" lon="4.26768">
        <ele>683.835</ele>
        <time>2018-08-20T08:03:57Z</time>
      </trkpt>
      <trkpt lat="45.85235" lon="4.26778">
        <ele>684.56</ele>
        <time>2018-08-20T08:04:03Z</time>
      </trkpt>
      <trkpt lat="45.8523" lon="4.26785">
        <ele>685.217</ele>
        <time>2018-08-20T08:04:08Z</time>
      </trkpt>
      <trkpt lat="45.85225" lon="4.26793">
        <ele>685.987</ele>
        <time>2018-08-20T08:04:14Z</time>
      </trkpt>
      <trkpt lat="45.85219" lon="4.268">
        <ele>686.67</ele>
        <time>2018-08-20T08:04:20Z</time>
      </trkpt>
      <trkpt lat="45.85214" lon="4.26808">
        <ele>687.374</ele>
        <time>2018-08-20T08:04:26Z</time>
      </trkpt>
      <trkpt lat="45.85208" lon="4.26818">
        <ele>688.325</ele>
        <time>2018-08-20T08:04:32Z</time>
      </trkpt>
      <trkpt lat="45.85204" lon="4.26824">
        <ele>689.086</ele>
        <time>2018-08-20T08:04:38Z</time>
      </trkpt>
      <trkpt lat="45.85198" lon="4.26833">
        <ele>689.611</ele>
        <time>2018-08-20T08:04:44Z</time>
      </trkpt>
      <trkpt lat="45.85193" lon="4.2684">
        <ele>690.112</ele>
        <time>2018-08-20T08:04:49Z</time>
      </trkpt>
      <trkpt lat="45.85187" lon="4.26847">
        <ele>690.688</ele>
        <time>2018-08-20T08:04:55Z</time>
      </trkpt>
      <trkpt lat="45.85183" lon="4.26854">
        <ele>691.153</ele>
        <time>2018-08-20T08:05:01Z</time>
      </trkpt>
      <trkpt lat="45.85176" lon="4.26861">
        <ele>692.013</ele>
        <time>2018-08-20T08:05:07Z</time>
      </trkpt>
      <trkpt lat="45.8517" lon="4.26868">
        <ele>692.988</ele>
        <time>2018-08-20T08:05:12Z</time>
      </trkpt>
      <trkpt lat="45.85165" lon="4.26877">
        <ele>694.008</ele>
        <time>2018-08-20T08:05:18Z</time>
      </trkpt>
      <trkpt lat="45.8516" lon="4.26887">
        <ele>694.516</ele>
        <time>2018-08-20T08:05:24Z</time>
      </trkpt>
      <trkpt lat="45.85154" lon="4.26893">
        <ele>695.126</ele>
        <time>2018-08-20T08:05:29Z</time>
      </trkpt>
      <trkpt lat="45.85149" lon="4.269">
        <ele>695.902</ele>
        <time>2018-08-20T08:05:35Z</time>
      </trkpt>
      <trkpt lat="45.85145" lon="4.26911">
        <ele>696.167</ele>
        <time>2018-08-20T08:05:41Z</time>
      </trkpt>
      <trkpt lat="45.85142" lon="4.26918">
        <ele>696.16</ele>
        <time>2018-08-20T08:05:46Z</time>
      </trkpt>
      <trkpt lat="45.85138" lon="4.26928">
        <ele>696.434</ele>
        <time>2018-08-20T08:05:52Z</time>
      </trkpt>
      <trkpt lat="45.85133" lon="4.26937">
        <ele>696.697</ele>
        <time>2018-08-20T08:05:58Z</time>
      </trkpt>
      <trkpt lat="45.85129" lon="4.26946">
        <ele>697.136</ele>
        <time>2018-08-20T08:06:03Z</time>
      </trkpt>
      <trkpt lat="45.85126" lon="4.26954">
        <ele>697.422</ele>
        <time>2018-08-20T08:06:08Z</time>
      </trkpt>
      <trkpt lat="45.85122" lon="4.26966">
        <ele>697.854</ele>
        <time>2018-08-20T08:06:14Z</time>
      </trkpt>
      <trkpt lat="45.85119" lon="4.26972">
        <ele>698.164</ele>
        <time>2018-08-20T08:06:19Z</time>
      </trkpt>
      <trkpt lat="45.85116" lon="4.26983">
        <ele>698.8</ele>
        <time>2018-08-20T08:06:25Z</time>
      </trkpt>
      <trkpt lat="45.85113" lon="4.26993">
        <ele>699.133</ele>
        <time>2018-08-20T08:06:31Z</time>
      </trkpt>
      <trkpt lat="45.85109" lon="4.27003">
        <ele>699.408</ele>
        <time>2018-08-20T08:06:37Z</time>
      </trkpt>
      <trkpt lat="45.85105" lon="4.27014">
        <ele>699.751</ele>
        <time>2018-08-20T08:06:43Z</time>
      </trkpt>
      <trkpt lat="45.85101" lon="4.27022">
        <ele>700.671</ele>
        <time>2018-08-20T08:06:49Z</time>
      </trkpt>
      <trkpt lat="45.85096" lon="4.27031">
        <ele>701.216</ele>
        <time>2018-08-20T08:06:55Z</time>
      </trkpt>
      <trkpt lat="45.8509" lon="4.27034">
        <ele>701.561</ele>
        <time>2018-08-20T08:07:01Z</time>
      </trkpt>
      <trkpt lat="45.85083" lon="4.27041">
        <ele>702.057</ele>
        <time>2018-08-20T08:07:07Z</time>
      </trkpt>
      <trkpt lat="45.85077" lon="4.27047">
        <ele>702.606</ele>
        <time>2018-08-20T08:07:12Z</time>
      </trkpt>
      <trkpt lat="45.85074" lon="4.27054">
        <ele>702.898</ele>
        <time>2018-08-20T08:07:17Z</time>
      </trkpt>
      <trkpt lat="45.85072" lon="4.27059">
        <ele>703.441</ele>
        <time>2018-08-20T08:07:23Z</time>
      </trkpt>
      <trkpt lat="45.8507" lon="4.27065">
        <ele>703.588</ele>
        <time>2018-08-20T08:07:28Z</time>
      </trkpt>
      <trkpt lat="45.85067" lon="4.27067">
        <ele>703.909</ele>
        <time>2018-08-20T08:07:34Z</time>
      </trkpt>
      <trkpt lat="45.85063" lon="4.27072">
        <ele>704.295</ele>
        <time>2018-08-20T08:07:40Z</time>
      </trkpt>
      <trkpt lat="45.85061" lon="4.2708">
        <ele>704.442</ele>
        <time>2018-08-20T08:07:45Z</time>
      </trkpt>
      <trkpt lat="45.8506" lon="4.27093">
        <ele>704.879</ele>
        <time>2018-08-20T08:07:50Z</time>
      </trkpt>
      <trkpt lat="45.85059" lon="4.27105">
        <ele>705.41</ele>
        <time>2018-08-20T08:07:55Z</time>
      </trkpt>
      <trkpt lat="45.85058" lon="4.27119">
        <ele>705.834</ele>
        <time>2018-08-20T08:08:01Z</time>
      </trkpt>
      <trkpt lat="45.85058" lon="4.2713">
        <ele>706.083</ele>
        <time>2018-08-20T08:08:06Z</time>
      </trkpt>
      <trkpt lat="45.85056" lon="4.27142">
        <ele>706.89</ele>
        <time>2018-08-20T08:08:12Z</time>
      </trkpt>
      <trkpt lat="45.85054" lon="4.27152">
        <ele>707.427</ele>
        <time>2018-08-20T08:08:17Z</time>
      </trkpt>
      <trkpt lat="45.85052" lon="4.27164">
        <ele>708.184</ele>
        <time>2018-08-20T08:08:23Z</time>
      </trkpt>
      <trkpt lat="45.8505" lon="4.27176">
        <ele>708.754</ele>
        <time>2018-08-20T08:08:29Z</time>
      </trkpt>
      <trkpt lat="45.85049" lon="4.27188">
        <ele>709.309</ele>
        <time>2018-08-20T08:08:35Z</time>
      </trkpt>
      <trkpt lat="45.85047" lon="4.27197">
        <ele>709.583</ele>
        <time>2018-08-20T08:08:41Z</time>
      </trkpt>
      <trkpt lat="45.85043" lon="4.27211">
        <ele>710.125</ele>
        <time>2018-08-20T08:08:47Z</time>
      </trkpt>
      <trkpt lat="45.85039" lon="4.27222">
        <ele>710.581</ele>
        <time>2018-08-20T08:08:53Z</time>
      </trkpt>
      <trkpt lat="45.85034" lon="4.27228">
        <ele>711.187</ele>
        <time>2018-08-20T08:08:58Z</time>
      </trkpt>
      <trkpt lat="45.85029" lon="4.27239">
        <ele>711.719</ele>
        <time>2018-08-20T08:09:04Z</time>
      </trkpt>
      <trkpt lat="45.85026" lon="4.27245">
        <ele>711.894</ele>
        <time>2018-08-20T08:09:09Z</time>
      </trkpt>
      <trkpt lat="45.85022" lon="4.27255">
        <ele>711.881</ele>
        <time>2018-08-20T08:09:14Z</time>
      </trkpt>
      <trkpt lat="45.85018" lon="4.27264">
        <ele>712.025</ele>
        <time>2018-08-20T08:09:20Z</time>
      </trkpt>
      <trkpt lat="45.85013" lon="4.27276">
        <ele>712.001</ele>
        <time>2018-08-20T08:09:26Z</time>
      </trkpt>
      <trkpt lat="45.85011" lon="4.27283">
        <ele>711.781</ele>
        <time>2018-08-20T08:09:32Z</time>
      </trkpt>
      <trkpt lat="45.85009" lon="4.27295">
        <ele>711.675</ele>
        <time>2018-08-20T08:09:38Z</time>
      </trkpt>
      <trkpt lat="45.85005" lon="4.27306">
        <ele>711.623</ele>
        <time>2018-08-20T08:09:43Z</time>
      </trkpt>
      <trkpt lat="45.85002" lon="4.27319">
        <ele>711.781</ele>
        <time>2018-08-20T08:09:49Z</time>
      </trkpt>
      <trkpt lat="45.85001" lon="4.27331">
        <ele>712.038</ele>
        <time>2018-08-20T08:09:55Z</time>
      </trkpt>
      <trkpt lat="45.84999" lon="4.27341">
        <ele>712.247</ele>
        <time>2018-08-20T08:10:01Z</time>
      </trkpt>
      <trkpt lat="45.84996" lon="4.2735">
        <ele>712.857</ele>
        <time>2018-08-20T08:10:07Z</time>
      </trkpt>
      <trkpt lat="45.84995" lon="4.27362">
        <ele>713.454</ele>
        <time>2018-08-20T08:10:13Z</time>
      </trkpt>
      <trkpt lat="45.84994" lon="4.27371">
        <ele>714.022</ele>
        <time>2018-08-20T08:10:18Z</time>
      </trkpt>
      <trkpt lat="45.84992" lon="4.27384">
        <ele>714.602</ele>
        <time>2018-08-20T08:10:24Z</time>
      </trkpt>
      <trkpt lat="45.84991" lon="4.27394">
        <ele>715.229</ele>
        <time>2018-08-20T08:10:29Z</time>
      </trkpt>
      <trkpt lat="45.84991" lon="4.27406">
        <ele>716.063</ele>
        <time>2018-08-20T08:10:35Z</time>
      </trkpt>
      <trkpt lat="45.84988" lon="4.27418">
        <ele>716.744</ele>
        <time>2018-08-20T08:10:41Z</time>
      </trkpt>
      <trkpt lat="45.84984" lon="4.27428">
        <ele>717.517</ele>
        <time>2018-08-20T08:10:47Z</time>
      </trkpt>
      <trkpt lat="45.8498" lon="4.27437">
        <ele>718.218</ele>
        <time>2018-08-20T08:10:52Z</time>
      </trkpt>
      <trkpt lat="45.84975" lon="4.27445">
        <ele>718.701</ele>
        <time>2018-08-20T08:10:58Z</time>
      </trkpt>
      <trkpt lat="45.84969" lon="4.27455">
        <ele>719.545</ele>
        <time>2018-08-20T08:11:04Z</time>
      </trkpt>
      <trkpt lat="45.84963" lon="4.27462">
        <ele>720.093</ele>
        <time>2018-08-20T08:11:10Z</time>
      </trkpt>
      <trkpt lat="45.84956" lon="4.27469">
        <ele>720.647</ele>
        <time>2018-08-20T08:11:16Z</time>
      </trkpt>
      <trkpt lat="45.84951" lon="4.27474">
        <ele>721.066</ele>
        <time>2018-08-20T08:11:21Z</time>
      </trkpt>
      <trkpt lat="45.84945" lon="4.27483">
        <ele>721.887</ele>
        <time>2018-08-20T08:11:27Z</time>
      </trkpt>
      <trkpt lat="45.8494" lon="4.27488">
        <ele>722.437</ele>
        <time>2018-08-20T08:11:32Z</time>
      </trkpt>
      <trkpt lat="45.84934" lon="4.27496">
        <ele>722.979</ele>
        <time>2018-08-20T08:11:38Z</time>
      </trkpt>
      <trkpt lat="45.84928" lon="4.275">
        <ele>723.255</ele>
        <time>2018-08-20T08:11:43Z</time>
      </trkpt>
      <trkpt lat="45.84923" lon="4.27505">
        <ele>723.617</ele>
        <time>2018-08-20T08:11:48Z</time>
      </trkpt>
      <trkpt lat="45.84915" lon="4.27507">
        <ele>723.91</ele>
        <time>2018-08-20T08:11:54Z</time>
      </trkpt>
      <trkpt lat="45.84908" lon="4.27512">
        <ele>724.103</ele>
        <time>2018-08-20T08:12:00Z</time>
      </trkpt>
      <trkpt lat="45.84902" lon="4.27517">
        <ele>724.303</ele>
        <time>2018-08-20T08:12:06Z</time>
      </trkpt>
      <trkpt lat="45.84898" lon="4.27524">
        <ele>724.575</ele>
        <time>2018-08-20T08:12:11Z</time>
      </trkpt>
      <trkpt lat="45.84891" lon="4.27532">
        <ele>724.555</ele>
        <time>2018-08-20T08:12:17Z</time>
      </trkpt>
      <trkpt lat="45.84884" lon="4.27539">
        <ele>724.709</ele>
        <time>2018-08-20T08:12:22Z</time>
      </trkpt>
      <trkpt lat="45.84878" lon="4.27545">
        <ele>725.073</ele>
        <time>2018-08-20T08:12:28Z</time>
      </trkpt>
      <trkpt lat="45.84872" lon="4.27554">
        <ele>725.489</ele>
        <time>2018-08-20T08:12:34Z</time>
      </trkpt>
      <trkpt lat="45.84868" lon="4.27561">
        <ele>725.903</ele>
        <time>2018-08-20T08:12:39Z</time>
      </trkpt>
      <trkpt lat="45.84862" lon="4.27568">
        <ele>726.053</ele>
        <time>2018-08-20T08:12:44Z</time>
      </trkpt>
      <trkpt lat="45.84857" lon="4.27577">
        <ele>726.05</ele>
        <time>2018-08-20T08:12:50Z</time>
      </trkpt>
      <trkpt lat="45.84852" lon="4.27586">
        <ele>725.778</ele>
        <time>2018-08-20T08:12:56Z</time>
      </trkpt>
      <trkpt lat="45.84849" lon="4.27593">
        <ele>725.848</ele>
        <time>2018-08-20T08:13:01Z</time>
      </trkpt>
      <trkpt lat="45.84846" lon="4.276">
        <ele>725.704</ele>
        <time>2018-08-20T08:13:06Z</time>
      </trkpt>
      <trkpt lat="45.84838" lon="4.27606">
        <ele>725.469</ele>
        <time>2018-08-20T08:13:12Z</time>
      </trkpt>
      <trkpt lat="45.84833" lon="4.27614">
        <ele>725.354</ele>
        <time>2018-08-20T08:13:17Z</time>
      </trkpt>
      <trkpt lat="45.84825" lon="4.27617">
        <ele>724.767</ele>
        <time>2018-08-20T08:13:23Z</time>
      </trkpt>
      <trkpt lat="45.84818" lon="4.27617">
        <ele>724.434</ele>
        <time>2018-08-20T08:13:28Z</time>
      </trkpt>
      <trkpt lat="45.8481" lon="4.27615">
        <ele>723.974</ele>
        <time>2018-08-20T08:13:33Z</time>
      </trkpt>
      <trkpt lat="45.84803" lon="4.27616">
        <ele>723.332</ele>
        <time>2018-08-20T08:13:39Z</time>
      </trkpt>
      <trkpt lat="45.84797" lon="4.27614">
        <ele>722.374</ele>
        <time>2018-08-20T08:13:44Z</time>
      </trkpt>
      <trkpt lat="45.84791" lon="4.27615">
        <ele>721.557</ele>
        <time>2018-08-20T08:13:50Z</time>
      </trkpt>
      <trkpt lat="45.84784" lon="4.27618">
        <ele>720.959</ele>
        <time>2018-08-20T08:13:55Z</time>
      </trkpt>
      <trkpt lat="45.84777" lon="4.27621">
        <ele>720.47</ele>
        <time>2018-08-20T08:14:01Z</time>
      </trkpt>
      <trkpt lat="45.84771" lon="4.27627">
        <ele>720.058</ele>
        <time>2018-08-20T08:14:06Z</time>
      </trkpt>
      <trkpt lat="45.84765" lon="4.27633">
        <ele>719.565</ele>
        <time>2018-08-20T08:14:12Z</time>
      </trkpt>
      <trkpt lat="45.84759" lon="4.2764">
        <ele>719.411</ele>
        <time>2018-08-20T08:14:17Z</time>
      </trkpt>
      <trkpt lat="45.84755" lon="4.27647">
        <ele>719.363</ele>
        <time>2018-08-20T08:14:22Z</time>
      </trkpt>
      <trkpt lat="45.8475" lon="4.27655">
        <ele>719.365</ele>
        <time>2018-08-20T08:14:27Z</time>
      </trkpt>
      <trkpt lat="45.84745" lon="4.27663">
        <ele>719.459</ele>
        <time>2018-08-20T08:14:32Z</time>
      </trkpt>
      <trkpt lat="45.84739" lon="4.27672">
        <ele>719.344</ele>
        <time>2018-08-20T08:14:38Z</time>
      </trkpt>
      <trkpt lat="45.84733" lon="4.2768">
        <ele>719.043</ele>
        <time>2018-08-20T08:14:44Z</time>
      </trkpt>
      <trkpt lat="45.84729" lon="4.27689">
        <ele>718.854</ele>
        <time>2018-08-20T08:14:49Z</time>
      </trkpt>
      <trkpt lat="45.84725" lon="4.27699">
        <ele>718.629</ele>
        <time>2018-08-20T08:14:55Z</time>
      </trkpt>
      <trkpt lat="45.84722" lon="4.27706">
        <ele>718.679</ele>
        <time>2018-08-20T08:15:00Z</time>
      </trkpt>
      <trkpt lat="45.84716" lon="4.27718">
        <ele>718.893</ele>
        <time>2018-08-20T08:15:06Z</time>
      </trkpt>
      <trkpt lat="45.84714" lon="4.2773">
        <ele>719.09</ele>
        <time>2018-08-20T08:15:12Z</time>
      </trkpt>
      <trkpt lat="45.84711" lon="4.27738">
        <ele>719.348</ele>
        <time>2018-08-20T08:15:17Z</time>
      </trkpt>
      <trkpt lat="45.84707" lon="4.27749">
        <ele>719.751</ele>
        <time>2018-08-20T08:15:23Z</time>
      </trkpt>
      <trkpt lat="45.84704" lon="4.27758">
        <ele>720.175</ele>
        <time>2018-08-20T08:15:28Z</time>
      </trkpt>
      <trkpt lat="45.847" lon="4.2777">
        <ele>720.42</ele>
        <time>2018-08-20T08:15:34Z</time>
      </trkpt>
      <trkpt lat="45.84696" lon="4.2778">
        <ele>720.836</ele>
        <time>2018-08-20T08:15:40Z</time>
      </trkpt>
      <trkpt lat="45.84692" lon="4.2779">
        <ele>720.967</ele>
        <time>2018-08-20T08:15:45Z</time>
      </trkpt>
      <trkpt lat="45.84688" lon="4.27796">
        <ele>721.037</ele>
        <time>2018-08-20T08:15:50Z</time>
      </trkpt>
      <trkpt lat="45.84685" lon="4.27805">
        <ele>721.315</ele>
        <time>2018-08-20T08:15:56Z</time>
      </trkpt>
      <trkpt lat="45.8468" lon="4.27813">
        <ele>721.589</ele>
        <time>2018-08-20T08:16:01Z</time>
      </trkpt>
      <trkpt lat="45.84674" lon="4.27822">
        <ele>721.787</ele>
        <time>2018-08-20T08:16:07Z</time>
      </trkpt>
      <trkpt lat="45.84668" lon="4.27827">
        <ele>722.29</ele>
        <time>2018-08-20T08:16:13Z</time>
      </trkpt>
      <trkpt lat="45.84664" lon="4.27835">
        <ele>722.388</ele>
        <time>2018-08-20T08:16:19Z</time>
      </trkpt>
      <trkpt lat="45.84658" lon="4.27843">
        <ele>722.593</ele>
        <time>2018-08-20T08:16:24Z</time>
      </trkpt>
      <trkpt lat="45.84651" lon="4.27852">
        <ele>722.833</ele>
        <time>2018-08-20T08:16:31Z</time>
      </trkpt>
      <trkpt lat="45.84646" lon="4.27859">
        <ele>723.024</ele>
        <time>2018-08-20T08:16:36Z</time>
      </trkpt>
      <trkpt lat="45.84639" lon="4.27868">
        <ele>723.088</ele>
        <time>2018-08-20T08:16:42Z</time>
      </trkpt>
      <trkpt lat="45.84634" lon="4.27875">
        <ele>723.346</ele>
        <time>2018-08-20T08:16:47Z</time>
      </trkpt>
      <trkpt lat="45.84628" lon="4.27883">
        <ele>723.506</ele>
        <time>2018-08-20T08:16:53Z</time>
      </trkpt>
      <trkpt lat="45.84623" lon="4.2789">
        <ele>723.621</ele>
        <time>2018-08-20T08:16:59Z</time>
      </trkpt>
      <trkpt lat="45.84619" lon="4.27895">
        <ele>723.63</ele>
        <time>2018-08-20T08:17:04Z</time>
      </trkpt>
      <trkpt lat="45.84612" lon="4.27902">
        <ele>723.774</ele>
        <time>2018-08-20T08:17:10Z</time>
      </trkpt>
      <trkpt lat="45.84605" lon="4.27908">
        <ele>723.841</ele>
        <time>2018-08-20T08:17:15Z</time>
      </trkpt>
      <trkpt lat="45.84597" lon="4.27915">
        <ele>723.992</ele>
        <time>2018-08-20T08:17:21Z</time>
      </trkpt>
      <trkpt lat="45.84593" lon="4.27919">
        <ele>723.926</ele>
        <time>2018-08-20T08:17:27Z</time>
      </trkpt>
      <trkpt lat="45.84586" lon="4.27926">
        <ele>723.962</ele>
        <time>2018-08-20T08:17:32Z</time>
      </trkpt>
      <trkpt lat="45.8458" lon="4.27931">
        <ele>723.898</ele>
        <time>2018-08-20T08:17:38Z</time>
      </trkpt>
      <trkpt lat="45.84574" lon="4.27937">
        <ele>723.968</ele>
        <time>2018-08-20T08:17:44Z</time>
      </trkpt>
      <trkpt lat="45.84568" lon="4.27943">
        <ele>724.042</ele>
        <time>2018-08-20T08:17:50Z</time>
      </trkpt>
      <trkpt lat="45.8456" lon="4.2795">
        <ele>724.223</ele>
        <time>2018-08-20T08:17:56Z</time>
      </trkpt>
      <trkpt lat="45.84555" lon="4.27955">
        <ele>724.385</ele>
        <time>2018-08-20T08:18:01Z</time>
      </trkpt>
      <trkpt lat="45.84549" lon="4.27961">
        <ele>724.275</ele>
        <time>2018-08-20T08:18:07Z</time>
      </trkpt>
      <trkpt lat="45.84544" lon="4.27966">
        <ele>724.212</ele>
        <time>2018-08-20T08:18:12Z</time>
      </trkpt>
      <trkpt lat="45.84538" lon="4.27971">
        <ele>724.506</ele>
        <time>2018-08-20T08:18:17Z</time>
      </trkpt>
      <trkpt lat="45.84531" lon="4.27978">
        <ele>724.778</ele>
        <time>2018-08-20T08:18:23Z</time>
      </trkpt>
      <trkpt lat="45.84525" lon="4.27984">
        <ele>724.812</ele>
        <time>2018-08-20T08:18:29Z</time>
      </trkpt>
      <trkpt lat="45.84519" lon="4.27986">
        <ele>724.599</ele>
        <time>2018-08-20T08:18:34Z</time>
      </trkpt>
      <trkpt lat="45.84514" lon="4.27989">
        <ele>724.54</ele>
        <time>2018-08-20T08:18:40Z</time>
      </trkpt>
      <trkpt lat="45.84506" lon="4.27998">
        <ele>724.746</ele>
        <time>2018-08-20T08:18:46Z</time>
      </trkpt>
      <trkpt lat="45.84499" lon="4.28003">
        <ele>724.974</ele>
        <time>2018-08-20T08:18:52Z</time>
      </trkpt>
      <trkpt lat="45.84492" lon="4.28006">
        <ele>725.148</ele>
        <time>2018-08-20T08:18:58Z</time>
      </trkpt>
      <trkpt lat="45.84486" lon="4.28002">
        <ele>725.061</ele>
        <time>2018-08-20T08:19:03Z</time>
      </trkpt>
      <trkpt lat="45.84481" lon="4.27995">
        <ele>724.469</ele>
        <time>2018-08-20T08:19:08Z</time>
      </trkpt>
      <trkpt lat="45.84478" lon="4.27983">
        <ele>723.744</ele>
        <time>2018-08-20T08:19:14Z</time>
      </trkpt>
      <trkpt lat="45.84476" lon="4.27971">
        <ele>722.862</ele>
        <time>2018-08-20T08:19:20Z</time>
      </trkpt>
      <trkpt lat="45.84473" lon="4.27962">
        <ele>722.278</ele>
        <time>2018-08-20T08:19:26Z</time>
      </trkpt>
      <trkpt lat="45.8447" lon="4.27952">
        <ele>722.123</ele>
        <time>2018-08-20T08:19:32Z</time>
      </trkpt>
      <trkpt lat="45.84468" lon="4.27944">
        <ele>721.314</ele>
        <time>2018-08-20T08:19:38Z</time>
      </trkpt>
      <trkpt lat="45.84466" lon="4.27931">
        <ele>720.441</ele>
        <time>2018-08-20T08:19:44Z</time>
      </trkpt>
      <trkpt lat="45.84461" lon="4.27922">
        <ele>719.531</ele>
        <time>2018-08-20T08:19:50Z</time>
      </trkpt>
      <trkpt lat="45.84457" lon="4.27914">
        <ele>718.867</ele>
        <time>2018-08-20T08:19:56Z</time>
      </trkpt>
      <trkpt lat="45.84453" lon="4.27906">
        <ele>718.326</ele>
        <time>2018-08-20T08:20:01Z</time>
      </trkpt>
      <trkpt lat="45.84451" lon="4.27895">
        <ele>717.398</ele>
        <time>2018-08-20T08:20:07Z</time>
      </trkpt>
      <trkpt lat="45.84448" lon="4.27888">
        <ele>716.471</ele>
        <time>2018-08-20T08:20:12Z</time>
      </trkpt>
      <trkpt lat="45.84445" lon="4.2788">
        <ele>715.677</ele>
        <time>2018-08-20T08:20:17Z</time>
      </trkpt>
      <trkpt lat="45.84442" lon="4.27869">
        <ele>714.753</ele>
        <time>2018-08-20T08:20:23Z</time>
      </trkpt>
      <trkpt lat="45.84439" lon="4.2786">
        <ele>713.931</ele>
        <time>2018-08-20T08:20:29Z</time>
      </trkpt>
      <trkpt lat="45.84438" lon="4.27852">
        <ele>713.108</ele>
        <time>2018-08-20T08:20:34Z</time>
      </trkpt>
      <trkpt lat="45.84438" lon="4.27839">
        <ele>712.101</ele>
        <time>2018-08-20T08:20:40Z</time>
      </trkpt>
      <trkpt lat="45.84438" lon="4.27829">
        <ele>711.123</ele>
        <time>2018-08-20T08:20:45Z</time>
      </trkpt>
      <trkpt lat="45.84441" lon="4.27819">
        <ele>709.953</ele>
        <time>2018-08-20T08:20:51Z</time>
      </trkpt>
      <trkpt lat="45.84442" lon="4.2781">
        <ele>709.608</ele>
        <time>2018-08-20T08:20:56Z</time>
      </trkpt>
      <trkpt lat="45.84441" lon="4.27799">
        <ele>709.001</ele>
        <time>2018-08-20T08:21:01Z</time>
      </trkpt>
      <trkpt lat="45.84441" lon="4.27791">
        <ele>707.853</ele>
        <time>2018-08-20T08:21:07Z</time>
      </trkpt>
      <trkpt lat="45.84442" lon="4.27781">
        <ele>706.696</ele>
        <time>2018-08-20T08:21:12Z</time>
      </trkpt>
      <trkpt lat="45.84444" lon="4.27769">
        <ele>705.587</ele>
        <time>2018-08-20T08:21:18Z</time>
      </trkpt>
      <trkpt lat="45.84444" lon="4.27755">
        <ele>704.99</ele>
        <time>2018-08-20T08:21:24Z</time>
      </trkpt>
      <trkpt lat="45.84445" lon="4.27746">
        <ele>704.215</ele>
        <time>2018-08-20T08:21:30Z</time>
      </trkpt>
      <trkpt lat="45.84448" lon="4.27734">
        <ele>702.986</ele>
        <time>2018-08-20T08:21:36Z</time>
      </trkpt>
      <trkpt lat="45.84449" lon="4.27723">
        <ele>701.871</ele>
        <time>2018-08-20T08:21:41Z</time>
      </trkpt>
      <trkpt lat="45.8445" lon="4.27714">
        <ele>700.754</ele>
        <time>2018-08-20T08:21:46Z</time>
      </trkpt>
      <trkpt lat="45.84451" lon="4.27703">
        <ele>700.204</ele>
        <time>2018-08-20T08:21:52Z</time>
      </trkpt>
      <trkpt lat="45.8445" lon="4.27694">
        <ele>699.798</ele>
        <time>2018-08-20T08:21:58Z</time>
      </trkpt>
      <trkpt lat="45.84452" lon="4.27686">
        <ele>699.392</ele>
        <time>2018-08-20T08:22:03Z</time>
      </trkpt>
      <trkpt lat="45.84455" lon="4.27677">
        <ele>698.652</ele>
        <time>2018-08-20T08:22:09Z</time>
      </trkpt>
      <trkpt lat="45.84457" lon="4.27669">
        <ele>697.995</ele>
        <time>2018-08-20T08:22:14Z</time>
      </trkpt>
      <trkpt lat="45.8446" lon="4.2766">
        <ele>697.596</ele>
        <time>2018-08-20T08:22:19Z</time>
      </trkpt>
      <trkpt lat="45.84461" lon="4.27651">
        <ele>696.947</ele>
        <time>2018-08-20T08:22:25Z</time>
      </trkpt>
      <trkpt lat="45.84457" lon="4.27647">
        <ele>695.967</ele>
        <time>2018-08-20T08:22:31Z</time>
      </trkpt>
      <trkpt lat="45.84451" lon="4.27652">
        <ele>695.332</ele>
        <time>2018-08-20T08:22:37Z</time>
      </trkpt>
      <trkpt lat="45.84446" lon="4.27657">
        <ele>694.709</ele>
        <time>2018-08-20T08:22:43Z</time>
      </trkpt>
      <trkpt lat="45.8444" lon="4.27663">
        <ele>693.962</ele>
        <time>2018-08-20T08:22:49Z</time>
      </trkpt>
      <trkpt lat="45.84432" lon="4.27669">
        <ele>692.852</ele>
        <time>2018-08-20T08:22:55Z</time>
      </trkpt>
      <trkpt lat="45.84426" lon="4.27676">
        <ele>691.487</ele>
        <time>2018-08-20T08:23:01Z</time>
      </trkpt>
      <trkpt lat="45.8442" lon="4.27682">
        <ele>690.312</ele>
        <time>2018-08-20T08:23:07Z</time>
      </trkpt>
      <trkpt lat="45.84414" lon="4.27687">
        <ele>689.499</ele>
        <time>2018-08-20T08:23:12Z</time>
      </trkpt>
      <trkpt lat="45.84409" lon="4.27695">
        <ele>689.285</ele>
        <time>2018-08-20T08:23:18Z</time>
      </trkpt>
      <trkpt lat="45.84404" lon="4.27701">
        <ele>689.162</ele>
        <time>2018-08-20T08:23:23Z</time>
      </trkpt>
      <trkpt lat="45.84397" lon="4.27707">
        <ele>689.1</ele>
        <time>2018-08-20T08:23:28Z</time>
      </trkpt>
      <trkpt lat="45.8439" lon="4.2771">
        <ele>688.682</ele>
        <time>2018-08-20T08:23:34Z</time>
      </trkpt>
      <trkpt lat="45.84382" lon="4.27711">
        <ele>688.094</ele>
        <time>2018-08-20T08:23:40Z</time>
      </trkpt>
      <trkpt lat="45.84375" lon="4.27711">
        <ele>687.205</ele>
        <time>2018-08-20T08:23:46Z</time>
      </trkpt>
      <trkpt lat="45.84366" lon="4.27711">
        <ele>686.682</ele>
        <time>2018-08-20T08:23:52Z</time>
      </trkpt>
      <trkpt lat="45.84359" lon="4.2771">
        <ele>685.676</ele>
        <time>2018-08-20T08:23:58Z</time>
      </trkpt>
      <trkpt lat="45.8435" lon="4.27707">
        <ele>684.372</ele>
        <time>2018-08-20T08:24:04Z</time>
      </trkpt>
      <trkpt lat="45.84344" lon="4.27703">
        <ele>683.916</ele>
        <time>2018-08-20T08:24:10Z</time>
      </trkpt>
      <trkpt lat="45.84338" lon="4.27696">
        <ele>683.252</ele>
        <time>2018-08-20T08:24:16Z</time>
      </trkpt>
      <trkpt lat="45.8433" lon="4.2769">
        <ele>682.324</ele>
        <time>2018-08-20T08:24:22Z</time>
      </trkpt>
      <trkpt lat="45.84325" lon="4.27684">
        <ele>681.462</ele>
        <time>2018-08-20T08:24:27Z</time>
      </trkpt>
      <trkpt lat="45.84321" lon="4.27679">
        <ele>680.744</ele>
        <time>2018-08-20T08:24:32Z</time>
      </trkpt>
      <trkpt lat="45.84316" lon="4.2767">
        <ele>680.263</ele>
        <time>2018-08-20T08:24:38Z</time>
      </trkpt>
      <trkpt lat="45.84312" lon="4.27659">
        <ele>679.572</ele>
        <time>2018-08-20T08:24:43Z</time>
      </trkpt>
      <trkpt lat="45.84309" lon="4.27649">
        <ele>678.758</ele>
        <time>2018-08-20T08:24:49Z</time>
      </trkpt>
      <trkpt lat="45.84308" lon="4.2764">
        <ele>677.918</ele>
        <time>2018-08-20T08:24:55Z</time>
      </trkpt>
      <trkpt lat="45.84308" lon="4.27629">
        <ele>677.089</ele>
        <time>2018-08-20T08:25:00Z</time>
      </trkpt>
      <trkpt lat="45.84306" lon="4.27619">
        <ele>676.727</ele>
        <time>2018-08-20T08:25:06Z</time>
      </trkpt>
      <trkpt lat="45.84305" lon="4.27609">
        <ele>676.705</ele>
        <time>2018-08-20T08:25:11Z</time>
      </trkpt>
      <trkpt lat="45.84303" lon="4.27601">
        <ele>676.435</ele>
        <time>2018-08-20T08:25:16Z</time>
      </trkpt>
      <trkpt lat="45.843" lon="4.27589">
        <ele>675.998</ele>
        <time>2018-08-20T08:25:22Z</time>
      </trkpt>
      <trkpt lat="45.84296" lon="4.27583">
        <ele>675.388</ele>
        <time>2018-08-20T08:25:27Z</time>
      </trkpt>
      <trkpt lat="45.8429" lon="4.27576">
        <ele>674.481</ele>
        <time>2018-08-20T08:25:33Z</time>
      </trkpt>
      <trkpt lat="45.84285" lon="4.27573">
        <ele>673.632</ele>
        <time>2018-08-20T08:25:38Z</time>
      </trkpt>
      <trkpt lat="45.84278" lon="4.27567">
        <ele>672.838</ele>
        <time>2018-08-20T08:25:44Z</time>
      </trkpt>
      <trkpt lat="45.84272" lon="4.27561">
        <ele>672.149</ele>
        <time>2018-08-20T08:25:50Z</time>
      </trkpt>
      <trkpt lat="45.84264" lon="4.27556">
        <ele>671.389</ele>
        <time>2018-08-20T08:25:56Z</time>
      </trkpt>
      <trkpt lat="45.84257" lon="4.27548">
        <ele>670.514</ele>
        <time>2018-08-20T08:26:02Z</time>
      </trkpt>
      <trkpt lat="45.84248" lon="4.27544">
        <ele>669.3</ele>
        <time>2018-08-20T08:26:08Z</time>
      </trkpt>
      <trkpt lat="45.84246" lon="4.27544">
        <ele>667.857</ele>
        <time>2018-08-20T08:26:14Z</time>
      </trkpt>
      <trkpt lat="45.84241" lon="4.27539">
        <ele>667.042</ele>
        <time>2018-08-20T08:26:20Z</time>
      </trkpt>
      <trkpt lat="45.84233" lon="4.27533">
        <ele>666.488</ele>
        <time>2018-08-20T08:26:26Z</time>
      </trkpt>
      <trkpt lat="45.84226" lon="4.27526">
        <ele>666.338</ele>
        <time>2018-08-20T08:26:32Z</time>
      </trkpt>
      <trkpt lat="45.84221" lon="4.27516">
        <ele>665.758</ele>
        <time>2018-08-20T08:26:38Z</time>
      </trkpt>
      <trkpt lat="45.84219" lon="4.2751">
        <ele>664.642</ele>
        <time>2018-08-20T08:26:44Z</time>
      </trkpt>
      <trkpt lat="45.84216" lon="4.27499">
        <ele>663.417</ele>
        <time>2018-08-20T08:26:50Z</time>
      </trkpt>
      <trkpt lat="45.84212" lon="4.2749">
        <ele>662.957</ele>
        <time>2018-08-20T08:26:55Z</time>
      </trkpt>
      <trkpt lat="45.84207" lon="4.27482">
        <ele>662.415</ele>
        <time>2018-08-20T08:27:00Z</time>
      </trkpt>
      <trkpt lat="45.84203" lon="4.27473">
        <ele>661.693</ele>
        <time>2018-08-20T08:27:06Z</time>
      </trkpt>
      <trkpt lat="45.84198" lon="4.27465">
        <ele>660.943</ele>
        <time>2018-08-20T08:27:12Z</time>
      </trkpt>
      <trkpt lat="45.84191" lon="4.27455">
        <ele>660.359</ele>
        <time>2018-08-20T08:27:18Z</time>
      </trkpt>
      <trkpt lat="45.84185" lon="4.27448">
        <ele>659.315</ele>
        <time>2018-08-20T08:27:24Z</time>
      </trkpt>
      <trkpt lat="45.84178" lon="4.2744">
        <ele>658.632</ele>
        <time>2018-08-20T08:27:30Z</time>
      </trkpt>
      <trkpt lat="45.84175" lon="4.27434">
        <ele>658.101</ele>
        <time>2018-08-20T08:27:35Z</time>
      </trkpt>
      <trkpt lat="45.84167" lon="4.27426">
        <ele>657.548</ele>
        <time>2018-08-20T08:27:40Z</time>
      </trkpt>
      <trkpt lat="45.84163" lon="4.2742">
        <ele>657.153</ele>
        <time>2018-08-20T08:27:46Z</time>
      </trkpt>
      <trkpt lat="45.84158" lon="4.27415">
        <ele>656.625</ele>
        <time>2018-08-20T08:27:51Z</time>
      </trkpt>
      <trkpt lat="45.84154" lon="4.27406">
        <ele>655.917</ele>
        <time>2018-08-20T08:27:57Z</time>
      </trkpt>
      <trkpt lat="45.84149" lon="4.27397">
        <ele>655.427</ele>
        <time>2018-08-20T08:28:03Z</time>
      </trkpt>
      <trkpt lat="45.84143" lon="4.27388">
        <ele>655.18</ele>
        <time>2018-08-20T08:28:09Z</time>
      </trkpt>
      <trkpt lat="45.84139" lon="4.27379">
        <ele>655.049</ele>
        <time>2018-08-20T08:28:15Z</time>
      </trkpt>
      <trkpt lat="45.84136" lon="4.2737">
        <ele>655.426</ele>
        <time>2018-08-20T08:28:21Z</time>
      </trkpt>
      <trkpt lat="45.84132" lon="4.27363">
        <ele>655.597</ele>
        <time>2018-08-20T08:28:26Z</time>
      </trkpt>
      <trkpt lat="45.84127" lon="4.27355">
        <ele>655.649</ele>
        <time>2018-08-20T08:28:32Z</time>
      </trkpt>
      <trkpt lat="45.84122" lon="4.27347">
        <ele>655.186</ele>
        <time>2018-08-20T08:28:37Z</time>
      </trkpt>
      <trkpt lat="45.84117" lon="4.27339">
        <ele>654.528</ele>
        <time>2018-08-20T08:28:42Z</time>
      </trkpt>
      <trkpt lat="45.84114" lon="4.27328">
        <ele>653.551</ele>
        <time>2018-08-20T08:28:48Z</time>
      </trkpt>
      <trkpt lat="45.84109" lon="4.2732">
        <ele>652.822</ele>
        <time>2018-08-20T08:28:54Z</time>
      </trkpt>
      <trkpt lat="45.84108" lon="4.27314">
        <ele>652.037</ele>
        <time>2018-08-20T08:28:59Z</time>
      </trkpt>
      <trkpt lat="45.84105" lon="4.27304">
        <ele>651.399</ele>
        <time>2018-08-20T08:29:05Z</time>
      </trkpt>
      <trkpt lat="45.84101" lon="4.27294">
        <ele>651.076</ele>
        <time>2018-08-20T08:29:10Z</time>
      </trkpt>
      <trkpt lat="45.84099" lon="4.27283">
        <ele>650.499</ele>
        <time>2018-08-20T08:29:16Z</time>
      </trkpt>
      <trkpt lat="45.84097" lon="4.27272">
        <ele>650.307</ele>
        <time>2018-08-20T08:29:22Z</time>
      </trkpt>
      <trkpt lat="45.84093" lon="4.27264">
        <ele>650.041</ele>
        <time>2018-08-20T08:29:28Z</time>
      </trkpt>
      <trkpt lat="45.84091" lon="4.27253">
        <ele>650.046</ele>
        <time>2018-08-20T08:29:33Z</time>
      </trkpt>
      <trkpt lat="45.84091" lon="4.27244">
        <ele>649.696</ele>
        <time>2018-08-20T08:29:38Z</time>
      </trkpt>
      <trkpt lat="45.84088" lon="4.27234">
        <ele>649.066</ele>
        <time>2018-08-20T08:29:44Z</time>
      </trkpt>
      <trkpt lat="45.84084" lon="4.27223">
        <ele>648.604</ele>
        <time>2018-08-20T08:29:50Z</time>
      </trkpt>
      <trkpt lat="45.84082" lon="4.27214">
        <ele>649.299</ele>
        <time>2018-08-20T08:29:56Z</time>
      </trkpt>
      <trkpt lat="45.84082" lon="4.27205">
        <ele>649.505</ele>
        <time>2018-08-20T08:30:01Z</time>
      </trkpt>
      <trkpt lat="45.8408" lon="4.27196">
        <ele>649.45</ele>
        <time>2018-08-20T08:30:06Z</time>
      </trkpt>
      <trkpt lat="45.84075" lon="4.27186">
        <ele>648.685</ele>
        <time>2018-08-20T08:30:12Z</time>
      </trkpt>
      <trkpt lat="45.84072" lon="4.27179">
        <ele>648.086</ele>
        <time>2018-08-20T08:30:18Z</time>
      </trkpt>
      <trkpt lat="45.84067" lon="4.27165">
        <ele>647.718</ele>
        <time>2018-08-20T08:30:24Z</time>
      </trkpt>
      <trkpt lat="45.84064" lon="4.27156">
        <ele>648.034</ele>
        <time>2018-08-20T08:30:29Z</time>
      </trkpt>
      <trkpt lat="45.84062" lon="4.27146">
        <ele>648.022</ele>
        <time>2018-08-20T08:30:35Z</time>
      </trkpt>
      <trkpt lat="45.84059" lon="4.27139">
        <ele>647.89</ele>
        <time>2018-08-20T08:30:40Z</time>
      </trkpt>
      <trkpt lat="45.84056" lon="4.27131">
        <ele>647.773</ele>
        <time>2018-08-20T08:30:45Z</time>
      </trkpt>
      <trkpt lat="45.84053" lon="4.27122">
        <ele>647.599</ele>
        <time>2018-08-20T08:30:51Z</time>
      </trkpt>
      <trkpt lat="45.84049" lon="4.27114">
        <ele>647.696</ele>
        <time>2018-08-20T08:30:57Z</time>
      </trkpt>
      <trkpt lat="45.84047" lon="4.27103">
        <ele>647.825</ele>
        <time>2018-08-20T08:31:03Z</time>
      </trkpt>
      <trkpt lat="45.84044" lon="4.27096">
        <ele>648.702</ele>
        <time>2018-08-20T08:31:09Z</time>
      </trkpt>
      <trkpt lat="45.84038" lon="4.27085">
        <ele>649.479</ele>
        <time>2018-08-20T08:31:15Z</time>
      </trkpt>
      <trkpt lat="45.84035" lon="4.27075">
        <ele>649.72</ele>
        <time>2018-08-20T08:31:21Z</time>
      </trkpt>
      <trkpt lat="45.84033" lon="4.27065">
        <ele>649.673</ele>
        <time>2018-08-20T08:31:27Z</time>
      </trkpt>
      <trkpt lat="45.84031" lon="4.27054">
        <ele>649.974</ele>
        <time>2018-08-20T08:31:33Z</time>
      </trkpt>
      <trkpt lat="45.84027" lon="4.27045">
        <ele>650.237</ele>
        <time>2018-08-20T08:31:39Z</time>
      </trkpt>
      <trkpt lat="45.84023" lon="4.27035">
        <ele>650.693</ele>
        <time>2018-08-20T08:31:45Z</time>
      </trkpt>
      <trkpt lat="45.8402" lon="4.27026">
        <ele>650.637</ele>
        <time>2018-08-20T08:31:51Z</time>
      </trkpt>
      <trkpt lat="45.84017" lon="4.27015">
        <ele>650.616</ele>
        <time>2018-08-20T08:31:56Z</time>
      </trkpt>
      <trkpt lat="45.84014" lon="4.27005">
        <ele>650.474</ele>
        <time>2018-08-20T08:32:02Z</time>
      </trkpt>
      <trkpt lat="45.84011" lon="4.26994">
        <ele>650.285</ele>
        <time>2018-08-20T08:32:08Z</time>
      </trkpt>
      <trkpt lat="45.84005" lon="4.26983">
        <ele>650.083</ele>
        <time>2018-08-20T08:32:13Z</time>
      </trkpt>
      <trkpt lat="45.84004" lon="4.26977">
        <ele>649.801</ele>
        <time>2018-08-20T08:32:19Z</time>
      </trkpt>
      <trkpt lat="45.84001" lon="4.26968">
        <ele>649.546</ele>
        <time>2018-08-20T08:32:24Z</time>
      </trkpt>
      <trkpt lat="45.84" lon="4.2696">
        <ele>649.53</ele>
        <time>2018-08-20T08:32:29Z</time>
      </trkpt>
      <trkpt lat="45.83999" lon="4.26952">
        <ele>649.864</ele>
        <time>2018-08-20T08:32:35Z</time>
      </trkpt>
      <trkpt lat="45.83996" lon="4.26941">
        <ele>649.831</ele>
        <time>2018-08-20T08:32:40Z</time>
      </trkpt>
      <trkpt lat="45.83991" lon="4.26929">
        <ele>649.693</ele>
        <time>2018-08-20T08:32:45Z</time>
      </trkpt>
      <trkpt lat="45.83987" lon="4.26921">
        <ele>649.293</ele>
        <time>2018-08-20T08:32:51Z</time>
      </trkpt>
      <trkpt lat="45.83986" lon="4.26911">
        <ele>649.04</ele>
        <time>2018-08-20T08:32:57Z</time>
      </trkpt>
      <trkpt lat="45.83983" lon="4.26905">
        <ele>648.944</ele>
        <time>2018-08-20T08:33:02Z</time>
      </trkpt>
      <trkpt lat="45.83977" lon="4.26895">
        <ele>648.715</ele>
        <time>2018-08-20T08:33:08Z</time>
      </trkpt>
      <trkpt lat="45.83973" lon="4.26889">
        <ele>648.046</ele>
        <time>2018-08-20T08:33:13Z</time>
      </trkpt>
      <trkpt lat="45.83968" lon="4.26881">
        <ele>647.203</ele>
        <time>2018-08-20T08:33:19Z</time>
      </trkpt>
      <trkpt lat="45.83965" lon="4.26872">
        <ele>647.122</ele>
        <time>2018-08-20T08:33:25Z</time>
      </trkpt>
      <trkpt lat="45.83959" lon="4.26864">
        <ele>646.91</ele>
        <time>2018-08-20T08:33:31Z</time>
      </trkpt>
      <trkpt lat="45.83952" lon="4.26856">
        <ele>646.767</ele>
        <time>2018-08-20T08:33:37Z</time>
      </trkpt>
      <trkpt lat="45.83946" lon="4.26849">
        <ele>646.074</ele>
        <time>2018-08-20T08:33:43Z</time>
      </trkpt>
      <trkpt lat="45.83941" lon="4.26843">
        <ele>645.266</ele>
        <time>2018-08-20T08:33:48Z</time>
      </trkpt>
      <trkpt lat="45.83938" lon="4.26836">
        <ele>644.365</ele>
        <time>2018-08-20T08:33:53Z</time>
      </trkpt>
      <trkpt lat="45.83932" lon="4.26832">
        <ele>643.754</ele>
        <time>2018-08-20T08:33:59Z</time>
      </trkpt>
      <trkpt lat="45.83928" lon="4.26824">
        <ele>643.01</ele>
        <time>2018-08-20T08:34:05Z</time>
      </trkpt>
      <trkpt lat="45.83923" lon="4.26817">
        <ele>642.325</ele>
        <time>2018-08-20T08:34:10Z</time>
      </trkpt>
      <trkpt lat="45.83917" lon="4.2681">
        <ele>641.551</ele>
        <time>2018-08-20T08:34:16Z</time>
      </trkpt>
      <trkpt lat="45.83913" lon="4.26806">
        <ele>641.402</ele>
        <time>2018-08-20T08:34:21Z</time>
      </trkpt>
      <trkpt lat="45.83906" lon="4.268">
        <ele>640.954</ele>
        <time>2018-08-20T08:34:26Z</time>
      </trkpt>
      <trkpt lat="45.83901" lon="4.26794">
        <ele>640.41</ele>
        <time>2018-08-20T08:34:32Z</time>
      </trkpt>
      <trkpt lat="45.83895" lon="4.26788">
        <ele>639.753</ele>
        <time>2018-08-20T08:34:37Z</time>
      </trkpt>
      <trkpt lat="45.83891" lon="4.26781">
        <ele>639.227</ele>
        <time>2018-08-20T08:34:42Z</time>
      </trkpt>
      <trkpt lat="45.83883" lon="4.26776">
        <ele>638.871</ele>
        <time>2018-08-20T08:34:48Z</time>
      </trkpt>
      <trkpt lat="45.83878" lon="4.26771">
        <ele>638.71</ele>
        <time>2018-08-20T08:34:54Z</time>
      </trkpt>
      <trkpt lat="45.83873" lon="4.26765">
        <ele>638.414</ele>
        <time>2018-08-20T08:34:59Z</time>
      </trkpt>
      <trkpt lat="45.83865" lon="4.26759">
        <ele>638.028</ele>
        <time>2018-08-20T08:35:05Z</time>
      </trkpt>
      <trkpt lat="45.83858" lon="4.26753">
        <ele>637.98</ele>
        <time>2018-08-20T08:35:11Z</time>
      </trkpt>
      <trkpt lat="45.83854" lon="4.26746">
        <ele>637.921</ele>
        <time>2018-08-20T08:35:16Z</time>
      </trkpt>
      <trkpt lat="45.8385" lon="4.26738">
        <ele>637.756</ele>
        <time>2018-08-20T08:35:22Z</time>
      </trkpt>
      <trkpt lat="45.83843" lon="4.26729">
        <ele>637.369</ele>
        <time>2018-08-20T08:35:28Z</time>
      </trkpt>
      <trkpt lat="45.83837" lon="4.2672">
        <ele>636.848</ele>
        <time>2018-08-20T08:35:34Z</time>
      </trkpt>
      <trkpt lat="45.83833" lon="4.26718">
        <ele>636.803</ele>
        <time>2018-08-20T08:35:39Z</time>
      </trkpt>
      <trkpt lat="45.83826" lon="4.26708">
        <ele>636.843</ele>
        <time>2018-08-20T08:35:45Z</time>
      </trkpt>
      <trkpt lat="45.83819" lon="4.26701">
        <ele>636.242</ele>
        <time>2018-08-20T08:35:51Z</time>
      </trkpt>
      <trkpt lat="45.83812" lon="4.26695">
        <ele>635.67</ele>
        <time>2018-08-20T08:35:57Z</time>
      </trkpt>
      <trkpt lat="45.83807" lon="4.26691">
        <ele>635.824</ele>
        <time>2018-08-20T08:36:03Z</time>
      </trkpt>
      <trkpt lat="45.83804" lon="4.26684">
        <ele>636.364</ele>
        <time>2018-08-20T08:36:08Z</time>
      </trkpt>
      <trkpt lat="45.83798" lon="4.26674">
        <ele>637.139</ele>
        <time>2018-08-20T08:36:14Z</time>
      </trkpt>
      <trkpt lat="45.83791" lon="4.26667">
        <ele>637.282</ele>
        <time>2018-08-20T08:36:19Z</time>
      </trkpt>
      <trkpt lat="45.83786" lon="4.26663">
        <ele>637.272</ele>
        <time>2018-08-20T08:36:24Z</time>
      </trkpt>
      <trkpt lat="45.83778" lon="4.26657">
        <ele>637.138</ele>
        <time>2018-08-20T08:36:29Z</time>
      </trkpt>
      <trkpt lat="45.83773" lon="4.26655">
        <ele>636.507</ele>
        <time>2018-08-20T08:36:35Z</time>
      </trkpt>
      <trkpt lat="45.83769" lon="4.26656">
        <ele>636.562</ele>
        <time>2018-08-20T08:36:40Z</time>
      </trkpt>
      <trkpt lat="45.83763" lon="4.2666">
        <ele>636.935</ele>
        <time>2018-08-20T08:36:45Z</time>
      </trkpt>
      <trkpt lat="45.83758" lon="4.26666">
        <ele>637.553</ele>
        <time>2018-08-20T08:36:51Z</time>
      </trkpt>
      <trkpt lat="45.8375" lon="4.26672">
        <ele>637.411</ele>
        <time>2018-08-20T08:36:57Z</time>
      </trkpt>
      <trkpt lat="45.83744" lon="4.26676">
        <ele>636.747</ele>
        <time>2018-08-20T08:37:03Z</time>
      </trkpt>
      <trkpt lat="45.83738" lon="4.26681">
        <ele>636.381</ele>
        <time>2018-08-20T08:37:08Z</time>
      </trkpt>
      <trkpt lat="45.83732" lon="4.26683">
        <ele>636.234</ele>
        <time>2018-08-20T08:37:14Z</time>
      </trkpt>
      <trkpt lat="45.83725" lon="4.26684">
        <ele>636.164</ele>
        <time>2018-08-20T08:37:20Z</time>
      </trkpt>
      <trkpt lat="45.83716" lon="4.26683">
        <ele>635.792</ele>
        <time>2018-08-20T08:37:25Z</time>
      </trkpt>
      <trkpt lat="45.83709" lon="4.26686">
        <ele>635.508</ele>
        <time>2018-08-20T08:37:31Z</time>
      </trkpt>
      <trkpt lat="45.83704" lon="4.26688">
        <ele>635.774</ele>
        <time>2018-08-20T08:37:37Z</time>
      </trkpt>
      <trkpt lat="45.83696" lon="4.26694">
        <ele>636.28</ele>
        <time>2018-08-20T08:37:43Z</time>
      </trkpt>
      <trkpt lat="45.83692" lon="4.267">
        <ele>636.42</ele>
        <time>2018-08-20T08:37:49Z</time>
      </trkpt>
      <trkpt lat="45.83687" lon="4.26709">
        <ele>636.487</ele>
        <time>2018-08-20T08:37:54Z</time>
      </trkpt>
      <trkpt lat="45.83683" lon="4.26712">
        <ele>636.721</ele>
        <time>2018-08-20T08:38:00Z</time>
      </trkpt>
      <trkpt lat="45.83678" lon="4.2672">
        <ele>637.254</ele>
        <time>2018-08-20T08:38:06Z</time>
      </trkpt>
      <trkpt lat="45.83666" lon="4.26722">
        <ele>638.096</ele>
        <time>2018-08-20T08:38:12Z</time>
      </trkpt>
      <trkpt lat="45.8366" lon="4.26729">
        <ele>638.559</ele>
        <time>2018-08-20T08:38:18Z</time>
      </trkpt>
      <trkpt lat="45.83653" lon="4.26733">
        <ele>639.058</ele>
        <time>2018-08-20T08:38:24Z</time>
      </trkpt>
      <trkpt lat="45.83648" lon="4.2674">
        <ele>638.982</ele>
        <time>2018-08-20T08:38:29Z</time>
      </trkpt>
      <trkpt lat="45.83643" lon="4.26744">
        <ele>638.983</ele>
        <time>2018-08-20T08:38:34Z</time>
      </trkpt>
      <trkpt lat="45.83636" lon="4.26747">
        <ele>638.966</ele>
        <time>2018-08-20T08:38:39Z</time>
      </trkpt>
      <trkpt lat="45.83631" lon="4.26751">
        <ele>639.869</ele>
        <time>2018-08-20T08:38:45Z</time>
      </trkpt>
      <trkpt lat="45.83624" lon="4.26756">
        <ele>641.04</ele>
        <time>2018-08-20T08:38:51Z</time>
      </trkpt>
      <trkpt lat="45.83622" lon="4.26759">
        <ele>641.551</ele>
        <time>2018-08-20T08:38:56Z</time>
      </trkpt>
      <trkpt lat="45.83614" lon="4.26764">
        <ele>641.691</ele>
        <time>2018-08-20T08:39:03Z</time>
      </trkpt>
      <trkpt lat="45.83608" lon="4.26768">
        <ele>642.282</ele>
        <time>2018-08-20T08:39:08Z</time>
      </trkpt>
      <trkpt lat="45.836" lon="4.26772">
        <ele>642.804</ele>
        <time>2018-08-20T08:39:14Z</time>
      </trkpt>
      <trkpt lat="45.8359" lon="4.26773">
        <ele>643.677</ele>
        <time>2018-08-20T08:39:20Z</time>
      </trkpt>
      <trkpt lat="45.83584" lon="4.26776">
        <ele>644.338</ele>
        <time>2018-08-20T08:39:25Z</time>
      </trkpt>
      <trkpt lat="45.8358" lon="4.26793">
        <ele>644.075</ele>
        <time>2018-08-20T08:39:31Z</time>
      </trkpt>
      <trkpt lat="45.8358" lon="4.26803">
        <ele>643.892</ele>
        <time>2018-08-20T08:39:36Z</time>
      </trkpt>
      <trkpt lat="45.8358" lon="4.26811">
        <ele>643.648</ele>
        <time>2018-08-20T08:39:42Z</time>
      </trkpt>
      <trkpt lat="45.83578" lon="4.26825">
        <ele>643.541</ele>
        <time>2018-08-20T08:39:48Z</time>
      </trkpt>
      <trkpt lat="45.83578" lon="4.26835">
        <ele>643.115</ele>
        <time>2018-08-20T08:39:54Z</time>
      </trkpt>
      <trkpt lat="45.83578" lon="4.26845">
        <ele>643.058</ele>
        <time>2018-08-20T08:40:00Z</time>
      </trkpt>
      <trkpt lat="45.83578" lon="4.26854">
        <ele>643.096</ele>
        <time>2018-08-20T08:40:06Z</time>
      </trkpt>
      <trkpt lat="45.83578" lon="4.26864">
        <ele>643.184</ele>
        <time>2018-08-20T08:40:11Z</time>
      </trkpt>
      <trkpt lat="45.83578" lon="4.26871">
        <ele>643.205</ele>
        <time>2018-08-20T08:40:17Z</time>
      </trkpt>
      <trkpt lat="45.83578" lon="4.26874">
        <ele>643.089</ele>
        <time>2018-08-20T08:40:23Z</time>
      </trkpt>
      <trkpt lat="45.83577" lon="4.2688">
        <ele>642.933</ele>
        <time>2018-08-20T08:40:28Z</time>
      </trkpt>
      <trkpt lat="45.83579" lon="4.2689">
        <ele>643.055</ele>
        <time>2018-08-20T08:40:34Z</time>
      </trkpt>
      <trkpt lat="45.8358" lon="4.26898">
        <ele>643.244</ele>
        <time>2018-08-20T08:40:39Z</time>
      </trkpt>
      <trkpt lat="45.8358" lon="4.26909">
        <ele>643.765</ele>
        <time>2018-08-20T08:40:45Z</time>
      </trkpt>
      <trkpt lat="45.83578" lon="4.26921">
        <ele>644.004</ele>
        <time>2018-08-20T08:40:51Z</time>
      </trkpt>
      <trkpt lat="45.83575" lon="4.2693">
        <ele>644.74</ele>
        <time>2018-08-20T08:40:57Z</time>
      </trkpt>
      <trkpt lat="45.83575" lon="4.26942">
        <ele>644.93</ele>
        <time>2018-08-20T08:41:03Z</time>
      </trkpt>
      <trkpt lat="45.83576" lon="4.26952">
        <ele>644.878</ele>
        <time>2018-08-20T08:41:08Z</time>
      </trkpt>
      <trkpt lat="45.83577" lon="4.26963">
        <ele>645.009</ele>
        <time>2018-08-20T08:41:14Z</time>
      </trkpt>
      <trkpt lat="45.83576" lon="4.26972">
        <ele>644.859</ele>
        <time>2018-08-20T08:41:19Z</time>
      </trkpt>
      <trkpt lat="45.83575" lon="4.26981">
        <ele>645.291</ele>
        <time>2018-08-20T08:41:25Z</time>
      </trkpt>
      <trkpt lat="45.8357" lon="4.2699">
        <ele>645.784</ele>
        <time>2018-08-20T08:41:31Z</time>
      </trkpt>
      <trkpt lat="45.83569" lon="4.26993">
        <ele>646.092</ele>
        <time>2018-08-20T08:41:36Z</time>
      </trkpt>
      <trkpt lat="45.83566" lon="4.26999">
        <ele>646.803</ele>
        <time>2018-08-20T08:41:41Z</time>
      </trkpt>
      <trkpt lat="45.83563" lon="4.27006">
        <ele>647.796</ele>
        <time>2018-08-20T08:41:47Z</time>
      </trkpt>
      <trkpt lat="45.83562" lon="4.27007">
        <ele>649.574</ele>
        <time>2018-08-20T08:41:53Z</time>
      </trkpt>
      <trkpt lat="45.83561" lon="4.27009">
        <ele>650.589</ele>
        <time>2018-08-20T08:41:59Z</time>
      </trkpt>
      <trkpt lat="45.83559" lon="4.27008">
        <ele>648.577</ele>
        <time>2018-08-20T08:42:05Z</time>
      </trkpt>
      <trkpt lat="45.83555" lon="4.27011">
        <ele>646.136</ele>
        <time>2018-08-20T08:42:11Z</time>
      </trkpt>
      <trkpt lat="45.83557" lon="4.27014">
        <ele>644.447</ele>
        <time>2018-08-20T08:42:16Z</time>
      </trkpt>
      <trkpt lat="45.83557" lon="4.27016">
        <ele>643.851</ele>
        <time>2018-08-20T08:42:22Z</time>
      </trkpt>
      <trkpt lat="45.83559" lon="4.27014">
        <ele>643.545</ele>
        <time>2018-08-20T08:42:27Z</time>
      </trkpt>
      <trkpt lat="45.8356" lon="4.27012">
        <ele>644.042</ele>
        <time>2018-08-20T08:42:33Z</time>
      </trkpt>
      <trkpt lat="45.83558" lon="4.27013">
        <ele>644.318</ele>
        <time>2018-08-20T08:42:39Z</time>
      </trkpt>
      <trkpt lat="45.83558" lon="4.27013">
        <ele>644.336</ele>
        <time>2018-08-20T08:42:44Z</time>
      </trkpt>
      <trkpt lat="45.8356" lon="4.27007">
        <ele>644.278</ele>
        <time>2018-08-20T08:42:49Z</time>
      </trkpt>
      <trkpt lat="45.83564" lon="4.27008">
        <ele>644.118</ele>
        <time>2018-08-20T08:42:55Z</time>
      </trkpt>
      <trkpt lat="45.83562" lon="4.2701">
        <ele>644.052</ele>
        <time>2018-08-20T08:43:01Z</time>
      </trkpt>
      <trkpt lat="45.8357" lon="4.27018">
        <ele>597</ele>
        <time>2018-08-20T08:43:07Z</time>
      </trkpt>
      <trkpt lat="45.83562" lon="4.27009">
        <ele>643.637</ele>
        <time>2018-08-20T08:43:13Z</time>
      </trkpt>
      <trkpt lat="45.83562" lon="4.27009">
        <ele>643.023</ele>
        <time>2018-08-20T08:43:19Z</time>
      </trkpt>
    </trkseg>
  </trk>
</gpx>